<?xml version="1.0" encoding="UTF-8" standalone="no" ?>
<gpx xmlns="http://www.topografix.com/GPX/1/1" xmlns:xsi="http://www.w3.org/2001/XMLSchema-instance" xsi:schemaLocation="http://www.topografix.com/GPX/1/1 http://www.topografix.com/GPX/1/1/gpx.xsd" version="1.1" creator="VisuGPX - https://www.visugpx.com">
  <metadata>
    <name>single track mail de Hard par st Bertrand de cominges</name>
    <desc><![CDATA[Ascension et descente du mail du hard très délicate !]]></desc>
  </metadata>
  <trk>
    <name><![CDATA[single track mail de Hard par st Bertrand de cominges]]></name>
    <trkseg>
      <trkpt lat="43.03673" lon="0.61529">
        <ele>504.645822</ele>
        <time>2023-09-24T07:56:01.267Z</time>
      </trkpt>
      <trkpt lat="43.03683" lon="0.61525">
        <ele>504.645822</ele>
        <time>2023-09-24T07:56:16.204Z</time>
      </trkpt>
      <trkpt lat="43.03694" lon="0.6152">
        <ele>504.645822</ele>
        <time>2023-09-24T07:56:21.185Z</time>
      </trkpt>
      <trkpt lat="43.03704" lon="0.61513">
        <ele>504.645822</ele>
        <time>2023-09-24T07:56:25.199Z</time>
      </trkpt>
      <trkpt lat="43.03715" lon="0.61506">
        <ele>504.645822</ele>
        <time>2023-09-24T07:56:29.204Z</time>
      </trkpt>
      <trkpt lat="43.03724" lon="0.61499">
        <ele>504.645822</ele>
        <time>2023-09-24T07:56:33.210Z</time>
      </trkpt>
      <trkpt lat="43.03735" lon="0.61491">
        <ele>504.645822</ele>
        <time>2023-09-24T07:56:36.220Z</time>
      </trkpt>
      <trkpt lat="43.03746" lon="0.61483">
        <ele>504.645822</ele>
        <time>2023-09-24T07:56:39.226Z</time>
      </trkpt>
      <trkpt lat="43.03755" lon="0.61477">
        <ele>504.67135</ele>
        <time>2023-09-24T07:56:41.226Z</time>
      </trkpt>
      <trkpt lat="43.03764" lon="0.61471">
        <ele>505.012534</ele>
        <time>2023-09-24T07:56:43.233Z</time>
      </trkpt>
      <trkpt lat="43.03773" lon="0.61465">
        <ele>505.35337</ele>
        <time>2023-09-24T07:56:45.203Z</time>
      </trkpt>
      <trkpt lat="43.03782" lon="0.61458">
        <ele>505.721681</ele>
        <time>2023-09-24T07:56:47.205Z</time>
      </trkpt>
      <trkpt lat="43.03791" lon="0.61451">
        <ele>506.090001</ele>
        <time>2023-09-24T07:56:49.222Z</time>
      </trkpt>
      <trkpt lat="43.03801" lon="0.61444">
        <ele>506.456011</ele>
        <time>2023-09-24T07:56:51.208Z</time>
      </trkpt>
      <trkpt lat="43.03811" lon="0.61437">
        <ele>506.839988</ele>
        <time>2023-09-24T07:56:53.203Z</time>
      </trkpt>
      <trkpt lat="43.0382" lon="0.61431">
        <ele>507.202549</ele>
        <time>2023-09-24T07:56:55.200Z</time>
      </trkpt>
      <trkpt lat="43.0383" lon="0.61425">
        <ele>507.558873</ele>
        <time>2023-09-24T07:56:57.206Z</time>
      </trkpt>
      <trkpt lat="43.03839" lon="0.61419">
        <ele>507.906982</ele>
        <time>2023-09-24T07:56:59.219Z</time>
      </trkpt>
      <trkpt lat="43.03847" lon="0.61413">
        <ele>508.230205</ele>
        <time>2023-09-24T07:57:01.212Z</time>
      </trkpt>
      <trkpt lat="43.03858" lon="0.61404">
        <ele>508.665422</ele>
        <time>2023-09-24T07:57:04.186Z</time>
      </trkpt>
      <trkpt lat="43.03868" lon="0.61399">
        <ele>509.013729</ele>
        <time>2023-09-24T07:57:07.202Z</time>
      </trkpt>
      <trkpt lat="43.03876" lon="0.61393">
        <ele>509.3431</ele>
        <time>2023-09-24T07:57:10.180Z</time>
      </trkpt>
      <trkpt lat="43.03884" lon="0.61384">
        <ele>509.707741</ele>
        <time>2023-09-24T07:57:14.197Z</time>
      </trkpt>
      <trkpt lat="43.03883" lon="0.6137">
        <ele>510.045305</ele>
        <time>2023-09-24T07:57:18.206Z</time>
      </trkpt>
      <trkpt lat="43.03881" lon="0.61355">
        <ele>510.435613</ele>
        <time>2023-09-24T07:57:22.196Z</time>
      </trkpt>
      <trkpt lat="43.03878" lon="0.61343">
        <ele>510.763421</ele>
        <time>2023-09-24T07:57:26.200Z</time>
      </trkpt>
      <trkpt lat="43.03875" lon="0.6133">
        <ele>510.89364</ele>
        <time>2023-09-24T07:57:30.212Z</time>
      </trkpt>
      <trkpt lat="43.03873" lon="0.61317">
        <ele>510.976247</ele>
        <time>2023-09-24T07:57:33.233Z</time>
      </trkpt>
      <trkpt lat="43.03869" lon="0.61291">
        <ele>511.148789</ele>
        <time>2023-09-24T07:58:09.211Z</time>
      </trkpt>
      <trkpt lat="43.03867" lon="0.61277">
        <ele>511.238632</ele>
        <time>2023-09-24T07:58:13.203Z</time>
      </trkpt>
      <trkpt lat="43.03863" lon="0.61263">
        <ele>511.333625</ele>
        <time>2023-09-24T07:58:17.205Z</time>
      </trkpt>
      <trkpt lat="43.0386" lon="0.61249">
        <ele>511.427407</ele>
        <time>2023-09-24T07:58:21.191Z</time>
      </trkpt>
      <trkpt lat="43.03855" lon="0.61236">
        <ele>511.521207</ele>
        <time>2023-09-24T07:58:25.200Z</time>
      </trkpt>
      <trkpt lat="43.03848" lon="0.61226">
        <ele>511.608816</ele>
        <time>2023-09-24T07:58:29.184Z</time>
      </trkpt>
      <trkpt lat="43.03841" lon="0.61214">
        <ele>511.710865</ele>
        <time>2023-09-24T07:58:33.212Z</time>
      </trkpt>
      <trkpt lat="43.03835" lon="0.61202">
        <ele>511.798176</ele>
        <time>2023-09-24T07:58:36.191Z</time>
      </trkpt>
      <trkpt lat="43.03827" lon="0.6119">
        <ele>511.899091</ele>
        <time>2023-09-24T07:58:39.213Z</time>
      </trkpt>
      <trkpt lat="43.03819" lon="0.61178">
        <ele>512.009808</ele>
        <time>2023-09-24T07:58:42.198Z</time>
      </trkpt>
      <trkpt lat="43.0381" lon="0.61167">
        <ele>512.108399</ele>
        <time>2023-09-24T07:58:45.193Z</time>
      </trkpt>
      <trkpt lat="43.03802" lon="0.61156">
        <ele>512.210138</ele>
        <time>2023-09-24T07:58:48.197Z</time>
      </trkpt>
      <trkpt lat="43.03795" lon="0.61145">
        <ele>512.302461</ele>
        <time>2023-09-24T07:58:51.216Z</time>
      </trkpt>
      <trkpt lat="43.03789" lon="0.61133">
        <ele>512.375331</ele>
        <time>2023-09-24T07:58:54.213Z</time>
      </trkpt>
      <trkpt lat="43.03783" lon="0.6112">
        <ele>512.021619</ele>
        <time>2023-09-24T07:58:57.205Z</time>
      </trkpt>
      <trkpt lat="43.03777" lon="0.61105">
        <ele>511.623434</ele>
        <time>2023-09-24T07:59:00.220Z</time>
      </trkpt>
      <trkpt lat="43.03773" lon="0.61092">
        <ele>511.325293</ele>
        <time>2023-09-24T07:59:02.245Z</time>
      </trkpt>
      <trkpt lat="43.03772" lon="0.61079">
        <ele>511.025785</ele>
        <time>2023-09-24T07:59:04.208Z</time>
      </trkpt>
      <trkpt lat="43.03771" lon="0.61066">
        <ele>510.733602</ele>
        <time>2023-09-24T07:59:06.201Z</time>
      </trkpt>
      <trkpt lat="43.0377" lon="0.61053">
        <ele>510.426033</ele>
        <time>2023-09-24T07:59:08.214Z</time>
      </trkpt>
      <trkpt lat="43.03767" lon="0.61038">
        <ele>510.085811</ele>
        <time>2023-09-24T07:59:10.199Z</time>
      </trkpt>
      <trkpt lat="43.03765" lon="0.61023">
        <ele>509.733039</ele>
        <time>2023-09-24T07:59:12.231Z</time>
      </trkpt>
      <trkpt lat="43.03764" lon="0.61005">
        <ele>509.339883</ele>
        <time>2023-09-24T07:59:14.184Z</time>
      </trkpt>
      <trkpt lat="43.03763" lon="0.60986">
        <ele>508.906591</ele>
        <time>2023-09-24T07:59:16.215Z</time>
      </trkpt>
      <trkpt lat="43.03757" lon="0.60969">
        <ele>508.478715</ele>
        <time>2023-09-24T07:59:18.206Z</time>
      </trkpt>
      <trkpt lat="43.03751" lon="0.60952">
        <ele>508.054337</ele>
        <time>2023-09-24T07:59:20.248Z</time>
      </trkpt>
      <trkpt lat="43.03744" lon="0.60938">
        <ele>507.661384</ele>
        <time>2023-09-24T07:59:22.218Z</time>
      </trkpt>
      <trkpt lat="43.03736" lon="0.60925">
        <ele>507.289294</ele>
        <time>2023-09-24T07:59:24.205Z</time>
      </trkpt>
      <trkpt lat="43.03729" lon="0.60913">
        <ele>506.949266</ele>
        <time>2023-09-24T07:59:26.206Z</time>
      </trkpt>
      <trkpt lat="43.03722" lon="0.60902">
        <ele>506.809666</ele>
        <time>2023-09-24T07:59:28.206Z</time>
      </trkpt>
      <trkpt lat="43.03715" lon="0.6089">
        <ele>506.774894</ele>
        <time>2023-09-24T07:59:30.200Z</time>
      </trkpt>
      <trkpt lat="43.03709" lon="0.60879">
        <ele>506.741817</ele>
        <time>2023-09-24T07:59:32.212Z</time>
      </trkpt>
      <trkpt lat="43.03703" lon="0.60866">
        <ele>506.707132</ele>
        <time>2023-09-24T07:59:34.203Z</time>
      </trkpt>
      <trkpt lat="43.03698" lon="0.60855">
        <ele>506.676539</ele>
        <time>2023-09-24T07:59:36.192Z</time>
      </trkpt>
      <trkpt lat="43.03692" lon="0.60839">
        <ele>506.635776</ele>
        <time>2023-09-24T07:59:39.205Z</time>
      </trkpt>
      <trkpt lat="43.03687" lon="0.60824">
        <ele>506.597713</ele>
        <time>2023-09-24T07:59:42.198Z</time>
      </trkpt>
      <trkpt lat="43.0368" lon="0.60812">
        <ele>506.564268</ele>
        <time>2023-09-24T07:59:45.199Z</time>
      </trkpt>
      <trkpt lat="43.03674" lon="0.60802">
        <ele>506.533584</ele>
        <time>2023-09-24T07:59:49.198Z</time>
      </trkpt>
      <trkpt lat="43.03669" lon="0.60793">
        <ele>506.505101</ele>
        <time>2023-09-24T07:59:54.229Z</time>
      </trkpt>
      <trkpt lat="43.03666" lon="0.6078">
        <ele>506.475457</ele>
        <time>2023-09-24T08:00:00.185Z</time>
      </trkpt>
      <trkpt lat="43.03665" lon="0.60767">
        <ele>506.444368</ele>
        <time>2023-09-24T08:00:05.203Z</time>
      </trkpt>
      <trkpt lat="43.03668" lon="0.60754">
        <ele>506.413887</ele>
        <time>2023-09-24T08:00:08.234Z</time>
      </trkpt>
      <trkpt lat="43.03672" lon="0.60739">
        <ele>506.376929</ele>
        <time>2023-09-24T08:00:11.217Z</time>
      </trkpt>
      <trkpt lat="43.03678" lon="0.60727">
        <ele>506.343284</ele>
        <time>2023-09-24T08:00:14.194Z</time>
      </trkpt>
      <trkpt lat="43.03683" lon="0.60717">
        <ele>506.31466</ele>
        <time>2023-09-24T08:00:17.223Z</time>
      </trkpt>
      <trkpt lat="43.0369" lon="0.60706">
        <ele>506.281947</ele>
        <time>2023-09-24T08:00:21.211Z</time>
      </trkpt>
      <trkpt lat="43.03695" lon="0.60695">
        <ele>506.230885</ele>
        <time>2023-09-24T08:00:24.176Z</time>
      </trkpt>
      <trkpt lat="43.03699" lon="0.60684">
        <ele>506.154342</ele>
        <time>2023-09-24T08:00:27.181Z</time>
      </trkpt>
      <trkpt lat="43.03702" lon="0.6067">
        <ele>506.065689</ele>
        <time>2023-09-24T08:00:30.215Z</time>
      </trkpt>
      <trkpt lat="43.03702" lon="0.60655">
        <ele>505.976036</ele>
        <time>2023-09-24T08:00:33.197Z</time>
      </trkpt>
      <trkpt lat="43.03697" lon="0.60642">
        <ele>505.888698</ele>
        <time>2023-09-24T08:00:36.214Z</time>
      </trkpt>
      <trkpt lat="43.03686" lon="0.60634">
        <ele>505.779416</ele>
        <time>2023-09-24T08:00:39.206Z</time>
      </trkpt>
      <trkpt lat="43.03675" lon="0.60641">
        <ele>505.684269</ele>
        <time>2023-09-24T08:00:41.218Z</time>
      </trkpt>
      <trkpt lat="43.03667" lon="0.60653">
        <ele>505.580961</ele>
        <time>2023-09-24T08:00:43.195Z</time>
      </trkpt>
      <trkpt lat="43.03658" lon="0.60666">
        <ele>505.47789</ele>
        <time>2023-09-24T08:00:45.217Z</time>
      </trkpt>
      <trkpt lat="43.0365" lon="0.60679">
        <ele>505.370315</ele>
        <time>2023-09-24T08:00:47.203Z</time>
      </trkpt>
      <trkpt lat="43.0364" lon="0.60692">
        <ele>505.258542</ele>
        <time>2023-09-24T08:00:49.211Z</time>
      </trkpt>
      <trkpt lat="43.0363" lon="0.60704">
        <ele>505.144124</ele>
        <time>2023-09-24T08:00:51.218Z</time>
      </trkpt>
      <trkpt lat="43.03619" lon="0.60718">
        <ele>505.021281</ele>
        <time>2023-09-24T08:00:53.198Z</time>
      </trkpt>
      <trkpt lat="43.03608" lon="0.60731">
        <ele>504.897981</ele>
        <time>2023-09-24T08:00:55.199Z</time>
      </trkpt>
      <trkpt lat="43.03596" lon="0.60745">
        <ele>504.770847</ele>
        <time>2023-09-24T08:00:57.207Z</time>
      </trkpt>
      <trkpt lat="43.03584" lon="0.60758">
        <ele>504.29295</ele>
        <time>2023-09-24T08:00:59.205Z</time>
      </trkpt>
      <trkpt lat="43.03571" lon="0.60771">
        <ele>503.797811</ele>
        <time>2023-09-24T08:01:01.204Z</time>
      </trkpt>
      <trkpt lat="43.03557" lon="0.60783">
        <ele>503.295633</ele>
        <time>2023-09-24T08:01:03.206Z</time>
      </trkpt>
      <trkpt lat="43.03544" lon="0.60796">
        <ele>502.799885</ele>
        <time>2023-09-24T08:01:05.220Z</time>
      </trkpt>
      <trkpt lat="43.0353" lon="0.60809">
        <ele>502.287531</ele>
        <time>2023-09-24T08:01:07.215Z</time>
      </trkpt>
      <trkpt lat="43.03516" lon="0.6082">
        <ele>501.780595</ele>
        <time>2023-09-24T08:01:09.216Z</time>
      </trkpt>
      <trkpt lat="43.03501" lon="0.60831">
        <ele>501.265701</ele>
        <time>2023-09-24T08:01:11.202Z</time>
      </trkpt>
      <trkpt lat="43.03485" lon="0.60841">
        <ele>500.728988</ele>
        <time>2023-09-24T08:01:13.217Z</time>
      </trkpt>
      <trkpt lat="43.03477" lon="0.60846">
        <ele>500.451331</ele>
        <time>2023-09-24T08:01:14.203Z</time>
      </trkpt>
      <trkpt lat="43.03468" lon="0.60851">
        <ele>500.166833</ele>
        <time>2023-09-24T08:01:15.200Z</time>
      </trkpt>
      <trkpt lat="43.03452" lon="0.60859">
        <ele>499.61786</ele>
        <time>2023-09-24T08:01:17.200Z</time>
      </trkpt>
      <trkpt lat="43.03443" lon="0.60863">
        <ele>499.340978</ele>
        <time>2023-09-24T08:01:18.201Z</time>
      </trkpt>
      <trkpt lat="43.03434" lon="0.60868">
        <ele>499.126373</ele>
        <time>2023-09-24T08:01:19.215Z</time>
      </trkpt>
      <trkpt lat="43.03425" lon="0.60872">
        <ele>498.952537</ele>
        <time>2023-09-24T08:01:20.202Z</time>
      </trkpt>
      <trkpt lat="43.03415" lon="0.60875">
        <ele>498.772222</ele>
        <time>2023-09-24T08:01:21.198Z</time>
      </trkpt>
      <trkpt lat="43.03406" lon="0.60879">
        <ele>498.599166</ele>
        <time>2023-09-24T08:01:22.202Z</time>
      </trkpt>
      <trkpt lat="43.03396" lon="0.60882">
        <ele>498.419789</ele>
        <time>2023-09-24T08:01:23.202Z</time>
      </trkpt>
      <trkpt lat="43.03387" lon="0.60885">
        <ele>498.246267</ele>
        <time>2023-09-24T08:01:24.204Z</time>
      </trkpt>
      <trkpt lat="43.03378" lon="0.60888">
        <ele>498.080624</ele>
        <time>2023-09-24T08:01:25.218Z</time>
      </trkpt>
      <trkpt lat="43.0336" lon="0.60892">
        <ele>497.756189</ele>
        <time>2023-09-24T08:01:27.202Z</time>
      </trkpt>
      <trkpt lat="43.03351" lon="0.60895">
        <ele>497.586233</ele>
        <time>2023-09-24T08:01:28.178Z</time>
      </trkpt>
      <trkpt lat="43.03342" lon="0.60896">
        <ele>497.42312</ele>
        <time>2023-09-24T08:01:29.228Z</time>
      </trkpt>
      <trkpt lat="43.03333" lon="0.60897">
        <ele>497.259853</ele>
        <time>2023-09-24T08:01:30.201Z</time>
      </trkpt>
      <trkpt lat="43.03323" lon="0.60899">
        <ele>497.088932</ele>
        <time>2023-09-24T08:01:31.199Z</time>
      </trkpt>
      <trkpt lat="43.03314" lon="0.60901">
        <ele>496.917822</ele>
        <time>2023-09-24T08:01:32.203Z</time>
      </trkpt>
      <trkpt lat="43.03305" lon="0.60903">
        <ele>496.746309</ele>
        <time>2023-09-24T08:01:33.206Z</time>
      </trkpt>
      <trkpt lat="43.03296" lon="0.60905">
        <ele>496.581092</ele>
        <time>2023-09-24T08:01:34.203Z</time>
      </trkpt>
      <trkpt lat="43.03286" lon="0.60906">
        <ele>496.416331</ele>
        <time>2023-09-24T08:01:35.250Z</time>
      </trkpt>
      <trkpt lat="43.03269" lon="0.60908">
        <ele>496.103997</ele>
        <time>2023-09-24T08:01:37.204Z</time>
      </trkpt>
      <trkpt lat="43.03252" lon="0.6091">
        <ele>495.860614</ele>
        <time>2023-09-24T08:01:39.201Z</time>
      </trkpt>
      <trkpt lat="43.03235" lon="0.60913">
        <ele>495.65457</ele>
        <time>2023-09-24T08:01:41.232Z</time>
      </trkpt>
      <trkpt lat="43.03219" lon="0.60915">
        <ele>495.458029</ele>
        <time>2023-09-24T08:01:43.201Z</time>
      </trkpt>
      <trkpt lat="43.03204" lon="0.60918">
        <ele>495.262125</ele>
        <time>2023-09-24T08:01:45.194Z</time>
      </trkpt>
      <trkpt lat="43.03188" lon="0.6092">
        <ele>495.072586</ele>
        <time>2023-09-24T08:01:47.193Z</time>
      </trkpt>
      <trkpt lat="43.03173" lon="0.60922">
        <ele>494.887743</ele>
        <time>2023-09-24T08:01:49.197Z</time>
      </trkpt>
      <trkpt lat="43.03158" lon="0.60924">
        <ele>494.705237</ele>
        <time>2023-09-24T08:01:51.199Z</time>
      </trkpt>
      <trkpt lat="43.03145" lon="0.60927">
        <ele>494.534789</ele>
        <time>2023-09-24T08:01:53.200Z</time>
      </trkpt>
      <trkpt lat="43.03131" lon="0.60928">
        <ele>494.365169</ele>
        <time>2023-09-24T08:01:55.201Z</time>
      </trkpt>
      <trkpt lat="43.03117" lon="0.6093">
        <ele>494.201323</ele>
        <time>2023-09-24T08:01:57.213Z</time>
      </trkpt>
      <trkpt lat="43.03105" lon="0.60933">
        <ele>494.040843</ele>
        <time>2023-09-24T08:01:59.204Z</time>
      </trkpt>
      <trkpt lat="43.03091" lon="0.60936">
        <ele>493.872826</ele>
        <time>2023-09-24T08:02:01.223Z</time>
      </trkpt>
      <trkpt lat="43.03077" lon="0.60938">
        <ele>493.833836</ele>
        <time>2023-09-24T08:02:03.206Z</time>
      </trkpt>
      <trkpt lat="43.03064" lon="0.60941">
        <ele>493.902913</ele>
        <time>2023-09-24T08:02:05.196Z</time>
      </trkpt>
      <trkpt lat="43.03051" lon="0.60945">
        <ele>493.970217</ele>
        <time>2023-09-24T08:02:07.199Z</time>
      </trkpt>
      <trkpt lat="43.03038" lon="0.60949">
        <ele>494.036163</ele>
        <time>2023-09-24T08:02:09.205Z</time>
      </trkpt>
      <trkpt lat="43.03025" lon="0.60953">
        <ele>494.102409</ele>
        <time>2023-09-24T08:02:11.204Z</time>
      </trkpt>
      <trkpt lat="43.03013" lon="0.60957">
        <ele>494.166465</ele>
        <time>2023-09-24T08:02:13.201Z</time>
      </trkpt>
      <trkpt lat="43.03" lon="0.60962">
        <ele>494.230807</ele>
        <time>2023-09-24T08:02:15.195Z</time>
      </trkpt>
      <trkpt lat="43.02988" lon="0.60967">
        <ele>494.293448</ele>
        <time>2023-09-24T08:02:17.209Z</time>
      </trkpt>
      <trkpt lat="43.02977" lon="0.60972">
        <ele>494.355365</ele>
        <time>2023-09-24T08:02:19.179Z</time>
      </trkpt>
      <trkpt lat="43.02965" lon="0.60977">
        <ele>494.415763</ele>
        <time>2023-09-24T08:02:21.199Z</time>
      </trkpt>
      <trkpt lat="43.02954" lon="0.60983">
        <ele>494.475087</ele>
        <time>2023-09-24T08:02:23.200Z</time>
      </trkpt>
      <trkpt lat="43.02943" lon="0.60989">
        <ele>494.534669</ele>
        <time>2023-09-24T08:02:25.204Z</time>
      </trkpt>
      <trkpt lat="43.02932" lon="0.60995">
        <ele>494.593375</ele>
        <time>2023-09-24T08:02:27.200Z</time>
      </trkpt>
      <trkpt lat="43.02922" lon="0.61002">
        <ele>494.648982</ele>
        <time>2023-09-24T08:02:29.201Z</time>
      </trkpt>
      <trkpt lat="43.02914" lon="0.6101">
        <ele>494.695503</ele>
        <time>2023-09-24T08:02:31.203Z</time>
      </trkpt>
      <trkpt lat="43.02904" lon="0.61016">
        <ele>494.624573</ele>
        <time>2023-09-24T08:02:33.200Z</time>
      </trkpt>
      <trkpt lat="43.02894" lon="0.61023">
        <ele>494.551741</ele>
        <time>2023-09-24T08:02:35.205Z</time>
      </trkpt>
      <trkpt lat="43.02885" lon="0.61032">
        <ele>494.479053</ele>
        <time>2023-09-24T08:02:37.203Z</time>
      </trkpt>
      <trkpt lat="43.02876" lon="0.61041">
        <ele>494.406089</ele>
        <time>2023-09-24T08:02:39.216Z</time>
      </trkpt>
      <trkpt lat="43.02867" lon="0.61049">
        <ele>494.336885</ele>
        <time>2023-09-24T08:02:41.213Z</time>
      </trkpt>
      <trkpt lat="43.02858" lon="0.61056">
        <ele>494.268193</ele>
        <time>2023-09-24T08:02:43.212Z</time>
      </trkpt>
      <trkpt lat="43.02849" lon="0.61063">
        <ele>494.20145</ele>
        <time>2023-09-24T08:02:45.238Z</time>
      </trkpt>
      <trkpt lat="43.02841" lon="0.6107">
        <ele>494.139722</ele>
        <time>2023-09-24T08:02:47.202Z</time>
      </trkpt>
      <trkpt lat="43.02831" lon="0.61076">
        <ele>494.069229</ele>
        <time>2023-09-24T08:02:50.219Z</time>
      </trkpt>
      <trkpt lat="43.02821" lon="0.61073">
        <ele>494.00166</ele>
        <time>2023-09-24T08:02:53.199Z</time>
      </trkpt>
      <trkpt lat="43.02813" lon="0.61062">
        <ele>493.925869</ele>
        <time>2023-09-24T08:02:56.218Z</time>
      </trkpt>
      <trkpt lat="43.02808" lon="0.61046">
        <ele>493.840454</ele>
        <time>2023-09-24T08:02:59.201Z</time>
      </trkpt>
      <trkpt lat="43.02805" lon="0.61033">
        <ele>493.775859</ele>
        <time>2023-09-24T08:03:01.181Z</time>
      </trkpt>
      <trkpt lat="43.02801" lon="0.61016">
        <ele>493.692018</ele>
        <time>2023-09-24T08:03:04.209Z</time>
      </trkpt>
      <trkpt lat="43.02796" lon="0.61">
        <ele>493.607414</ele>
        <time>2023-09-24T08:03:07.206Z</time>
      </trkpt>
      <trkpt lat="43.0279" lon="0.60985">
        <ele>493.528616</ele>
        <time>2023-09-24T08:03:10.188Z</time>
      </trkpt>
      <trkpt lat="43.02783" lon="0.6097">
        <ele>493.482724</ele>
        <time>2023-09-24T08:03:13.213Z</time>
      </trkpt>
      <trkpt lat="43.02777" lon="0.6096">
        <ele>493.451819</ele>
        <time>2023-09-24T08:03:15.230Z</time>
      </trkpt>
      <trkpt lat="43.0277" lon="0.60949">
        <ele>493.420139</ele>
        <time>2023-09-24T08:03:17.216Z</time>
      </trkpt>
      <trkpt lat="43.02762" lon="0.60936">
        <ele>493.380471</ele>
        <time>2023-09-24T08:03:19.205Z</time>
      </trkpt>
      <trkpt lat="43.02753" lon="0.60922">
        <ele>493.336499</ele>
        <time>2023-09-24T08:03:21.230Z</time>
      </trkpt>
      <trkpt lat="43.02744" lon="0.60908">
        <ele>493.29495</ele>
        <time>2023-09-24T08:03:23.204Z</time>
      </trkpt>
      <trkpt lat="43.02735" lon="0.60895">
        <ele>493.25309</ele>
        <time>2023-09-24T08:03:25.201Z</time>
      </trkpt>
      <trkpt lat="43.02726" lon="0.60882">
        <ele>493.212</ele>
        <time>2023-09-24T08:03:27.233Z</time>
      </trkpt>
      <trkpt lat="43.02717" lon="0.6087">
        <ele>493.171021</ele>
        <time>2023-09-24T08:03:29.196Z</time>
      </trkpt>
      <trkpt lat="43.02708" lon="0.60857">
        <ele>493.131513</ele>
        <time>2023-09-24T08:03:31.224Z</time>
      </trkpt>
      <trkpt lat="43.02699" lon="0.60845">
        <ele>493.092283</ele>
        <time>2023-09-24T08:03:33.256Z</time>
      </trkpt>
      <trkpt lat="43.02691" lon="0.60834">
        <ele>493.055308</ele>
        <time>2023-09-24T08:03:35.217Z</time>
      </trkpt>
      <trkpt lat="43.02683" lon="0.60823">
        <ele>493.019004</ele>
        <time>2023-09-24T08:03:37.226Z</time>
      </trkpt>
      <trkpt lat="43.02674" lon="0.60812">
        <ele>492.981113</ele>
        <time>2023-09-24T08:03:39.218Z</time>
      </trkpt>
      <trkpt lat="43.02665" lon="0.608">
        <ele>492.967726</ele>
        <time>2023-09-24T08:03:41.212Z</time>
      </trkpt>
      <trkpt lat="43.02657" lon="0.6079">
        <ele>493.016203</ele>
        <time>2023-09-24T08:03:43.206Z</time>
      </trkpt>
      <trkpt lat="43.0265" lon="0.60778">
        <ele>493.064458</ele>
        <time>2023-09-24T08:03:45.201Z</time>
      </trkpt>
      <trkpt lat="43.02643" lon="0.60768">
        <ele>493.106609</ele>
        <time>2023-09-24T08:03:47.201Z</time>
      </trkpt>
      <trkpt lat="43.02635" lon="0.60755">
        <ele>493.160712</ele>
        <time>2023-09-24T08:03:50.206Z</time>
      </trkpt>
      <trkpt lat="43.02626" lon="0.60743">
        <ele>493.214466</ele>
        <time>2023-09-24T08:03:53.196Z</time>
      </trkpt>
      <trkpt lat="43.0262" lon="0.60732">
        <ele>493.25789</ele>
        <time>2023-09-24T08:03:56.157Z</time>
      </trkpt>
      <trkpt lat="43.02613" lon="0.60721">
        <ele>493.304313</ele>
        <time>2023-09-24T08:04:00.216Z</time>
      </trkpt>
      <trkpt lat="43.02607" lon="0.60711">
        <ele>493.344049</ele>
        <time>2023-09-24T08:04:03.239Z</time>
      </trkpt>
      <trkpt lat="43.026" lon="0.60702">
        <ele>493.385333</ele>
        <time>2023-09-24T08:04:05.181Z</time>
      </trkpt>
      <trkpt lat="43.02594" lon="0.60692">
        <ele>493.426402</ele>
        <time>2023-09-24T08:04:08.181Z</time>
      </trkpt>
      <trkpt lat="43.02587" lon="0.60684">
        <ele>493.466366</ele>
        <time>2023-09-24T08:04:11.209Z</time>
      </trkpt>
      <trkpt lat="43.02575" lon="0.6069">
        <ele>493.522327</ele>
        <time>2023-09-24T08:04:14.203Z</time>
      </trkpt>
      <trkpt lat="43.02566" lon="0.60704">
        <ele>493.579864</ele>
        <time>2023-09-24T08:04:17.203Z</time>
      </trkpt>
      <trkpt lat="43.02561" lon="0.60715">
        <ele>493.62092</ele>
        <time>2023-09-24T08:04:19.215Z</time>
      </trkpt>
      <trkpt lat="43.02554" lon="0.60725">
        <ele>493.662525</ele>
        <time>2023-09-24T08:04:21.211Z</time>
      </trkpt>
      <trkpt lat="43.02548" lon="0.60736">
        <ele>493.70612</ele>
        <time>2023-09-24T08:04:23.210Z</time>
      </trkpt>
      <trkpt lat="43.02542" lon="0.60746">
        <ele>493.756662</ele>
        <time>2023-09-24T08:04:25.203Z</time>
      </trkpt>
      <trkpt lat="43.02534" lon="0.6076">
        <ele>493.835526</ele>
        <time>2023-09-24T08:04:28.197Z</time>
      </trkpt>
      <trkpt lat="43.02526" lon="0.60769">
        <ele>493.893383</ele>
        <time>2023-09-24T08:04:30.231Z</time>
      </trkpt>
      <trkpt lat="43.02519" lon="0.60777">
        <ele>493.951144</ele>
        <time>2023-09-24T08:04:32.202Z</time>
      </trkpt>
      <trkpt lat="43.0251" lon="0.60783">
        <ele>494.008714</ele>
        <time>2023-09-24T08:04:34.205Z</time>
      </trkpt>
      <trkpt lat="43.02502" lon="0.60788">
        <ele>494.064114</ele>
        <time>2023-09-24T08:04:36.207Z</time>
      </trkpt>
      <trkpt lat="43.02492" lon="0.60792">
        <ele>494.126495</ele>
        <time>2023-09-24T08:04:38.222Z</time>
      </trkpt>
      <trkpt lat="43.02482" lon="0.60798">
        <ele>494.188607</ele>
        <time>2023-09-24T08:04:40.201Z</time>
      </trkpt>
      <trkpt lat="43.02473" lon="0.60804">
        <ele>494.252198</ele>
        <time>2023-09-24T08:04:42.205Z</time>
      </trkpt>
      <trkpt lat="43.02462" lon="0.60809">
        <ele>494.318005</ele>
        <time>2023-09-24T08:04:44.198Z</time>
      </trkpt>
      <trkpt lat="43.02452" lon="0.60814">
        <ele>494.382169</ele>
        <time>2023-09-24T08:04:46.213Z</time>
      </trkpt>
      <trkpt lat="43.02444" lon="0.6082">
        <ele>494.43924</ele>
        <time>2023-09-24T08:04:48.221Z</time>
      </trkpt>
      <trkpt lat="43.02435" lon="0.60824">
        <ele>494.497879</ele>
        <time>2023-09-24T08:04:50.209Z</time>
      </trkpt>
      <trkpt lat="43.02422" lon="0.60831">
        <ele>494.57654</ele>
        <time>2023-09-24T08:04:53.201Z</time>
      </trkpt>
      <trkpt lat="43.02414" lon="0.60836">
        <ele>494.630495</ele>
        <time>2023-09-24T08:04:55.227Z</time>
      </trkpt>
      <trkpt lat="43.02405" lon="0.60841">
        <ele>494.687549</ele>
        <time>2023-09-24T08:04:57.216Z</time>
      </trkpt>
      <trkpt lat="43.02396" lon="0.60847">
        <ele>494.749292</ele>
        <time>2023-09-24T08:04:59.200Z</time>
      </trkpt>
      <trkpt lat="43.02386" lon="0.60852">
        <ele>494.818909</ele>
        <time>2023-09-24T08:05:01.210Z</time>
      </trkpt>
      <trkpt lat="43.02377" lon="0.60858">
        <ele>494.936351</ele>
        <time>2023-09-24T08:05:03.209Z</time>
      </trkpt>
      <trkpt lat="43.02367" lon="0.60863">
        <ele>495.046885</ele>
        <time>2023-09-24T08:05:05.208Z</time>
      </trkpt>
      <trkpt lat="43.02359" lon="0.60868">
        <ele>495.149051</ele>
        <time>2023-09-24T08:05:07.205Z</time>
      </trkpt>
      <trkpt lat="43.0235" lon="0.60873">
        <ele>495.252781</ele>
        <time>2023-09-24T08:05:09.197Z</time>
      </trkpt>
      <trkpt lat="43.02339" lon="0.60878">
        <ele>495.383313</ele>
        <time>2023-09-24T08:05:12.203Z</time>
      </trkpt>
      <trkpt lat="43.02328" lon="0.60884">
        <ele>495.516605</ele>
        <time>2023-09-24T08:05:15.204Z</time>
      </trkpt>
      <trkpt lat="43.02318" lon="0.60891">
        <ele>495.641063</ele>
        <time>2023-09-24T08:05:18.217Z</time>
      </trkpt>
      <trkpt lat="43.02315" lon="0.60904">
        <ele>495.75058</ele>
        <time>2023-09-24T08:05:22.231Z</time>
      </trkpt>
      <trkpt lat="43.02307" lon="0.60913">
        <ele>495.858997</ele>
        <time>2023-09-24T08:05:25.212Z</time>
      </trkpt>
      <trkpt lat="43.02295" lon="0.60918">
        <ele>496.003726</ele>
        <time>2023-09-24T08:05:28.212Z</time>
      </trkpt>
      <trkpt lat="43.02285" lon="0.60922">
        <ele>496.114917</ele>
        <time>2023-09-24T08:05:30.218Z</time>
      </trkpt>
      <trkpt lat="43.02275" lon="0.60927">
        <ele>496.22721</ele>
        <time>2023-09-24T08:05:32.183Z</time>
      </trkpt>
      <trkpt lat="43.02266" lon="0.60933">
        <ele>496.342345</ele>
        <time>2023-09-24T08:05:34.194Z</time>
      </trkpt>
      <trkpt lat="43.02257" lon="0.60938">
        <ele>496.447085</ele>
        <time>2023-09-24T08:05:36.210Z</time>
      </trkpt>
      <trkpt lat="43.02248" lon="0.60943">
        <ele>496.55385</ele>
        <time>2023-09-24T08:05:38.200Z</time>
      </trkpt>
      <trkpt lat="43.02236" lon="0.60949">
        <ele>496.697149</ele>
        <time>2023-09-24T08:05:41.204Z</time>
      </trkpt>
      <trkpt lat="43.02226" lon="0.60955">
        <ele>496.798574</ele>
        <time>2023-09-24T08:05:44.201Z</time>
      </trkpt>
      <trkpt lat="43.02217" lon="0.60962">
        <ele>496.838417</ele>
        <time>2023-09-24T08:05:47.179Z</time>
      </trkpt>
      <trkpt lat="43.02207" lon="0.60968">
        <ele>496.88085</ele>
        <time>2023-09-24T08:05:51.227Z</time>
      </trkpt>
      <trkpt lat="43.02197" lon="0.60975">
        <ele>496.924793</ele>
        <time>2023-09-24T08:05:55.198Z</time>
      </trkpt>
      <trkpt lat="43.02189" lon="0.60981">
        <ele>496.96062</ele>
        <time>2023-09-24T08:05:59.219Z</time>
      </trkpt>
      <trkpt lat="43.02179" lon="0.6099">
        <ele>497.004678</ele>
        <time>2023-09-24T08:06:03.213Z</time>
      </trkpt>
      <trkpt lat="43.02171" lon="0.60995">
        <ele>497.040471</ele>
        <time>2023-09-24T08:06:06.207Z</time>
      </trkpt>
      <trkpt lat="43.02161" lon="0.61001">
        <ele>497.080398</ele>
        <time>2023-09-24T08:06:09.223Z</time>
      </trkpt>
      <trkpt lat="43.0215" lon="0.61005">
        <ele>497.127117</ele>
        <time>2023-09-24T08:06:13.206Z</time>
      </trkpt>
      <trkpt lat="43.0214" lon="0.61008">
        <ele>497.165272</ele>
        <time>2023-09-24T08:06:16.195Z</time>
      </trkpt>
      <trkpt lat="43.02131" lon="0.60999">
        <ele>497.207412</ele>
        <time>2023-09-24T08:06:20.206Z</time>
      </trkpt>
      <trkpt lat="43.02127" lon="0.60988">
        <ele>497.242931</ele>
        <time>2023-09-24T08:06:23.201Z</time>
      </trkpt>
      <trkpt lat="43.02124" lon="0.60976">
        <ele>497.279183</ele>
        <time>2023-09-24T08:06:27.206Z</time>
      </trkpt>
      <trkpt lat="43.0213" lon="0.60965">
        <ele>497.321104</ele>
        <time>2023-09-24T08:06:31.209Z</time>
      </trkpt>
      <trkpt lat="43.02136" lon="0.60953">
        <ele>497.361662</ele>
        <time>2023-09-24T08:06:34.213Z</time>
      </trkpt>
      <trkpt lat="43.0214" lon="0.60942">
        <ele>497.396973</ele>
        <time>2023-09-24T08:06:37.205Z</time>
      </trkpt>
      <trkpt lat="43.02132" lon="0.60931">
        <ele>497.438221</ele>
        <time>2023-09-24T08:06:40.234Z</time>
      </trkpt>
      <trkpt lat="43.02124" lon="0.60926">
        <ele>497.475086</ele>
        <time>2023-09-24T08:06:42.193Z</time>
      </trkpt>
      <trkpt lat="43.02111" lon="0.60916">
        <ele>497.462056</ele>
        <time>2023-09-24T08:06:45.201Z</time>
      </trkpt>
      <trkpt lat="43.02102" lon="0.6091">
        <ele>497.441259</ele>
        <time>2023-09-24T08:06:47.213Z</time>
      </trkpt>
      <trkpt lat="43.02094" lon="0.60904">
        <ele>497.422651</ele>
        <time>2023-09-24T08:06:49.198Z</time>
      </trkpt>
      <trkpt lat="43.02086" lon="0.60897">
        <ele>497.403225</ele>
        <time>2023-09-24T08:06:51.206Z</time>
      </trkpt>
      <trkpt lat="43.02078" lon="0.60889">
        <ele>497.383869</ele>
        <time>2023-09-24T08:06:54.205Z</time>
      </trkpt>
      <trkpt lat="43.02068" lon="0.60883">
        <ele>497.361472</ele>
        <time>2023-09-24T08:06:59.175Z</time>
      </trkpt>
      <trkpt lat="43.0206" lon="0.60876">
        <ele>497.342046</ele>
        <time>2023-09-24T08:07:03.219Z</time>
      </trkpt>
      <trkpt lat="43.02054" lon="0.60864">
        <ele>497.319805</ele>
        <time>2023-09-24T08:07:07.213Z</time>
      </trkpt>
      <trkpt lat="43.02054" lon="0.60848">
        <ele>497.297257</ele>
        <time>2023-09-24T08:07:11.220Z</time>
      </trkpt>
      <trkpt lat="43.02055" lon="0.60833">
        <ele>497.274221</ele>
        <time>2023-09-24T08:07:15.167Z</time>
      </trkpt>
      <trkpt lat="43.02051" lon="0.60817">
        <ele>497.250145</ele>
        <time>2023-09-24T08:07:19.210Z</time>
      </trkpt>
      <trkpt lat="43.02041" lon="0.6081">
        <ele>497.226622</ele>
        <time>2023-09-24T08:07:23.207Z</time>
      </trkpt>
      <trkpt lat="43.02032" lon="0.60816">
        <ele>497.206699</ele>
        <time>2023-09-24T08:07:27.174Z</time>
      </trkpt>
      <trkpt lat="43.02026" lon="0.60829">
        <ele>497.184199</ele>
        <time>2023-09-24T08:07:31.211Z</time>
      </trkpt>
      <trkpt lat="43.02022" lon="0.60841">
        <ele>497.164051</ele>
        <time>2023-09-24T08:07:35.157Z</time>
      </trkpt>
      <trkpt lat="43.02032" lon="0.60849">
        <ele>497.140106</ele>
        <time>2023-09-24T08:07:40.175Z</time>
      </trkpt>
      <trkpt lat="43.02043" lon="0.60853">
        <ele>497.124718</ele>
        <time>2023-09-24T08:07:44.172Z</time>
      </trkpt>
      <trkpt lat="43.02052" lon="0.60863">
        <ele>497.159322</ele>
        <time>2023-09-24T08:07:49.189Z</time>
      </trkpt>
      <trkpt lat="43.02057" lon="0.60874">
        <ele>497.188909</ele>
        <time>2023-09-24T08:07:52.205Z</time>
      </trkpt>
      <trkpt lat="43.02066" lon="0.60884">
        <ele>497.224296</ele>
        <time>2023-09-24T08:07:55.208Z</time>
      </trkpt>
      <trkpt lat="43.02064" lon="0.60896">
        <ele>497.251655</ele>
        <time>2023-09-24T08:08:02.214Z</time>
      </trkpt>
      <trkpt lat="43.02056" lon="0.60904">
        <ele>497.280895</ele>
        <time>2023-09-24T08:08:05.216Z</time>
      </trkpt>
      <trkpt lat="43.02045" lon="0.60908">
        <ele>497.315013</ele>
        <time>2023-09-24T08:08:09.198Z</time>
      </trkpt>
      <trkpt lat="43.02038" lon="0.60917">
        <ele>497.344234</ele>
        <time>2023-09-24T08:08:13.201Z</time>
      </trkpt>
      <trkpt lat="43.02047" lon="0.60924">
        <ele>497.375574</ele>
        <time>2023-09-24T08:08:16.183Z</time>
      </trkpt>
      <trkpt lat="43.02057" lon="0.60935">
        <ele>497.412463</ele>
        <time>2023-09-24T08:08:19.221Z</time>
      </trkpt>
      <trkpt lat="43.0206" lon="0.60948">
        <ele>497.441565</ele>
        <time>2023-09-24T08:08:24.217Z</time>
      </trkpt>
      <trkpt lat="43.02054" lon="0.60958">
        <ele>497.470781</ele>
        <time>2023-09-24T08:08:28.207Z</time>
      </trkpt>
      <trkpt lat="43.0205" lon="0.6097">
        <ele>497.500301</ele>
        <time>2023-09-24T08:08:31.208Z</time>
      </trkpt>
      <trkpt lat="43.02043" lon="0.60979">
        <ele>497.530111</ele>
        <time>2023-09-24T08:08:34.204Z</time>
      </trkpt>
      <trkpt lat="43.02035" lon="0.60988">
        <ele>497.560053</ele>
        <time>2023-09-24T08:08:37.213Z</time>
      </trkpt>
      <trkpt lat="43.02038" lon="0.61003">
        <ele>497.594442</ele>
        <time>2023-09-24T08:08:40.216Z</time>
      </trkpt>
      <trkpt lat="43.02041" lon="0.61017">
        <ele>497.626976</ele>
        <time>2023-09-24T08:08:43.204Z</time>
      </trkpt>
      <trkpt lat="43.02036" lon="0.61031">
        <ele>497.661669</ele>
        <time>2023-09-24T08:08:48.221Z</time>
      </trkpt>
      <trkpt lat="43.02026" lon="0.61036">
        <ele>497.746384</ele>
        <time>2023-09-24T08:08:50.202Z</time>
      </trkpt>
      <trkpt lat="43.02017" lon="0.61041">
        <ele>497.831194</ele>
        <time>2023-09-24T08:08:52.197Z</time>
      </trkpt>
      <trkpt lat="43.02008" lon="0.61047">
        <ele>497.922989</ele>
        <time>2023-09-24T08:08:54.213Z</time>
      </trkpt>
      <trkpt lat="43.01998" lon="0.61052">
        <ele>498.016138</ele>
        <time>2023-09-24T08:08:56.213Z</time>
      </trkpt>
      <trkpt lat="43.01988" lon="0.61059">
        <ele>498.108987</ele>
        <time>2023-09-24T08:08:58.219Z</time>
      </trkpt>
      <trkpt lat="43.01978" lon="0.61064">
        <ele>498.201337</ele>
        <time>2023-09-24T08:09:00.219Z</time>
      </trkpt>
      <trkpt lat="43.01969" lon="0.6107">
        <ele>498.288161</ele>
        <time>2023-09-24T08:09:02.199Z</time>
      </trkpt>
      <trkpt lat="43.0196" lon="0.61076">
        <ele>498.375493</ele>
        <time>2023-09-24T08:09:04.235Z</time>
      </trkpt>
      <trkpt lat="43.01951" lon="0.61082">
        <ele>498.461335</ele>
        <time>2023-09-24T08:09:06.224Z</time>
      </trkpt>
      <trkpt lat="43.01942" lon="0.61089">
        <ele>498.554511</ele>
        <time>2023-09-24T08:09:08.201Z</time>
      </trkpt>
      <trkpt lat="43.01932" lon="0.61095">
        <ele>498.648147</ele>
        <time>2023-09-24T08:09:10.211Z</time>
      </trkpt>
      <trkpt lat="43.01922" lon="0.611">
        <ele>498.737923</ele>
        <time>2023-09-24T08:09:12.189Z</time>
      </trkpt>
      <trkpt lat="43.01911" lon="0.61105">
        <ele>498.838246</ele>
        <time>2023-09-24T08:09:14.198Z</time>
      </trkpt>
      <trkpt lat="43.019" lon="0.6111">
        <ele>498.936801</ele>
        <time>2023-09-24T08:09:16.209Z</time>
      </trkpt>
      <trkpt lat="43.0189" lon="0.61114">
        <ele>499.033433</ele>
        <time>2023-09-24T08:09:18.207Z</time>
      </trkpt>
      <trkpt lat="43.0188" lon="0.61119">
        <ele>499.121476</ele>
        <time>2023-09-24T08:09:20.206Z</time>
      </trkpt>
      <trkpt lat="43.01867" lon="0.61125">
        <ele>499.236333</ele>
        <time>2023-09-24T08:09:23.197Z</time>
      </trkpt>
      <trkpt lat="43.01854" lon="0.6113">
        <ele>499.34084</ele>
        <time>2023-09-24T08:09:26.206Z</time>
      </trkpt>
      <trkpt lat="43.01845" lon="0.61134">
        <ele>499.413708</ele>
        <time>2023-09-24T08:09:28.206Z</time>
      </trkpt>
      <trkpt lat="43.01837" lon="0.61138">
        <ele>499.484525</ele>
        <time>2023-09-24T08:09:30.201Z</time>
      </trkpt>
      <trkpt lat="43.01828" lon="0.61142">
        <ele>499.55713</ele>
        <time>2023-09-24T08:09:32.197Z</time>
      </trkpt>
      <trkpt lat="43.01817" lon="0.61147">
        <ele>499.641742</ele>
        <time>2023-09-24T08:09:35.215Z</time>
      </trkpt>
      <trkpt lat="43.01807" lon="0.61152">
        <ele>499.72915</ele>
        <time>2023-09-24T08:09:38.215Z</time>
      </trkpt>
      <trkpt lat="43.01797" lon="0.61157">
        <ele>499.80651</ele>
        <time>2023-09-24T08:09:40.218Z</time>
      </trkpt>
      <trkpt lat="43.01787" lon="0.6116">
        <ele>499.887238</ele>
        <time>2023-09-24T08:09:42.206Z</time>
      </trkpt>
      <trkpt lat="43.01778" lon="0.61165">
        <ele>499.963698</ele>
        <time>2023-09-24T08:09:44.177Z</time>
      </trkpt>
      <trkpt lat="43.01768" lon="0.6117">
        <ele>500.039212</ele>
        <time>2023-09-24T08:09:46.203Z</time>
      </trkpt>
      <trkpt lat="43.01759" lon="0.61174">
        <ele>500.116393</ele>
        <time>2023-09-24T08:09:48.193Z</time>
      </trkpt>
      <trkpt lat="43.01749" lon="0.61179">
        <ele>500.193191</ele>
        <time>2023-09-24T08:09:50.223Z</time>
      </trkpt>
      <trkpt lat="43.01739" lon="0.61183">
        <ele>500.279081</ele>
        <time>2023-09-24T08:09:52.184Z</time>
      </trkpt>
      <trkpt lat="43.01728" lon="0.61189">
        <ele>500.366693</ele>
        <time>2023-09-24T08:09:54.217Z</time>
      </trkpt>
      <trkpt lat="43.01717" lon="0.61194">
        <ele>500.454219</ele>
        <time>2023-09-24T08:09:56.226Z</time>
      </trkpt>
      <trkpt lat="43.01707" lon="0.61199">
        <ele>500.540108</ele>
        <time>2023-09-24T08:09:58.203Z</time>
      </trkpt>
      <trkpt lat="43.01697" lon="0.61204">
        <ele>500.630501</ele>
        <time>2023-09-24T08:10:00.209Z</time>
      </trkpt>
      <trkpt lat="43.01686" lon="0.61208">
        <ele>500.76528</ele>
        <time>2023-09-24T08:10:02.213Z</time>
      </trkpt>
      <trkpt lat="43.01675" lon="0.61213">
        <ele>500.907577</ele>
        <time>2023-09-24T08:10:04.208Z</time>
      </trkpt>
      <trkpt lat="43.01664" lon="0.61218">
        <ele>501.048999</ele>
        <time>2023-09-24T08:10:06.192Z</time>
      </trkpt>
      <trkpt lat="43.01652" lon="0.61223">
        <ele>501.189123</ele>
        <time>2023-09-24T08:10:08.224Z</time>
      </trkpt>
      <trkpt lat="43.01641" lon="0.61228">
        <ele>501.334524</ele>
        <time>2023-09-24T08:10:10.203Z</time>
      </trkpt>
      <trkpt lat="43.0163" lon="0.61233">
        <ele>501.47139</ele>
        <time>2023-09-24T08:10:12.224Z</time>
      </trkpt>
      <trkpt lat="43.0162" lon="0.61239">
        <ele>501.606046</ele>
        <time>2023-09-24T08:10:14.207Z</time>
      </trkpt>
      <trkpt lat="43.01609" lon="0.61244">
        <ele>501.746887</ele>
        <time>2023-09-24T08:10:16.202Z</time>
      </trkpt>
      <trkpt lat="43.01598" lon="0.61249">
        <ele>501.883753</ele>
        <time>2023-09-24T08:10:18.198Z</time>
      </trkpt>
      <trkpt lat="43.01587" lon="0.61254">
        <ele>502.019483</ele>
        <time>2023-09-24T08:10:20.201Z</time>
      </trkpt>
      <trkpt lat="43.01577" lon="0.61259">
        <ele>502.14872</ele>
        <time>2023-09-24T08:10:22.213Z</time>
      </trkpt>
      <trkpt lat="43.01567" lon="0.61264">
        <ele>502.276832</ele>
        <time>2023-09-24T08:10:24.202Z</time>
      </trkpt>
      <trkpt lat="43.01557" lon="0.61269">
        <ele>502.402083</ele>
        <time>2023-09-24T08:10:26.202Z</time>
      </trkpt>
      <trkpt lat="43.01548" lon="0.61274">
        <ele>502.526028</ele>
        <time>2023-09-24T08:10:28.213Z</time>
      </trkpt>
      <trkpt lat="43.01538" lon="0.6128">
        <ele>502.646203</ele>
        <time>2023-09-24T08:10:30.189Z</time>
      </trkpt>
      <trkpt lat="43.0153" lon="0.61284">
        <ele>502.759144</ele>
        <time>2023-09-24T08:10:32.184Z</time>
      </trkpt>
      <trkpt lat="43.0152" lon="0.61285">
        <ele>502.804021</ele>
        <time>2023-09-24T08:10:35.210Z</time>
      </trkpt>
      <trkpt lat="43.01516" lon="0.6127">
        <ele>502.846972</ele>
        <time>2023-09-24T08:10:38.198Z</time>
      </trkpt>
      <trkpt lat="43.01522" lon="0.61255">
        <ele>502.897544</ele>
        <time>2023-09-24T08:10:41.207Z</time>
      </trkpt>
      <trkpt lat="43.01529" lon="0.61246">
        <ele>502.935964</ele>
        <time>2023-09-24T08:10:43.198Z</time>
      </trkpt>
      <trkpt lat="43.01538" lon="0.61238">
        <ele>502.979834</ele>
        <time>2023-09-24T08:10:45.206Z</time>
      </trkpt>
      <trkpt lat="43.01547" lon="0.6123">
        <ele>503.02109</ele>
        <time>2023-09-24T08:10:47.211Z</time>
      </trkpt>
      <trkpt lat="43.01556" lon="0.61222">
        <ele>503.06445</ele>
        <time>2023-09-24T08:10:49.204Z</time>
      </trkpt>
      <trkpt lat="43.01564" lon="0.61212">
        <ele>503.109728</ele>
        <time>2023-09-24T08:10:51.186Z</time>
      </trkpt>
      <trkpt lat="43.01571" lon="0.61199">
        <ele>503.155288</ele>
        <time>2023-09-24T08:10:53.248Z</time>
      </trkpt>
      <trkpt lat="43.01576" lon="0.61185">
        <ele>503.201314</ele>
        <time>2023-09-24T08:10:55.182Z</time>
      </trkpt>
      <trkpt lat="43.01579" lon="0.6117">
        <ele>503.245047</ele>
        <time>2023-09-24T08:10:57.207Z</time>
      </trkpt>
      <trkpt lat="43.01581" lon="0.61156">
        <ele>503.286443</ele>
        <time>2023-09-24T08:10:59.233Z</time>
      </trkpt>
      <trkpt lat="43.01581" lon="0.61142">
        <ele>503.328694</ele>
        <time>2023-09-24T08:11:01.222Z</time>
      </trkpt>
      <trkpt lat="43.01582" lon="0.61126">
        <ele>503.373639</ele>
        <time>2023-09-24T08:11:03.225Z</time>
      </trkpt>
      <trkpt lat="43.01584" lon="0.6111">
        <ele>503.422748</ele>
        <time>2023-09-24T08:11:05.235Z</time>
      </trkpt>
      <trkpt lat="43.01586" lon="0.61094">
        <ele>503.470346</ele>
        <time>2023-09-24T08:11:07.210Z</time>
      </trkpt>
      <trkpt lat="43.0159" lon="0.61077">
        <ele>503.607117</ele>
        <time>2023-09-24T08:11:09.205Z</time>
      </trkpt>
      <trkpt lat="43.01593" lon="0.6106">
        <ele>503.780137</ele>
        <time>2023-09-24T08:11:11.198Z</time>
      </trkpt>
      <trkpt lat="43.01595" lon="0.61042">
        <ele>503.962031</ele>
        <time>2023-09-24T08:11:13.214Z</time>
      </trkpt>
      <trkpt lat="43.01597" lon="0.61023">
        <ele>504.145757</ele>
        <time>2023-09-24T08:11:15.205Z</time>
      </trkpt>
      <trkpt lat="43.01595" lon="0.61004">
        <ele>504.323835</ele>
        <time>2023-09-24T08:11:17.210Z</time>
      </trkpt>
      <trkpt lat="43.0159" lon="0.60988">
        <ele>504.500452</ele>
        <time>2023-09-24T08:11:19.203Z</time>
      </trkpt>
      <trkpt lat="43.01582" lon="0.60971">
        <ele>504.68779</ele>
        <time>2023-09-24T08:11:21.224Z</time>
      </trkpt>
      <trkpt lat="43.01574" lon="0.60955">
        <ele>504.874794</ele>
        <time>2023-09-24T08:11:23.195Z</time>
      </trkpt>
      <trkpt lat="43.01567" lon="0.6094">
        <ele>505.054049</ele>
        <time>2023-09-24T08:11:25.210Z</time>
      </trkpt>
      <trkpt lat="43.01559" lon="0.60925">
        <ele>505.229052</ele>
        <time>2023-09-24T08:11:27.209Z</time>
      </trkpt>
      <trkpt lat="43.01551" lon="0.60912">
        <ele>505.400888</ele>
        <time>2023-09-24T08:11:29.217Z</time>
      </trkpt>
      <trkpt lat="43.01541" lon="0.60902">
        <ele>505.562089</ele>
        <time>2023-09-24T08:11:31.211Z</time>
      </trkpt>
      <trkpt lat="43.01531" lon="0.60892">
        <ele>505.727135</ele>
        <time>2023-09-24T08:11:33.230Z</time>
      </trkpt>
      <trkpt lat="43.01521" lon="0.60884">
        <ele>505.889211</ele>
        <time>2023-09-24T08:11:35.199Z</time>
      </trkpt>
      <trkpt lat="43.01512" lon="0.60876">
        <ele>506.114498</ele>
        <time>2023-09-24T08:11:37.218Z</time>
      </trkpt>
      <trkpt lat="43.01504" lon="0.60868">
        <ele>506.335207</ele>
        <time>2023-09-24T08:11:39.240Z</time>
      </trkpt>
      <trkpt lat="43.01497" lon="0.60858">
        <ele>506.556289</ele>
        <time>2023-09-24T08:11:41.206Z</time>
      </trkpt>
      <trkpt lat="43.0149" lon="0.60847">
        <ele>506.784134</ele>
        <time>2023-09-24T08:11:43.212Z</time>
      </trkpt>
      <trkpt lat="43.01483" lon="0.60836">
        <ele>507.020631</ele>
        <time>2023-09-24T08:11:45.202Z</time>
      </trkpt>
      <trkpt lat="43.01476" lon="0.60824">
        <ele>507.26096</ele>
        <time>2023-09-24T08:11:47.205Z</time>
      </trkpt>
      <trkpt lat="43.01469" lon="0.60812">
        <ele>507.503407</ele>
        <time>2023-09-24T08:11:49.206Z</time>
      </trkpt>
      <trkpt lat="43.01463" lon="0.60799">
        <ele>507.756142</ele>
        <time>2023-09-24T08:11:51.250Z</time>
      </trkpt>
      <trkpt lat="43.01456" lon="0.60786">
        <ele>508.007503</ele>
        <time>2023-09-24T08:11:53.214Z</time>
      </trkpt>
      <trkpt lat="43.0145" lon="0.60774">
        <ele>508.239687</ele>
        <time>2023-09-24T08:11:55.217Z</time>
      </trkpt>
      <trkpt lat="43.01444" lon="0.60762">
        <ele>508.470093</ele>
        <time>2023-09-24T08:11:57.204Z</time>
      </trkpt>
      <trkpt lat="43.01439" lon="0.6075">
        <ele>508.686003</ele>
        <time>2023-09-24T08:11:59.205Z</time>
      </trkpt>
      <trkpt lat="43.01435" lon="0.60739">
        <ele>508.893617</ele>
        <time>2023-09-24T08:12:01.205Z</time>
      </trkpt>
      <trkpt lat="43.0143" lon="0.60723">
        <ele>509.1579</ele>
        <time>2023-09-24T08:12:04.195Z</time>
      </trkpt>
      <trkpt lat="43.01428" lon="0.60711">
        <ele>509.359594</ele>
        <time>2023-09-24T08:12:06.198Z</time>
      </trkpt>
      <trkpt lat="43.01425" lon="0.60696">
        <ele>509.609157</ele>
        <time>2023-09-24T08:12:08.200Z</time>
      </trkpt>
      <trkpt lat="43.01422" lon="0.60679">
        <ele>509.674491</ele>
        <time>2023-09-24T08:12:10.195Z</time>
      </trkpt>
      <trkpt lat="43.0142" lon="0.60663">
        <ele>509.441547</ele>
        <time>2023-09-24T08:12:12.208Z</time>
      </trkpt>
      <trkpt lat="43.01419" lon="0.60646">
        <ele>509.202599</ele>
        <time>2023-09-24T08:12:14.214Z</time>
      </trkpt>
      <trkpt lat="43.01419" lon="0.6063">
        <ele>508.969718</ele>
        <time>2023-09-24T08:12:16.215Z</time>
      </trkpt>
      <trkpt lat="43.01419" lon="0.60613">
        <ele>508.725476</ele>
        <time>2023-09-24T08:12:18.208Z</time>
      </trkpt>
      <trkpt lat="43.0142" lon="0.60596">
        <ele>508.492522</ele>
        <time>2023-09-24T08:12:20.208Z</time>
      </trkpt>
      <trkpt lat="43.01421" lon="0.6058">
        <ele>508.261663</ele>
        <time>2023-09-24T08:12:22.197Z</time>
      </trkpt>
      <trkpt lat="43.01423" lon="0.60564">
        <ele>508.025721</ele>
        <time>2023-09-24T08:12:24.195Z</time>
      </trkpt>
      <trkpt lat="43.01427" lon="0.60548">
        <ele>507.784132</ele>
        <time>2023-09-24T08:12:26.187Z</time>
      </trkpt>
      <trkpt lat="43.01432" lon="0.60531">
        <ele>507.532679</ele>
        <time>2023-09-24T08:12:28.203Z</time>
      </trkpt>
      <trkpt lat="43.01437" lon="0.60514">
        <ele>507.275686</ele>
        <time>2023-09-24T08:12:30.220Z</time>
      </trkpt>
      <trkpt lat="43.01442" lon="0.60498">
        <ele>507.022371</ele>
        <time>2023-09-24T08:12:32.209Z</time>
      </trkpt>
      <trkpt lat="43.01448" lon="0.60482">
        <ele>506.766633</ele>
        <time>2023-09-24T08:12:34.197Z</time>
      </trkpt>
      <trkpt lat="43.01454" lon="0.60465">
        <ele>506.495998</ele>
        <time>2023-09-24T08:12:36.199Z</time>
      </trkpt>
      <trkpt lat="43.01461" lon="0.60449">
        <ele>506.228378</ele>
        <time>2023-09-24T08:12:38.196Z</time>
      </trkpt>
      <trkpt lat="43.01469" lon="0.60435">
        <ele>505.969733</ele>
        <time>2023-09-24T08:12:40.196Z</time>
      </trkpt>
      <trkpt lat="43.01477" lon="0.60424">
        <ele>505.736826</ele>
        <time>2023-09-24T08:12:42.212Z</time>
      </trkpt>
      <trkpt lat="43.01486" lon="0.60415">
        <ele>505.518478</ele>
        <time>2023-09-24T08:12:44.194Z</time>
      </trkpt>
      <trkpt lat="43.01496" lon="0.60405">
        <ele>505.265489</ele>
        <time>2023-09-24T08:12:46.194Z</time>
      </trkpt>
      <trkpt lat="43.01507" lon="0.60395">
        <ele>505.003373</ele>
        <time>2023-09-24T08:12:48.198Z</time>
      </trkpt>
      <trkpt lat="43.01518" lon="0.60385">
        <ele>504.728782</ele>
        <time>2023-09-24T08:12:50.210Z</time>
      </trkpt>
      <trkpt lat="43.01529" lon="0.60374">
        <ele>504.467726</ele>
        <time>2023-09-24T08:12:52.205Z</time>
      </trkpt>
      <trkpt lat="43.01538" lon="0.60362">
        <ele>504.20089</ele>
        <time>2023-09-24T08:12:54.195Z</time>
      </trkpt>
      <trkpt lat="43.01547" lon="0.60348">
        <ele>503.942635</ele>
        <time>2023-09-24T08:12:56.195Z</time>
      </trkpt>
      <trkpt lat="43.01554" lon="0.60333">
        <ele>503.685781</ele>
        <time>2023-09-24T08:12:58.214Z</time>
      </trkpt>
      <trkpt lat="43.01559" lon="0.60318">
        <ele>503.424674</ele>
        <time>2023-09-24T08:13:00.201Z</time>
      </trkpt>
      <trkpt lat="43.01563" lon="0.60301">
        <ele>503.164858</ele>
        <time>2023-09-24T08:13:02.203Z</time>
      </trkpt>
      <trkpt lat="43.01567" lon="0.60284">
        <ele>502.906397</ele>
        <time>2023-09-24T08:13:04.202Z</time>
      </trkpt>
      <trkpt lat="43.0157" lon="0.60266">
        <ele>502.686472</ele>
        <time>2023-09-24T08:13:06.215Z</time>
      </trkpt>
      <trkpt lat="43.01573" lon="0.60249">
        <ele>502.988401</ele>
        <time>2023-09-24T08:13:08.192Z</time>
      </trkpt>
      <trkpt lat="43.01576" lon="0.60233">
        <ele>503.286793</ele>
        <time>2023-09-24T08:13:10.211Z</time>
      </trkpt>
      <trkpt lat="43.0158" lon="0.60217">
        <ele>503.570993</ele>
        <time>2023-09-24T08:13:12.216Z</time>
      </trkpt>
      <trkpt lat="43.01584" lon="0.60203">
        <ele>503.845135</ele>
        <time>2023-09-24T08:13:14.206Z</time>
      </trkpt>
      <trkpt lat="43.0159" lon="0.60187">
        <ele>504.152081</ele>
        <time>2023-09-24T08:13:16.196Z</time>
      </trkpt>
      <trkpt lat="43.01595" lon="0.60173">
        <ele>504.424005</ele>
        <time>2023-09-24T08:13:18.210Z</time>
      </trkpt>
      <trkpt lat="43.01601" lon="0.60162">
        <ele>504.661317</ele>
        <time>2023-09-24T08:13:20.216Z</time>
      </trkpt>
      <trkpt lat="43.01593" lon="0.60156">
        <ele>504.877111</ele>
        <time>2023-09-24T08:13:26.201Z</time>
      </trkpt>
      <trkpt lat="43.01584" lon="0.60153">
        <ele>505.100059</ele>
        <time>2023-09-24T08:13:30.216Z</time>
      </trkpt>
      <trkpt lat="43.01576" lon="0.60143">
        <ele>505.35783</ele>
        <time>2023-09-24T08:13:33.215Z</time>
      </trkpt>
      <trkpt lat="43.01568" lon="0.60133">
        <ele>505.621983</ele>
        <time>2023-09-24T08:13:36.195Z</time>
      </trkpt>
      <trkpt lat="43.01566" lon="0.6012">
        <ele>505.840103</ele>
        <time>2023-09-24T08:13:39.219Z</time>
      </trkpt>
      <trkpt lat="43.01574" lon="0.6011">
        <ele>506.086991</ele>
        <time>2023-09-24T08:13:44.222Z</time>
      </trkpt>
      <trkpt lat="43.01576" lon="0.60095">
        <ele>506.357323</ele>
        <time>2023-09-24T08:13:48.203Z</time>
      </trkpt>
      <trkpt lat="43.01578" lon="0.60078">
        <ele>506.663523</ele>
        <time>2023-09-24T08:13:51.200Z</time>
      </trkpt>
      <trkpt lat="43.01579" lon="0.60064">
        <ele>506.906331</ele>
        <time>2023-09-24T08:13:54.217Z</time>
      </trkpt>
      <trkpt lat="43.01579" lon="0.60051">
        <ele>506.91981</ele>
        <time>2023-09-24T08:13:57.184Z</time>
      </trkpt>
      <trkpt lat="43.01575" lon="0.60034">
        <ele>506.888392</ele>
        <time>2023-09-24T08:14:00.217Z</time>
      </trkpt>
      <trkpt lat="43.01572" lon="0.60022">
        <ele>506.866242</ele>
        <time>2023-09-24T08:14:02.218Z</time>
      </trkpt>
      <trkpt lat="43.01569" lon="0.60009">
        <ele>506.843163</ele>
        <time>2023-09-24T08:14:04.207Z</time>
      </trkpt>
      <trkpt lat="43.01569" lon="0.59991">
        <ele>506.811547</ele>
        <time>2023-09-24T08:14:07.202Z</time>
      </trkpt>
      <trkpt lat="43.01578" lon="0.59981">
        <ele>506.783176</ele>
        <time>2023-09-24T08:14:10.214Z</time>
      </trkpt>
      <trkpt lat="43.01589" lon="0.59972">
        <ele>506.753334</ele>
        <time>2023-09-24T08:14:13.208Z</time>
      </trkpt>
      <trkpt lat="43.016" lon="0.59964">
        <ele>506.723448</ele>
        <time>2023-09-24T08:14:16.214Z</time>
      </trkpt>
      <trkpt lat="43.01609" lon="0.59957">
        <ele>506.700042</ele>
        <time>2023-09-24T08:14:18.217Z</time>
      </trkpt>
      <trkpt lat="43.01618" lon="0.59949">
        <ele>506.674202</ele>
        <time>2023-09-24T08:14:20.207Z</time>
      </trkpt>
      <trkpt lat="43.01627" lon="0.59935">
        <ele>506.642194</ele>
        <time>2023-09-24T08:14:22.231Z</time>
      </trkpt>
      <trkpt lat="43.01632" lon="0.59916">
        <ele>506.606762</ele>
        <time>2023-09-24T08:14:24.206Z</time>
      </trkpt>
      <trkpt lat="43.01632" lon="0.59897">
        <ele>506.573174</ele>
        <time>2023-09-24T08:14:26.204Z</time>
      </trkpt>
      <trkpt lat="43.01631" lon="0.59879">
        <ele>506.541489</ele>
        <time>2023-09-24T08:14:28.208Z</time>
      </trkpt>
      <trkpt lat="43.01631" lon="0.59862">
        <ele>506.511251</ele>
        <time>2023-09-24T08:14:30.222Z</time>
      </trkpt>
      <trkpt lat="43.0163" lon="0.59844">
        <ele>506.656076</ele>
        <time>2023-09-24T08:14:32.218Z</time>
      </trkpt>
      <trkpt lat="43.01629" lon="0.59827">
        <ele>506.811361</ele>
        <time>2023-09-24T08:14:34.234Z</time>
      </trkpt>
      <trkpt lat="43.01624" lon="0.59811">
        <ele>506.965927</ele>
        <time>2023-09-24T08:14:36.213Z</time>
      </trkpt>
      <trkpt lat="43.01619" lon="0.59796">
        <ele>507.10976</ele>
        <time>2023-09-24T08:14:38.203Z</time>
      </trkpt>
      <trkpt lat="43.01614" lon="0.59781">
        <ele>507.26251</ele>
        <time>2023-09-24T08:14:40.203Z</time>
      </trkpt>
      <trkpt lat="43.01611" lon="0.59764">
        <ele>507.423654</ele>
        <time>2023-09-24T08:14:42.179Z</time>
      </trkpt>
      <trkpt lat="43.01608" lon="0.59746">
        <ele>507.586632</ele>
        <time>2023-09-24T08:14:44.205Z</time>
      </trkpt>
      <trkpt lat="43.01606" lon="0.59728">
        <ele>507.751386</ele>
        <time>2023-09-24T08:14:46.242Z</time>
      </trkpt>
      <trkpt lat="43.01604" lon="0.5971">
        <ele>507.91547</ele>
        <time>2023-09-24T08:14:48.203Z</time>
      </trkpt>
      <trkpt lat="43.01602" lon="0.59694">
        <ele>508.06571</ele>
        <time>2023-09-24T08:14:50.201Z</time>
      </trkpt>
      <trkpt lat="43.01599" lon="0.59679">
        <ele>508.20295</ele>
        <time>2023-09-24T08:14:52.207Z</time>
      </trkpt>
      <trkpt lat="43.01596" lon="0.59665">
        <ele>508.337672</ele>
        <time>2023-09-24T08:14:54.198Z</time>
      </trkpt>
      <trkpt lat="43.01595" lon="0.5965">
        <ele>508.473725</ele>
        <time>2023-09-24T08:14:56.204Z</time>
      </trkpt>
      <trkpt lat="43.01595" lon="0.59636">
        <ele>508.598206</ele>
        <time>2023-09-24T08:14:58.210Z</time>
      </trkpt>
      <trkpt lat="43.01595" lon="0.59621">
        <ele>508.741949</ele>
        <time>2023-09-24T08:15:00.210Z</time>
      </trkpt>
      <trkpt lat="43.01596" lon="0.59605">
        <ele>509.033315</ele>
        <time>2023-09-24T08:15:02.241Z</time>
      </trkpt>
      <trkpt lat="43.01597" lon="0.59589">
        <ele>509.316963</ele>
        <time>2023-09-24T08:15:04.199Z</time>
      </trkpt>
      <trkpt lat="43.01599" lon="0.59575">
        <ele>509.584572</ele>
        <time>2023-09-24T08:15:06.214Z</time>
      </trkpt>
      <trkpt lat="43.01603" lon="0.59561">
        <ele>509.848644</ele>
        <time>2023-09-24T08:15:08.206Z</time>
      </trkpt>
      <trkpt lat="43.01607" lon="0.59549">
        <ele>510.106878</ele>
        <time>2023-09-24T08:15:10.207Z</time>
      </trkpt>
      <trkpt lat="43.01612" lon="0.59536">
        <ele>510.358523</ele>
        <time>2023-09-24T08:15:12.206Z</time>
      </trkpt>
      <trkpt lat="43.01616" lon="0.59525">
        <ele>510.597849</ele>
        <time>2023-09-24T08:15:14.231Z</time>
      </trkpt>
      <trkpt lat="43.01622" lon="0.59514">
        <ele>510.838745</ele>
        <time>2023-09-24T08:15:16.208Z</time>
      </trkpt>
      <trkpt lat="43.01627" lon="0.59503">
        <ele>511.073197</ele>
        <time>2023-09-24T08:15:18.196Z</time>
      </trkpt>
      <trkpt lat="43.01632" lon="0.59491">
        <ele>511.319369</ele>
        <time>2023-09-24T08:15:20.239Z</time>
      </trkpt>
      <trkpt lat="43.01637" lon="0.5948">
        <ele>511.574679</ele>
        <time>2023-09-24T08:15:22.204Z</time>
      </trkpt>
      <trkpt lat="43.01643" lon="0.59468">
        <ele>511.828335</ele>
        <time>2023-09-24T08:15:24.198Z</time>
      </trkpt>
      <trkpt lat="43.01649" lon="0.59456">
        <ele>512.092179</ele>
        <time>2023-09-24T08:15:26.198Z</time>
      </trkpt>
      <trkpt lat="43.01655" lon="0.59446">
        <ele>512.333884</ele>
        <time>2023-09-24T08:15:28.195Z</time>
      </trkpt>
      <trkpt lat="43.01661" lon="0.59435">
        <ele>512.578628</ele>
        <time>2023-09-24T08:15:30.198Z</time>
      </trkpt>
      <trkpt lat="43.01667" lon="0.59424">
        <ele>512.818859</ele>
        <time>2023-09-24T08:15:32.217Z</time>
      </trkpt>
      <trkpt lat="43.01673" lon="0.59414">
        <ele>513.063707</ele>
        <time>2023-09-24T08:15:34.208Z</time>
      </trkpt>
      <trkpt lat="43.01679" lon="0.59404">
        <ele>513.300434</ele>
        <time>2023-09-24T08:15:36.231Z</time>
      </trkpt>
      <trkpt lat="43.01685" lon="0.59393">
        <ele>513.534717</ele>
        <time>2023-09-24T08:15:38.214Z</time>
      </trkpt>
      <trkpt lat="43.01693" lon="0.59378">
        <ele>513.844925</ele>
        <time>2023-09-24T08:15:41.210Z</time>
      </trkpt>
      <trkpt lat="43.01699" lon="0.59367">
        <ele>514.076223</ele>
        <time>2023-09-24T08:15:43.203Z</time>
      </trkpt>
      <trkpt lat="43.01705" lon="0.59356">
        <ele>514.297998</ele>
        <time>2023-09-24T08:15:45.204Z</time>
      </trkpt>
      <trkpt lat="43.01711" lon="0.59346">
        <ele>514.522472</ele>
        <time>2023-09-24T08:15:47.214Z</time>
      </trkpt>
      <trkpt lat="43.01717" lon="0.59334">
        <ele>514.768722</ele>
        <time>2023-09-24T08:15:49.201Z</time>
      </trkpt>
      <trkpt lat="43.01725" lon="0.59322">
        <ele>515.031992</ele>
        <time>2023-09-24T08:15:51.206Z</time>
      </trkpt>
      <trkpt lat="43.01731" lon="0.5931">
        <ele>515.287946</ele>
        <time>2023-09-24T08:15:53.222Z</time>
      </trkpt>
      <trkpt lat="43.01738" lon="0.59299">
        <ele>515.534324</ele>
        <time>2023-09-24T08:15:55.212Z</time>
      </trkpt>
      <trkpt lat="43.01745" lon="0.59287">
        <ele>515.795932</ele>
        <time>2023-09-24T08:15:57.217Z</time>
      </trkpt>
      <trkpt lat="43.01752" lon="0.59275">
        <ele>516.041113</ele>
        <time>2023-09-24T08:15:59.217Z</time>
      </trkpt>
      <trkpt lat="43.01757" lon="0.59264">
        <ele>516.273299</ele>
        <time>2023-09-24T08:16:01.206Z</time>
      </trkpt>
      <trkpt lat="43.01756" lon="0.59251">
        <ele>516.491477</ele>
        <time>2023-09-24T08:16:03.209Z</time>
      </trkpt>
      <trkpt lat="43.0175" lon="0.5924">
        <ele>516.721852</ele>
        <time>2023-09-24T08:16:05.202Z</time>
      </trkpt>
      <trkpt lat="43.01743" lon="0.5923">
        <ele>516.96401</ele>
        <time>2023-09-24T08:16:07.202Z</time>
      </trkpt>
      <trkpt lat="43.01736" lon="0.59219">
        <ele>517.20193</ele>
        <time>2023-09-24T08:16:09.203Z</time>
      </trkpt>
      <trkpt lat="43.01728" lon="0.59209">
        <ele>517.39848</ele>
        <time>2023-09-24T08:16:11.193Z</time>
      </trkpt>
      <trkpt lat="43.01722" lon="0.59198">
        <ele>517.499331</ele>
        <time>2023-09-24T08:16:13.200Z</time>
      </trkpt>
      <trkpt lat="43.01714" lon="0.59186">
        <ele>517.607221</ele>
        <time>2023-09-24T08:16:15.209Z</time>
      </trkpt>
      <trkpt lat="43.01707" lon="0.59176">
        <ele>517.710167</ele>
        <time>2023-09-24T08:16:17.206Z</time>
      </trkpt>
      <trkpt lat="43.01699" lon="0.59165">
        <ele>517.814286</ele>
        <time>2023-09-24T08:16:19.208Z</time>
      </trkpt>
      <trkpt lat="43.01692" lon="0.59154">
        <ele>517.916492</ele>
        <time>2023-09-24T08:16:21.204Z</time>
      </trkpt>
      <trkpt lat="43.01684" lon="0.59144">
        <ele>518.018652</ele>
        <time>2023-09-24T08:16:23.212Z</time>
      </trkpt>
      <trkpt lat="43.01676" lon="0.59134">
        <ele>518.122095</ele>
        <time>2023-09-24T08:16:25.215Z</time>
      </trkpt>
      <trkpt lat="43.01669" lon="0.59123">
        <ele>518.223667</ele>
        <time>2023-09-24T08:16:27.199Z</time>
      </trkpt>
      <trkpt lat="43.01662" lon="0.59112">
        <ele>518.331454</ele>
        <time>2023-09-24T08:16:29.199Z</time>
      </trkpt>
      <trkpt lat="43.01654" lon="0.59101">
        <ele>518.435763</ele>
        <time>2023-09-24T08:16:31.212Z</time>
      </trkpt>
      <trkpt lat="43.01646" lon="0.59091">
        <ele>518.540073</ele>
        <time>2023-09-24T08:16:33.201Z</time>
      </trkpt>
      <trkpt lat="43.01638" lon="0.59081">
        <ele>518.643699</ele>
        <time>2023-09-24T08:16:35.201Z</time>
      </trkpt>
      <trkpt lat="43.0163" lon="0.5907">
        <ele>518.752708</ele>
        <time>2023-09-24T08:16:37.212Z</time>
      </trkpt>
      <trkpt lat="43.01622" lon="0.59059">
        <ele>518.861831</ele>
        <time>2023-09-24T08:16:39.202Z</time>
      </trkpt>
      <trkpt lat="43.01614" lon="0.59048">
        <ele>518.968004</ele>
        <time>2023-09-24T08:16:41.217Z</time>
      </trkpt>
      <trkpt lat="43.01606" lon="0.59038">
        <ele>519.075838</ele>
        <time>2023-09-24T08:16:43.220Z</time>
      </trkpt>
      <trkpt lat="43.01598" lon="0.59028">
        <ele>519.284099</ele>
        <time>2023-09-24T08:16:45.194Z</time>
      </trkpt>
      <trkpt lat="43.01591" lon="0.59018">
        <ele>519.487687</ele>
        <time>2023-09-24T08:16:47.218Z</time>
      </trkpt>
      <trkpt lat="43.01585" lon="0.59008">
        <ele>519.681413</ele>
        <time>2023-09-24T08:16:49.184Z</time>
      </trkpt>
      <trkpt lat="43.01582" lon="0.58993">
        <ele>519.934621</ele>
        <time>2023-09-24T08:16:52.205Z</time>
      </trkpt>
      <trkpt lat="43.01581" lon="0.58978">
        <ele>520.16087</ele>
        <time>2023-09-24T08:16:55.235Z</time>
      </trkpt>
      <trkpt lat="43.01585" lon="0.58965">
        <ele>520.369442</ele>
        <time>2023-09-24T08:16:58.205Z</time>
      </trkpt>
      <trkpt lat="43.01589" lon="0.58952">
        <ele>520.579205</ele>
        <time>2023-09-24T08:17:02.210Z</time>
      </trkpt>
      <trkpt lat="43.01582" lon="0.58944">
        <ele>520.77307</ele>
        <time>2023-09-24T08:17:08.213Z</time>
      </trkpt>
      <trkpt lat="43.01581" lon="0.58926">
        <ele>521.038084</ele>
        <time>2023-09-24T08:17:12.195Z</time>
      </trkpt>
      <trkpt lat="43.01582" lon="0.58914">
        <ele>521.227506</ele>
        <time>2023-09-24T08:17:14.200Z</time>
      </trkpt>
      <trkpt lat="43.01585" lon="0.58897">
        <ele>521.489121</ele>
        <time>2023-09-24T08:17:17.217Z</time>
      </trkpt>
      <trkpt lat="43.01586" lon="0.58882">
        <ele>521.724508</ele>
        <time>2023-09-24T08:17:20.203Z</time>
      </trkpt>
      <trkpt lat="43.01583" lon="0.5887">
        <ele>521.912871</ele>
        <time>2023-09-24T08:17:23.223Z</time>
      </trkpt>
      <trkpt lat="43.01579" lon="0.58855">
        <ele>522.15103</ele>
        <time>2023-09-24T08:17:26.205Z</time>
      </trkpt>
      <trkpt lat="43.01577" lon="0.5884">
        <ele>522.385588</ele>
        <time>2023-09-24T08:17:29.191Z</time>
      </trkpt>
      <trkpt lat="43.01577" lon="0.58826">
        <ele>522.595126</ele>
        <time>2023-09-24T08:17:33.201Z</time>
      </trkpt>
      <trkpt lat="43.01567" lon="0.58818">
        <ele>522.815461</ele>
        <time>2023-09-24T08:17:39.204Z</time>
      </trkpt>
      <trkpt lat="43.01556" lon="0.58814">
        <ele>522.725744</ele>
        <time>2023-09-24T08:17:43.206Z</time>
      </trkpt>
      <trkpt lat="43.01546" lon="0.58817">
        <ele>522.633521</ele>
        <time>2023-09-24T08:17:47.207Z</time>
      </trkpt>
      <trkpt lat="43.01536" lon="0.58823">
        <ele>522.547363</ele>
        <time>2023-09-24T08:17:51.181Z</time>
      </trkpt>
      <trkpt lat="43.01527" lon="0.58824">
        <ele>522.46617</ele>
        <time>2023-09-24T08:17:55.215Z</time>
      </trkpt>
      <trkpt lat="43.01516" lon="0.58826">
        <ele>522.374589</ele>
        <time>2023-09-24T08:17:59.194Z</time>
      </trkpt>
      <trkpt lat="43.01504" lon="0.58826">
        <ele>522.275667</ele>
        <time>2023-09-24T08:18:03.216Z</time>
      </trkpt>
      <trkpt lat="43.01492" lon="0.58825">
        <ele>522.176672</ele>
        <time>2023-09-24T08:18:07.202Z</time>
      </trkpt>
      <trkpt lat="43.01482" lon="0.58823">
        <ele>522.094475</ele>
        <time>2023-09-24T08:18:11.196Z</time>
      </trkpt>
      <trkpt lat="43.01483" lon="0.58836">
        <ele>522.013447</ele>
        <time>2023-09-24T08:18:16.200Z</time>
      </trkpt>
      <trkpt lat="43.01488" lon="0.58848">
        <ele>521.931711</ele>
        <time>2023-09-24T08:18:18.199Z</time>
      </trkpt>
      <trkpt lat="43.01495" lon="0.5886">
        <ele>521.835755</ele>
        <time>2023-09-24T08:18:20.197Z</time>
      </trkpt>
      <trkpt lat="43.01504" lon="0.58873">
        <ele>521.727783</ele>
        <time>2023-09-24T08:18:22.206Z</time>
      </trkpt>
      <trkpt lat="43.01514" lon="0.58886">
        <ele>521.612359</ele>
        <time>2023-09-24T08:18:24.210Z</time>
      </trkpt>
      <trkpt lat="43.01522" lon="0.58899">
        <ele>521.507249</ele>
        <time>2023-09-24T08:18:26.197Z</time>
      </trkpt>
      <trkpt lat="43.01529" lon="0.58915">
        <ele>521.39138</ele>
        <time>2023-09-24T08:18:28.209Z</time>
      </trkpt>
      <trkpt lat="43.0154" lon="0.58929">
        <ele>521.233034</ele>
        <time>2023-09-24T08:18:30.211Z</time>
      </trkpt>
      <trkpt lat="43.01552" lon="0.58939">
        <ele>521.019639</ele>
        <time>2023-09-24T08:18:32.222Z</time>
      </trkpt>
      <trkpt lat="43.01565" lon="0.58946">
        <ele>520.817455</ele>
        <time>2023-09-24T08:18:34.199Z</time>
      </trkpt>
      <trkpt lat="43.01578" lon="0.5895">
        <ele>520.606015</ele>
        <time>2023-09-24T08:18:36.218Z</time>
      </trkpt>
      <trkpt lat="43.01592" lon="0.5895">
        <ele>520.395826</ele>
        <time>2023-09-24T08:18:38.200Z</time>
      </trkpt>
      <trkpt lat="43.01607" lon="0.58948">
        <ele>520.183004</ele>
        <time>2023-09-24T08:18:40.197Z</time>
      </trkpt>
      <trkpt lat="43.01621" lon="0.58945">
        <ele>519.962234</ele>
        <time>2023-09-24T08:18:42.205Z</time>
      </trkpt>
      <trkpt lat="43.01636" lon="0.58941">
        <ele>519.736548</ele>
        <time>2023-09-24T08:18:44.215Z</time>
      </trkpt>
      <trkpt lat="43.0165" lon="0.58936">
        <ele>519.5144</ele>
        <time>2023-09-24T08:18:46.210Z</time>
      </trkpt>
      <trkpt lat="43.01665" lon="0.5893">
        <ele>519.284884</ele>
        <time>2023-09-24T08:18:48.200Z</time>
      </trkpt>
      <trkpt lat="43.0168" lon="0.58924">
        <ele>519.048811</ele>
        <time>2023-09-24T08:18:50.185Z</time>
      </trkpt>
      <trkpt lat="43.01695" lon="0.58917">
        <ele>518.812429</ele>
        <time>2023-09-24T08:18:52.183Z</time>
      </trkpt>
      <trkpt lat="43.0171" lon="0.58912">
        <ele>518.57595</ele>
        <time>2023-09-24T08:18:54.210Z</time>
      </trkpt>
      <trkpt lat="43.01725" lon="0.58907">
        <ele>518.364698</ele>
        <time>2023-09-24T08:18:56.205Z</time>
      </trkpt>
      <trkpt lat="43.01739" lon="0.58903">
        <ele>518.171255</ele>
        <time>2023-09-24T08:18:58.202Z</time>
      </trkpt>
      <trkpt lat="43.01754" lon="0.589">
        <ele>517.969306</ele>
        <time>2023-09-24T08:19:00.209Z</time>
      </trkpt>
      <trkpt lat="43.01769" lon="0.58898">
        <ele>517.760227</ele>
        <time>2023-09-24T08:19:02.216Z</time>
      </trkpt>
      <trkpt lat="43.01784" lon="0.58899">
        <ele>517.557484</ele>
        <time>2023-09-24T08:19:04.253Z</time>
      </trkpt>
      <trkpt lat="43.01799" lon="0.58901">
        <ele>517.342446</ele>
        <time>2023-09-24T08:19:06.210Z</time>
      </trkpt>
      <trkpt lat="43.01815" lon="0.58906">
        <ele>517.122735</ele>
        <time>2023-09-24T08:19:08.197Z</time>
      </trkpt>
      <trkpt lat="43.01831" lon="0.58912">
        <ele>516.901237</ele>
        <time>2023-09-24T08:19:10.220Z</time>
      </trkpt>
      <trkpt lat="43.01846" lon="0.58918">
        <ele>516.681375</ele>
        <time>2023-09-24T08:19:12.206Z</time>
      </trkpt>
      <trkpt lat="43.01861" lon="0.58924">
        <ele>516.463071</ele>
        <time>2023-09-24T08:19:14.209Z</time>
      </trkpt>
      <trkpt lat="43.01876" lon="0.5893">
        <ele>516.248992</ele>
        <time>2023-09-24T08:19:16.204Z</time>
      </trkpt>
      <trkpt lat="43.01891" lon="0.58936">
        <ele>516.167606</ele>
        <time>2023-09-24T08:19:18.203Z</time>
      </trkpt>
      <trkpt lat="43.01905" lon="0.58942">
        <ele>516.200617</ele>
        <time>2023-09-24T08:19:20.230Z</time>
      </trkpt>
      <trkpt lat="43.01917" lon="0.58948">
        <ele>516.231474</ele>
        <time>2023-09-24T08:19:22.213Z</time>
      </trkpt>
      <trkpt lat="43.01929" lon="0.58956">
        <ele>516.260717</ele>
        <time>2023-09-24T08:19:24.215Z</time>
      </trkpt>
      <trkpt lat="43.01938" lon="0.58968">
        <ele>516.288324</ele>
        <time>2023-09-24T08:19:26.239Z</time>
      </trkpt>
      <trkpt lat="43.01946" lon="0.58978">
        <ele>516.313096</ele>
        <time>2023-09-24T08:19:28.228Z</time>
      </trkpt>
      <trkpt lat="43.01957" lon="0.58974">
        <ele>516.337485</ele>
        <time>2023-09-24T08:19:30.219Z</time>
      </trkpt>
      <trkpt lat="43.01962" lon="0.5896">
        <ele>516.36399</ele>
        <time>2023-09-24T08:19:32.198Z</time>
      </trkpt>
      <trkpt lat="43.01969" lon="0.58947">
        <ele>516.390687</ele>
        <time>2023-09-24T08:19:34.201Z</time>
      </trkpt>
      <trkpt lat="43.01981" lon="0.58939">
        <ele>516.420584</ele>
        <time>2023-09-24T08:19:36.204Z</time>
      </trkpt>
      <trkpt lat="43.01994" lon="0.58931">
        <ele>516.452554</ele>
        <time>2023-09-24T08:19:38.205Z</time>
      </trkpt>
      <trkpt lat="43.02007" lon="0.58923">
        <ele>516.484451</ele>
        <time>2023-09-24T08:19:40.191Z</time>
      </trkpt>
      <trkpt lat="43.0202" lon="0.58913">
        <ele>516.517436</ele>
        <time>2023-09-24T08:19:42.204Z</time>
      </trkpt>
      <trkpt lat="43.02032" lon="0.58903">
        <ele>516.550993</ele>
        <time>2023-09-24T08:19:44.225Z</time>
      </trkpt>
      <trkpt lat="43.02044" lon="0.5889">
        <ele>516.648513</ele>
        <time>2023-09-24T08:19:46.217Z</time>
      </trkpt>
      <trkpt lat="43.02055" lon="0.58875">
        <ele>516.756387</ele>
        <time>2023-09-24T08:19:48.207Z</time>
      </trkpt>
      <trkpt lat="43.02065" lon="0.58861">
        <ele>516.86338</ele>
        <time>2023-09-24T08:19:50.222Z</time>
      </trkpt>
      <trkpt lat="43.02076" lon="0.58847">
        <ele>516.967519</ele>
        <time>2023-09-24T08:19:52.223Z</time>
      </trkpt>
      <trkpt lat="43.02086" lon="0.58833">
        <ele>517.069713</ele>
        <time>2023-09-24T08:19:54.210Z</time>
      </trkpt>
      <trkpt lat="43.02096" lon="0.5882">
        <ele>517.1694</ele>
        <time>2023-09-24T08:19:56.213Z</time>
      </trkpt>
      <trkpt lat="43.02105" lon="0.58806">
        <ele>517.267836</ele>
        <time>2023-09-24T08:19:58.214Z</time>
      </trkpt>
      <trkpt lat="43.02114" lon="0.58792">
        <ele>517.366212</ele>
        <time>2023-09-24T08:20:00.208Z</time>
      </trkpt>
      <trkpt lat="43.02124" lon="0.58779">
        <ele>517.463534</ele>
        <time>2023-09-24T08:20:02.204Z</time>
      </trkpt>
      <trkpt lat="43.02133" lon="0.58766">
        <ele>517.558841</ele>
        <time>2023-09-24T08:20:04.206Z</time>
      </trkpt>
      <trkpt lat="43.02142" lon="0.58753">
        <ele>517.653541</ele>
        <time>2023-09-24T08:20:06.199Z</time>
      </trkpt>
      <trkpt lat="43.0215" lon="0.5874">
        <ele>517.742838</ele>
        <time>2023-09-24T08:20:08.211Z</time>
      </trkpt>
      <trkpt lat="43.02159" lon="0.58728">
        <ele>517.83126</ele>
        <time>2023-09-24T08:20:10.198Z</time>
      </trkpt>
      <trkpt lat="43.02168" lon="0.58716">
        <ele>517.967037</ele>
        <time>2023-09-24T08:20:12.200Z</time>
      </trkpt>
      <trkpt lat="43.02176" lon="0.58704">
        <ele>518.108481</ele>
        <time>2023-09-24T08:20:14.210Z</time>
      </trkpt>
      <trkpt lat="43.02185" lon="0.58692">
        <ele>518.252386</ele>
        <time>2023-09-24T08:20:16.204Z</time>
      </trkpt>
      <trkpt lat="43.02194" lon="0.58682">
        <ele>518.393888</ele>
        <time>2023-09-24T08:20:18.202Z</time>
      </trkpt>
      <trkpt lat="43.02205" lon="0.58673">
        <ele>518.537003</ele>
        <time>2023-09-24T08:20:20.203Z</time>
      </trkpt>
      <trkpt lat="43.02216" lon="0.58665">
        <ele>518.682123</ele>
        <time>2023-09-24T08:20:22.208Z</time>
      </trkpt>
      <trkpt lat="43.02226" lon="0.58658">
        <ele>518.816252</ele>
        <time>2023-09-24T08:20:24.230Z</time>
      </trkpt>
      <trkpt lat="43.02236" lon="0.58651">
        <ele>518.946244</ele>
        <time>2023-09-24T08:20:26.215Z</time>
      </trkpt>
      <trkpt lat="43.02247" lon="0.58644">
        <ele>519.081344</ele>
        <time>2023-09-24T08:20:28.201Z</time>
      </trkpt>
      <trkpt lat="43.02257" lon="0.58637">
        <ele>519.217179</ele>
        <time>2023-09-24T08:20:30.229Z</time>
      </trkpt>
      <trkpt lat="43.02267" lon="0.5863">
        <ele>519.346983</ele>
        <time>2023-09-24T08:20:32.204Z</time>
      </trkpt>
      <trkpt lat="43.02277" lon="0.58624">
        <ele>519.478938</ele>
        <time>2023-09-24T08:20:34.204Z</time>
      </trkpt>
      <trkpt lat="43.02288" lon="0.58616">
        <ele>519.619029</ele>
        <time>2023-09-24T08:20:36.213Z</time>
      </trkpt>
      <trkpt lat="43.02299" lon="0.58609">
        <ele>519.76442</ele>
        <time>2023-09-24T08:20:38.198Z</time>
      </trkpt>
      <trkpt lat="43.02311" lon="0.58601">
        <ele>519.916458</ele>
        <time>2023-09-24T08:20:40.214Z</time>
      </trkpt>
      <trkpt lat="43.02324" lon="0.58593">
        <ele>519.742283</ele>
        <time>2023-09-24T08:20:42.201Z</time>
      </trkpt>
      <trkpt lat="43.02336" lon="0.58583">
        <ele>519.49995</ele>
        <time>2023-09-24T08:20:44.198Z</time>
      </trkpt>
      <trkpt lat="43.02349" lon="0.58572">
        <ele>519.250899</ele>
        <time>2023-09-24T08:20:46.208Z</time>
      </trkpt>
      <trkpt lat="43.02363" lon="0.58566">
        <ele>519.017641</ele>
        <time>2023-09-24T08:20:48.200Z</time>
      </trkpt>
      <trkpt lat="43.02377" lon="0.5856">
        <ele>518.773445</ele>
        <time>2023-09-24T08:20:50.222Z</time>
      </trkpt>
      <trkpt lat="43.0239" lon="0.5855">
        <ele>518.526785</ele>
        <time>2023-09-24T08:20:52.213Z</time>
      </trkpt>
      <trkpt lat="43.02403" lon="0.58539">
        <ele>518.280121</ele>
        <time>2023-09-24T08:20:54.202Z</time>
      </trkpt>
      <trkpt lat="43.02415" lon="0.58528">
        <ele>518.036423</ele>
        <time>2023-09-24T08:20:56.203Z</time>
      </trkpt>
      <trkpt lat="43.02425" lon="0.58514">
        <ele>517.800589</ele>
        <time>2023-09-24T08:20:58.202Z</time>
      </trkpt>
      <trkpt lat="43.02436" lon="0.58501">
        <ele>517.558234</ele>
        <time>2023-09-24T08:21:00.223Z</time>
      </trkpt>
      <trkpt lat="43.02447" lon="0.58489">
        <ele>517.329417</ele>
        <time>2023-09-24T08:21:02.217Z</time>
      </trkpt>
      <trkpt lat="43.02458" lon="0.58478">
        <ele>517.101774</ele>
        <time>2023-09-24T08:21:04.237Z</time>
      </trkpt>
      <trkpt lat="43.02469" lon="0.58467">
        <ele>516.803728</ele>
        <time>2023-09-24T08:21:06.202Z</time>
      </trkpt>
      <trkpt lat="43.02483" lon="0.58457">
        <ele>516.374544</ele>
        <time>2023-09-24T08:21:08.207Z</time>
      </trkpt>
      <trkpt lat="43.02499" lon="0.58453">
        <ele>515.940328</ele>
        <time>2023-09-24T08:21:10.206Z</time>
      </trkpt>
      <trkpt lat="43.02515" lon="0.58453">
        <ele>515.497719</ele>
        <time>2023-09-24T08:21:12.186Z</time>
      </trkpt>
      <trkpt lat="43.02531" lon="0.58455">
        <ele>515.047588</ele>
        <time>2023-09-24T08:21:14.203Z</time>
      </trkpt>
      <trkpt lat="43.02547" lon="0.58457">
        <ele>514.586959</ele>
        <time>2023-09-24T08:21:16.251Z</time>
      </trkpt>
      <trkpt lat="43.02564" lon="0.58457">
        <ele>514.13052</ele>
        <time>2023-09-24T08:21:18.202Z</time>
      </trkpt>
      <trkpt lat="43.02579" lon="0.58456">
        <ele>513.703716</ele>
        <time>2023-09-24T08:21:20.210Z</time>
      </trkpt>
      <trkpt lat="43.02595" lon="0.58454">
        <ele>513.259281</ele>
        <time>2023-09-24T08:21:22.227Z</time>
      </trkpt>
      <trkpt lat="43.02611" lon="0.5845">
        <ele>512.830824</ele>
        <time>2023-09-24T08:21:24.210Z</time>
      </trkpt>
      <trkpt lat="43.02625" lon="0.58445">
        <ele>512.402299</ele>
        <time>2023-09-24T08:21:26.203Z</time>
      </trkpt>
      <trkpt lat="43.02639" lon="0.58435">
        <ele>511.989348</ele>
        <time>2023-09-24T08:21:28.231Z</time>
      </trkpt>
      <trkpt lat="43.02651" lon="0.58425">
        <ele>512.048222</ele>
        <time>2023-09-24T08:21:30.201Z</time>
      </trkpt>
      <trkpt lat="43.02662" lon="0.58416">
        <ele>512.104179</ele>
        <time>2023-09-24T08:21:32.216Z</time>
      </trkpt>
      <trkpt lat="43.02674" lon="0.58407">
        <ele>512.161927</ele>
        <time>2023-09-24T08:21:34.206Z</time>
      </trkpt>
      <trkpt lat="43.02687" lon="0.58401">
        <ele>512.218898</ele>
        <time>2023-09-24T08:21:36.204Z</time>
      </trkpt>
      <trkpt lat="43.027" lon="0.58394">
        <ele>512.278573</ele>
        <time>2023-09-24T08:21:38.207Z</time>
      </trkpt>
      <trkpt lat="43.02713" lon="0.58387">
        <ele>512.336583</ele>
        <time>2023-09-24T08:21:40.205Z</time>
      </trkpt>
      <trkpt lat="43.02725" lon="0.58381">
        <ele>512.393107</ele>
        <time>2023-09-24T08:21:42.203Z</time>
      </trkpt>
      <trkpt lat="43.02737" lon="0.58374">
        <ele>512.446196</ele>
        <time>2023-09-24T08:21:44.211Z</time>
      </trkpt>
      <trkpt lat="43.02749" lon="0.58368">
        <ele>512.501479</ele>
        <time>2023-09-24T08:21:46.216Z</time>
      </trkpt>
      <trkpt lat="43.0276" lon="0.58361">
        <ele>512.550802</ele>
        <time>2023-09-24T08:21:48.209Z</time>
      </trkpt>
      <trkpt lat="43.02769" lon="0.58355">
        <ele>512.596145</ele>
        <time>2023-09-24T08:21:50.200Z</time>
      </trkpt>
      <trkpt lat="43.02779" lon="0.58351">
        <ele>512.639369</ele>
        <time>2023-09-24T08:21:52.201Z</time>
      </trkpt>
      <trkpt lat="43.02788" lon="0.58354">
        <ele>512.67894</ele>
        <time>2023-09-24T08:21:54.209Z</time>
      </trkpt>
      <trkpt lat="43.02797" lon="0.58363">
        <ele>512.724902</ele>
        <time>2023-09-24T08:21:56.211Z</time>
      </trkpt>
      <trkpt lat="43.02805" lon="0.58373">
        <ele>512.741902</ele>
        <time>2023-09-24T08:21:59.210Z</time>
      </trkpt>
      <trkpt lat="43.02806" lon="0.58357">
        <ele>512.720111</ele>
        <time>2023-09-24T08:22:05.216Z</time>
      </trkpt>
      <trkpt lat="43.02811" lon="0.58347">
        <ele>512.70201</ele>
        <time>2023-09-24T08:22:09.220Z</time>
      </trkpt>
      <trkpt lat="43.02817" lon="0.58337">
        <ele>512.684082</ele>
        <time>2023-09-24T08:22:12.206Z</time>
      </trkpt>
      <trkpt lat="43.02823" lon="0.58327">
        <ele>512.665833</ele>
        <time>2023-09-24T08:22:15.217Z</time>
      </trkpt>
      <trkpt lat="43.02828" lon="0.58315">
        <ele>512.64578</ele>
        <time>2023-09-24T08:22:18.191Z</time>
      </trkpt>
      <trkpt lat="43.02834" lon="0.58304">
        <ele>512.626885</ele>
        <time>2023-09-24T08:22:21.199Z</time>
      </trkpt>
      <trkpt lat="43.02842" lon="0.58295">
        <ele>512.607411</ele>
        <time>2023-09-24T08:22:24.218Z</time>
      </trkpt>
      <trkpt lat="43.0285" lon="0.58287">
        <ele>512.588066</ele>
        <time>2023-09-24T08:22:26.242Z</time>
      </trkpt>
      <trkpt lat="43.02858" lon="0.58278">
        <ele>512.568261</ele>
        <time>2023-09-24T08:22:28.213Z</time>
      </trkpt>
      <trkpt lat="43.02864" lon="0.58267">
        <ele>512.54885</ele>
        <time>2023-09-24T08:22:30.209Z</time>
      </trkpt>
      <trkpt lat="43.02871" lon="0.58258">
        <ele>512.529739</ele>
        <time>2023-09-24T08:22:32.205Z</time>
      </trkpt>
      <trkpt lat="43.02877" lon="0.58245">
        <ele>512.509196</ele>
        <time>2023-09-24T08:22:35.202Z</time>
      </trkpt>
      <trkpt lat="43.02877" lon="0.58231">
        <ele>512.489418</ele>
        <time>2023-09-24T08:22:39.209Z</time>
      </trkpt>
      <trkpt lat="43.02876" lon="0.58217">
        <ele>512.469864</ele>
        <time>2023-09-24T08:22:43.186Z</time>
      </trkpt>
      <trkpt lat="43.02874" lon="0.58204">
        <ele>512.450738</ele>
        <time>2023-09-24T08:22:46.202Z</time>
      </trkpt>
      <trkpt lat="43.0287" lon="0.58189">
        <ele>512.427547</ele>
        <time>2023-09-24T08:22:49.240Z</time>
      </trkpt>
      <trkpt lat="43.02866" lon="0.58173">
        <ele>512.403894</ele>
        <time>2023-09-24T08:22:52.211Z</time>
      </trkpt>
      <trkpt lat="43.02864" lon="0.5816">
        <ele>512.412704</ele>
        <time>2023-09-24T08:22:54.207Z</time>
      </trkpt>
      <trkpt lat="43.02861" lon="0.58147">
        <ele>512.422299</ele>
        <time>2023-09-24T08:22:56.202Z</time>
      </trkpt>
      <trkpt lat="43.02859" lon="0.58133">
        <ele>512.432317</ele>
        <time>2023-09-24T08:22:58.207Z</time>
      </trkpt>
      <trkpt lat="43.02857" lon="0.58119">
        <ele>512.442167</ele>
        <time>2023-09-24T08:23:00.207Z</time>
      </trkpt>
      <trkpt lat="43.02855" lon="0.58106">
        <ele>512.451801</ele>
        <time>2023-09-24T08:23:02.203Z</time>
      </trkpt>
      <trkpt lat="43.02853" lon="0.58091">
        <ele>512.462723</ele>
        <time>2023-09-24T08:23:04.217Z</time>
      </trkpt>
      <trkpt lat="43.02851" lon="0.58076">
        <ele>512.473602</ele>
        <time>2023-09-24T08:23:06.236Z</time>
      </trkpt>
      <trkpt lat="43.02848" lon="0.5806">
        <ele>512.484824</ele>
        <time>2023-09-24T08:23:08.194Z</time>
      </trkpt>
      <trkpt lat="43.02845" lon="0.58045">
        <ele>512.496094</ele>
        <time>2023-09-24T08:23:10.199Z</time>
      </trkpt>
      <trkpt lat="43.02842" lon="0.58031">
        <ele>512.506573</ele>
        <time>2023-09-24T08:23:12.240Z</time>
      </trkpt>
      <trkpt lat="43.02839" lon="0.58016">
        <ele>512.517366</ele>
        <time>2023-09-24T08:23:14.202Z</time>
      </trkpt>
      <trkpt lat="43.02835" lon="0.58001">
        <ele>512.528659</ele>
        <time>2023-09-24T08:23:16.215Z</time>
      </trkpt>
      <trkpt lat="43.02832" lon="0.57986">
        <ele>512.53989</ele>
        <time>2023-09-24T08:23:18.209Z</time>
      </trkpt>
      <trkpt lat="43.02828" lon="0.57971">
        <ele>512.550882</ele>
        <time>2023-09-24T08:23:20.189Z</time>
      </trkpt>
      <trkpt lat="43.02825" lon="0.57957">
        <ele>512.561525</ele>
        <time>2023-09-24T08:23:22.214Z</time>
      </trkpt>
      <trkpt lat="43.02821" lon="0.57942">
        <ele>512.572371</ele>
        <time>2023-09-24T08:23:24.209Z</time>
      </trkpt>
      <trkpt lat="43.02818" lon="0.57927">
        <ele>512.596716</ele>
        <time>2023-09-24T08:23:26.212Z</time>
      </trkpt>
      <trkpt lat="43.02815" lon="0.57912">
        <ele>512.633939</ele>
        <time>2023-09-24T08:23:28.208Z</time>
      </trkpt>
      <trkpt lat="43.02813" lon="0.57899">
        <ele>512.666979</ele>
        <time>2023-09-24T08:23:30.206Z</time>
      </trkpt>
      <trkpt lat="43.02813" lon="0.57884">
        <ele>512.701361</ele>
        <time>2023-09-24T08:23:32.206Z</time>
      </trkpt>
      <trkpt lat="43.02813" lon="0.5787">
        <ele>512.73552</ele>
        <time>2023-09-24T08:23:34.211Z</time>
      </trkpt>
      <trkpt lat="43.02814" lon="0.57855">
        <ele>512.771371</ele>
        <time>2023-09-24T08:23:36.212Z</time>
      </trkpt>
      <trkpt lat="43.02816" lon="0.57841">
        <ele>512.804998</ele>
        <time>2023-09-24T08:23:38.219Z</time>
      </trkpt>
      <trkpt lat="43.02818" lon="0.57826">
        <ele>512.839623</ele>
        <time>2023-09-24T08:23:40.239Z</time>
      </trkpt>
      <trkpt lat="43.0282" lon="0.57812">
        <ele>512.875307</ele>
        <time>2023-09-24T08:23:42.205Z</time>
      </trkpt>
      <trkpt lat="43.02822" lon="0.57799">
        <ele>512.906952</ele>
        <time>2023-09-24T08:23:44.219Z</time>
      </trkpt>
      <trkpt lat="43.02825" lon="0.57781">
        <ele>512.949158</ele>
        <time>2023-09-24T08:23:47.200Z</time>
      </trkpt>
      <trkpt lat="43.02823" lon="0.57766">
        <ele>512.986759</ele>
        <time>2023-09-24T08:23:50.214Z</time>
      </trkpt>
      <trkpt lat="43.02814" lon="0.57758">
        <ele>513.021195</ele>
        <time>2023-09-24T08:23:54.214Z</time>
      </trkpt>
      <trkpt lat="43.02805" lon="0.57753">
        <ele>513.051088</ele>
        <time>2023-09-24T08:23:56.215Z</time>
      </trkpt>
      <trkpt lat="43.02797" lon="0.57746">
        <ele>513.083494</ele>
        <time>2023-09-24T08:23:58.206Z</time>
      </trkpt>
      <trkpt lat="43.02789" lon="0.57736">
        <ele>513.117103</ele>
        <time>2023-09-24T08:24:00.227Z</time>
      </trkpt>
      <trkpt lat="43.02781" lon="0.57725">
        <ele>513.154207</ele>
        <time>2023-09-24T08:24:02.226Z</time>
      </trkpt>
      <trkpt lat="43.02774" lon="0.57714">
        <ele>513.204344</ele>
        <time>2023-09-24T08:24:04.211Z</time>
      </trkpt>
      <trkpt lat="43.02765" lon="0.57704">
        <ele>513.261392</ele>
        <time>2023-09-24T08:24:06.203Z</time>
      </trkpt>
      <trkpt lat="43.02756" lon="0.57695">
        <ele>513.317053</ele>
        <time>2023-09-24T08:24:08.207Z</time>
      </trkpt>
      <trkpt lat="43.02748" lon="0.57685">
        <ele>513.370424</ele>
        <time>2023-09-24T08:24:10.213Z</time>
      </trkpt>
      <trkpt lat="43.02742" lon="0.57673">
        <ele>513.422993</ele>
        <time>2023-09-24T08:24:12.204Z</time>
      </trkpt>
      <trkpt lat="43.02737" lon="0.57659">
        <ele>513.478346</ele>
        <time>2023-09-24T08:24:14.179Z</time>
      </trkpt>
      <trkpt lat="43.02732" lon="0.57646">
        <ele>513.532016</ele>
        <time>2023-09-24T08:24:16.197Z</time>
      </trkpt>
      <trkpt lat="43.02732" lon="0.57632">
        <ele>513.584755</ele>
        <time>2023-09-24T08:24:19.205Z</time>
      </trkpt>
      <trkpt lat="43.02742" lon="0.57626">
        <ele>513.637796</ele>
        <time>2023-09-24T08:24:22.202Z</time>
      </trkpt>
      <trkpt lat="43.02751" lon="0.5762">
        <ele>513.689349</ele>
        <time>2023-09-24T08:24:25.222Z</time>
      </trkpt>
      <trkpt lat="43.0276" lon="0.57614">
        <ele>513.740926</ele>
        <time>2023-09-24T08:24:28.214Z</time>
      </trkpt>
      <trkpt lat="43.02768" lon="0.57607">
        <ele>513.787489</ele>
        <time>2023-09-24T08:24:31.211Z</time>
      </trkpt>
      <trkpt lat="43.02777" lon="0.57597">
        <ele>513.843429</ele>
        <time>2023-09-24T08:24:34.205Z</time>
      </trkpt>
      <trkpt lat="43.02788" lon="0.57588">
        <ele>513.907224</ele>
        <time>2023-09-24T08:24:37.213Z</time>
      </trkpt>
      <trkpt lat="43.02777" lon="0.57593">
        <ele>513.962381</ele>
        <time>2023-09-24T08:24:45.216Z</time>
      </trkpt>
      <trkpt lat="43.02769" lon="0.57601">
        <ele>514.011197</ele>
        <time>2023-09-24T08:24:47.206Z</time>
      </trkpt>
      <trkpt lat="43.0276" lon="0.57609">
        <ele>514.056406</ele>
        <time>2023-09-24T08:24:49.223Z</time>
      </trkpt>
      <trkpt lat="43.02751" lon="0.57615">
        <ele>514.063211</ele>
        <time>2023-09-24T08:24:51.211Z</time>
      </trkpt>
      <trkpt lat="43.02739" lon="0.5761">
        <ele>514.072086</ele>
        <time>2023-09-24T08:24:54.202Z</time>
      </trkpt>
      <trkpt lat="43.02735" lon="0.57597">
        <ele>514.078899</ele>
        <time>2023-09-24T08:24:56.238Z</time>
      </trkpt>
      <trkpt lat="43.02732" lon="0.57583">
        <ele>514.086471</ele>
        <time>2023-09-24T08:24:58.215Z</time>
      </trkpt>
      <trkpt lat="43.02727" lon="0.5757">
        <ele>514.094</ele>
        <time>2023-09-24T08:25:00.210Z</time>
      </trkpt>
      <trkpt lat="43.02721" lon="0.57559">
        <ele>514.101353</ele>
        <time>2023-09-24T08:25:02.202Z</time>
      </trkpt>
      <trkpt lat="43.02714" lon="0.57549">
        <ele>514.108011</ele>
        <time>2023-09-24T08:25:04.212Z</time>
      </trkpt>
      <trkpt lat="43.02708" lon="0.5754">
        <ele>514.114302</ele>
        <time>2023-09-24T08:25:06.211Z</time>
      </trkpt>
      <trkpt lat="43.02701" lon="0.57528">
        <ele>514.122589</ele>
        <time>2023-09-24T08:25:09.221Z</time>
      </trkpt>
      <trkpt lat="43.02696" lon="0.57514">
        <ele>514.130347</ele>
        <time>2023-09-24T08:25:12.203Z</time>
      </trkpt>
      <trkpt lat="43.02695" lon="0.57496">
        <ele>514.139631</ele>
        <time>2023-09-24T08:25:15.208Z</time>
      </trkpt>
      <trkpt lat="43.02693" lon="0.57479">
        <ele>514.14832</ele>
        <time>2023-09-24T08:25:18.203Z</time>
      </trkpt>
      <trkpt lat="43.02685" lon="0.5747">
        <ele>514.155949</ele>
        <time>2023-09-24T08:25:21.202Z</time>
      </trkpt>
      <trkpt lat="43.02674" lon="0.57473">
        <ele>514.163684</ele>
        <time>2023-09-24T08:25:24.181Z</time>
      </trkpt>
      <trkpt lat="43.02665" lon="0.57468">
        <ele>514.170394</ele>
        <time>2023-09-24T08:25:29.205Z</time>
      </trkpt>
      <trkpt lat="43.02672" lon="0.57476">
        <ele>514.177138</ele>
        <time>2023-09-24T08:25:47.216Z</time>
      </trkpt>
      <trkpt lat="43.02683" lon="0.57469">
        <ele>514.422736</ele>
        <time>2023-09-24T08:25:50.199Z</time>
      </trkpt>
      <trkpt lat="43.02691" lon="0.57462">
        <ele>514.722987</ele>
        <time>2023-09-24T08:25:52.204Z</time>
      </trkpt>
      <trkpt lat="43.02704" lon="0.57457">
        <ele>515.12328</ele>
        <time>2023-09-24T08:25:55.216Z</time>
      </trkpt>
      <trkpt lat="43.02716" lon="0.57458">
        <ele>515.498527</ele>
        <time>2023-09-24T08:25:58.202Z</time>
      </trkpt>
      <trkpt lat="43.02727" lon="0.57456">
        <ele>515.850397</ele>
        <time>2023-09-24T08:26:02.202Z</time>
      </trkpt>
      <trkpt lat="43.0273" lon="0.57443">
        <ele>516.163856</ele>
        <time>2023-09-24T08:26:05.207Z</time>
      </trkpt>
      <trkpt lat="43.02731" lon="0.57428">
        <ele>516.493732</ele>
        <time>2023-09-24T08:26:08.199Z</time>
      </trkpt>
      <trkpt lat="43.02731" lon="0.57416">
        <ele>516.782283</ele>
        <time>2023-09-24T08:26:11.197Z</time>
      </trkpt>
      <trkpt lat="43.02739" lon="0.57408">
        <ele>517.075793</ele>
        <time>2023-09-24T08:26:14.178Z</time>
      </trkpt>
      <trkpt lat="43.0275" lon="0.574">
        <ele>517.473275</ele>
        <time>2023-09-24T08:26:17.199Z</time>
      </trkpt>
      <trkpt lat="43.02757" lon="0.57392">
        <ele>517.761433</ele>
        <time>2023-09-24T08:26:19.191Z</time>
      </trkpt>
      <trkpt lat="43.02763" lon="0.57383">
        <ele>518.062182</ele>
        <time>2023-09-24T08:26:21.208Z</time>
      </trkpt>
      <trkpt lat="43.0277" lon="0.57373">
        <ele>518.368205</ele>
        <time>2023-09-24T08:26:23.211Z</time>
      </trkpt>
      <trkpt lat="43.02779" lon="0.57362">
        <ele>518.744523</ele>
        <time>2023-09-24T08:26:26.195Z</time>
      </trkpt>
      <trkpt lat="43.02776" lon="0.57349">
        <ele>519.083937</ele>
        <time>2023-09-24T08:26:31.201Z</time>
      </trkpt>
      <trkpt lat="43.02765" lon="0.57344">
        <ele>519.431018</ele>
        <time>2023-09-24T08:26:35.202Z</time>
      </trkpt>
      <trkpt lat="43.02761" lon="0.57332">
        <ele>519.731812</ele>
        <time>2023-09-24T08:26:50.204Z</time>
      </trkpt>
      <trkpt lat="43.02764" lon="0.57319">
        <ele>520.344583</ele>
        <time>2023-09-24T08:26:55.208Z</time>
      </trkpt>
      <trkpt lat="43.02766" lon="0.57305">
        <ele>521.109064</ele>
        <time>2023-09-24T08:26:59.206Z</time>
      </trkpt>
      <trkpt lat="43.02768" lon="0.5729">
        <ele>521.914667</ele>
        <time>2023-09-24T08:27:05.200Z</time>
      </trkpt>
      <trkpt lat="43.0277" lon="0.57276">
        <ele>522.66798</ele>
        <time>2023-09-24T08:27:11.204Z</time>
      </trkpt>
      <trkpt lat="43.02772" lon="0.57264">
        <ele>523.39445</ele>
        <time>2023-09-24T08:27:17.195Z</time>
      </trkpt>
      <trkpt lat="43.02778" lon="0.57253">
        <ele>524.102899</ele>
        <time>2023-09-24T08:27:23.215Z</time>
      </trkpt>
      <trkpt lat="43.02788" lon="0.5724">
        <ele>525.109632</ele>
        <time>2023-09-24T08:27:27.210Z</time>
      </trkpt>
      <trkpt lat="43.02791" lon="0.57227">
        <ele>525.832986</ele>
        <time>2023-09-24T08:27:30.193Z</time>
      </trkpt>
      <trkpt lat="43.02791" lon="0.57214">
        <ele>526.543611</ele>
        <time>2023-09-24T08:27:34.203Z</time>
      </trkpt>
      <trkpt lat="43.02794" lon="0.572">
        <ele>527.331413</ele>
        <time>2023-09-24T08:27:38.184Z</time>
      </trkpt>
      <trkpt lat="43.02798" lon="0.57189">
        <ele>528.017758</ele>
        <time>2023-09-24T08:27:41.204Z</time>
      </trkpt>
      <trkpt lat="43.02804" lon="0.57179">
        <ele>528.702324</ele>
        <time>2023-09-24T08:27:44.235Z</time>
      </trkpt>
      <trkpt lat="43.02811" lon="0.5717">
        <ele>529.404688</ele>
        <time>2023-09-24T08:27:47.204Z</time>
      </trkpt>
      <trkpt lat="43.02815" lon="0.57159">
        <ele>530.091867</ele>
        <time>2023-09-24T08:27:50.216Z</time>
      </trkpt>
      <trkpt lat="43.02821" lon="0.57145">
        <ele>530.958158</ele>
        <time>2023-09-24T08:27:54.194Z</time>
      </trkpt>
      <trkpt lat="43.02825" lon="0.57132">
        <ele>531.704771</ele>
        <time>2023-09-24T08:27:57.203Z</time>
      </trkpt>
      <trkpt lat="43.02831" lon="0.5712">
        <ele>532.493882</ele>
        <time>2023-09-24T08:28:00.202Z</time>
      </trkpt>
      <trkpt lat="43.02835" lon="0.57106">
        <ele>533.425893</ele>
        <time>2023-09-24T08:28:04.200Z</time>
      </trkpt>
      <trkpt lat="43.02834" lon="0.57092">
        <ele>534.605212</ele>
        <time>2023-09-24T08:28:08.196Z</time>
      </trkpt>
      <trkpt lat="43.02827" lon="0.57083">
        <ele>535.772518</ele>
        <time>2023-09-24T08:28:13.238Z</time>
      </trkpt>
      <trkpt lat="43.02833" lon="0.57071">
        <ele>537.037626</ele>
        <time>2023-09-24T08:28:20.204Z</time>
      </trkpt>
      <trkpt lat="43.02833" lon="0.57056">
        <ele>538.372474</ele>
        <time>2023-09-24T08:28:24.197Z</time>
      </trkpt>
      <trkpt lat="43.02833" lon="0.57043">
        <ele>539.444127</ele>
        <time>2023-09-24T08:28:27.188Z</time>
      </trkpt>
      <trkpt lat="43.02829" lon="0.57032">
        <ele>540.516527</ele>
        <time>2023-09-24T08:28:31.203Z</time>
      </trkpt>
      <trkpt lat="43.02822" lon="0.5702">
        <ele>541.783206</ele>
        <time>2023-09-24T08:28:35.201Z</time>
      </trkpt>
      <trkpt lat="43.02815" lon="0.57011">
        <ele>542.970362</ele>
        <time>2023-09-24T08:28:39.211Z</time>
      </trkpt>
      <trkpt lat="43.02806" lon="0.57002">
        <ele>544.286708</ele>
        <time>2023-09-24T08:28:44.200Z</time>
      </trkpt>
      <trkpt lat="43.02795" lon="0.57001">
        <ele>545.52517</ele>
        <time>2023-09-24T08:28:49.209Z</time>
      </trkpt>
      <trkpt lat="43.02787" lon="0.57007">
        <ele>546.63999</ele>
        <time>2023-09-24T08:28:56.203Z</time>
      </trkpt>
      <trkpt lat="43.02781" lon="0.57018">
        <ele>547.884188</ele>
        <time>2023-09-24T08:29:01.216Z</time>
      </trkpt>
      <trkpt lat="43.02774" lon="0.5703">
        <ele>549.13758</ele>
        <time>2023-09-24T08:29:06.222Z</time>
      </trkpt>
      <trkpt lat="43.02767" lon="0.57038">
        <ele>550.2591</ele>
        <time>2023-09-24T08:29:11.194Z</time>
      </trkpt>
      <trkpt lat="43.02758" lon="0.57045">
        <ele>551.465782</ele>
        <time>2023-09-24T08:29:17.205Z</time>
      </trkpt>
      <trkpt lat="43.02748" lon="0.57047">
        <ele>552.613546</ele>
        <time>2023-09-24T08:29:23.214Z</time>
      </trkpt>
      <trkpt lat="43.02738" lon="0.5705">
        <ele>553.850258</ele>
        <time>2023-09-24T08:29:29.202Z</time>
      </trkpt>
      <trkpt lat="43.02728" lon="0.57053">
        <ele>554.375783</ele>
        <time>2023-09-24T08:29:35.232Z</time>
      </trkpt>
      <trkpt lat="43.02719" lon="0.57057">
        <ele>554.42248</ele>
        <time>2023-09-24T08:29:41.231Z</time>
      </trkpt>
      <trkpt lat="43.02712" lon="0.57065">
        <ele>554.46971</ele>
        <time>2023-09-24T08:29:47.230Z</time>
      </trkpt>
      <trkpt lat="43.02702" lon="0.57066">
        <ele>554.522341</ele>
        <time>2023-09-24T08:29:53.215Z</time>
      </trkpt>
      <trkpt lat="43.02695" lon="0.57056">
        <ele>554.572452</ele>
        <time>2023-09-24T08:29:57.216Z</time>
      </trkpt>
      <trkpt lat="43.02686" lon="0.57049">
        <ele>554.62597</ele>
        <time>2023-09-24T08:30:00.216Z</time>
      </trkpt>
      <trkpt lat="43.02673" lon="0.57044">
        <ele>554.694888</ele>
        <time>2023-09-24T08:30:03.207Z</time>
      </trkpt>
      <trkpt lat="43.02665" lon="0.57034">
        <ele>554.752517</ele>
        <time>2023-09-24T08:30:06.221Z</time>
      </trkpt>
      <trkpt lat="43.02659" lon="0.57019">
        <ele>554.814422</ele>
        <time>2023-09-24T08:30:08.178Z</time>
      </trkpt>
      <trkpt lat="43.02655" lon="0.56999">
        <ele>554.892571</ele>
        <time>2023-09-24T08:30:10.252Z</time>
      </trkpt>
      <trkpt lat="43.02651" lon="0.56982">
        <ele>554.959746</ele>
        <time>2023-09-24T08:30:12.203Z</time>
      </trkpt>
      <trkpt lat="43.02648" lon="0.56967">
        <ele>555.015306</ele>
        <time>2023-09-24T08:30:15.202Z</time>
      </trkpt>
      <trkpt lat="43.02638" lon="0.56958">
        <ele>555.076681</ele>
        <time>2023-09-24T08:30:19.212Z</time>
      </trkpt>
      <trkpt lat="43.02627" lon="0.56954">
        <ele>555.132264</ele>
        <time>2023-09-24T08:30:22.187Z</time>
      </trkpt>
      <trkpt lat="43.0262" lon="0.56964">
        <ele>555.184229</ele>
        <time>2023-09-24T08:30:27.195Z</time>
      </trkpt>
      <trkpt lat="43.02623" lon="0.56982">
        <ele>555.254872</ele>
        <time>2023-09-24T08:30:30.198Z</time>
      </trkpt>
      <trkpt lat="43.02626" lon="0.56997">
        <ele>554.13984</ele>
        <time>2023-09-24T08:30:32.229Z</time>
      </trkpt>
      <trkpt lat="43.0263" lon="0.5701">
        <ele>552.799182</ele>
        <time>2023-09-24T08:30:34.200Z</time>
      </trkpt>
      <trkpt lat="43.02621" lon="0.57002">
        <ele>551.490753</ele>
        <time>2023-09-24T08:30:41.200Z</time>
      </trkpt>
      <trkpt lat="43.02613" lon="0.56992">
        <ele>550.05974</ele>
        <time>2023-09-24T08:30:44.187Z</time>
      </trkpt>
      <trkpt lat="43.02604" lon="0.56982">
        <ele>548.686879</ele>
        <time>2023-09-24T08:30:47.207Z</time>
      </trkpt>
      <trkpt lat="43.02595" lon="0.56972">
        <ele>547.187044</ele>
        <time>2023-09-24T08:30:50.214Z</time>
      </trkpt>
      <trkpt lat="43.02585" lon="0.56961">
        <ele>545.523379</ele>
        <time>2023-09-24T08:30:53.193Z</time>
      </trkpt>
      <trkpt lat="43.02577" lon="0.56948">
        <ele>544.006994</ele>
        <time>2023-09-24T08:30:56.205Z</time>
      </trkpt>
      <trkpt lat="43.02572" lon="0.56934">
        <ele>542.604219</ele>
        <time>2023-09-24T08:30:59.211Z</time>
      </trkpt>
      <trkpt lat="43.02571" lon="0.56921">
        <ele>541.388047</ele>
        <time>2023-09-24T08:31:01.202Z</time>
      </trkpt>
      <trkpt lat="43.02571" lon="0.56908">
        <ele>540.196315</ele>
        <time>2023-09-24T08:31:03.223Z</time>
      </trkpt>
      <trkpt lat="43.02574" lon="0.56894">
        <ele>538.868551</ele>
        <time>2023-09-24T08:31:05.202Z</time>
      </trkpt>
      <trkpt lat="43.02576" lon="0.56879">
        <ele>537.441712</ele>
        <time>2023-09-24T08:31:07.238Z</time>
      </trkpt>
      <trkpt lat="43.02577" lon="0.56865">
        <ele>536.144341</ele>
        <time>2023-09-24T08:31:09.216Z</time>
      </trkpt>
      <trkpt lat="43.02578" lon="0.56852">
        <ele>534.888324</ele>
        <time>2023-09-24T08:31:11.209Z</time>
      </trkpt>
      <trkpt lat="43.02579" lon="0.56838">
        <ele>533.611029</ele>
        <time>2023-09-24T08:31:13.247Z</time>
      </trkpt>
      <trkpt lat="43.02581" lon="0.56825">
        <ele>532.673599</ele>
        <time>2023-09-24T08:31:15.209Z</time>
      </trkpt>
      <trkpt lat="43.02578" lon="0.56808">
        <ele>534.037621</ele>
        <time>2023-09-24T08:31:18.199Z</time>
      </trkpt>
      <trkpt lat="43.02572" lon="0.56798">
        <ele>535.069645</ele>
        <time>2023-09-24T08:31:21.204Z</time>
      </trkpt>
      <trkpt lat="43.02565" lon="0.56789">
        <ele>536.090646</ele>
        <time>2023-09-24T08:31:24.200Z</time>
      </trkpt>
      <trkpt lat="43.02557" lon="0.56781">
        <ele>537.074777</ele>
        <time>2023-09-24T08:31:27.197Z</time>
      </trkpt>
      <trkpt lat="43.0255" lon="0.5677">
        <ele>538.213993</ele>
        <time>2023-09-24T08:31:31.203Z</time>
      </trkpt>
      <trkpt lat="43.02547" lon="0.56755">
        <ele>539.406401</ele>
        <time>2023-09-24T08:31:35.236Z</time>
      </trkpt>
      <trkpt lat="43.02549" lon="0.56742">
        <ele>540.430418</ele>
        <time>2023-09-24T08:31:39.185Z</time>
      </trkpt>
      <trkpt lat="43.02554" lon="0.56731">
        <ele>541.462349</ele>
        <time>2023-09-24T08:31:43.203Z</time>
      </trkpt>
      <trkpt lat="43.02561" lon="0.56721">
        <ele>542.459273</ele>
        <time>2023-09-24T08:31:48.202Z</time>
      </trkpt>
      <trkpt lat="43.02565" lon="0.56709">
        <ele>543.508785</ele>
        <time>2023-09-24T08:31:54.193Z</time>
      </trkpt>
      <trkpt lat="43.02568" lon="0.56697">
        <ele>544.50699</ele>
        <time>2023-09-24T08:31:59.202Z</time>
      </trkpt>
      <trkpt lat="43.02571" lon="0.56684">
        <ele>545.54086</ele>
        <time>2023-09-24T08:32:04.205Z</time>
      </trkpt>
      <trkpt lat="43.02575" lon="0.56671">
        <ele>546.64258</ele>
        <time>2023-09-24T08:32:10.201Z</time>
      </trkpt>
      <trkpt lat="43.02583" lon="0.56677">
        <ele>547.594556</ele>
        <time>2023-09-24T08:32:20.198Z</time>
      </trkpt>
      <trkpt lat="43.02584" lon="0.5669">
        <ele>548.560642</ele>
        <time>2023-09-24T08:32:28.199Z</time>
      </trkpt>
      <trkpt lat="43.02584" lon="0.56703">
        <ele>549.584473</ele>
        <time>2023-09-24T08:32:37.193Z</time>
      </trkpt>
      <trkpt lat="43.02586" lon="0.56716">
        <ele>550.600975</ele>
        <time>2023-09-24T08:32:42.202Z</time>
      </trkpt>
      <trkpt lat="43.02592" lon="0.56728">
        <ele>551.630414</ele>
        <time>2023-09-24T08:32:47.212Z</time>
      </trkpt>
      <trkpt lat="43.02599" lon="0.56719">
        <ele>552.536955</ele>
        <time>2023-09-24T08:32:54.207Z</time>
      </trkpt>
      <trkpt lat="43.02596" lon="0.56706">
        <ele>553.523515</ele>
        <time>2023-09-24T08:33:01.223Z</time>
      </trkpt>
      <trkpt lat="43.02595" lon="0.56692">
        <ele>554.539557</ele>
        <time>2023-09-24T08:33:07.205Z</time>
      </trkpt>
      <trkpt lat="43.02595" lon="0.56677">
        <ele>555.606542</ele>
        <time>2023-09-24T08:33:13.211Z</time>
      </trkpt>
      <trkpt lat="43.02598" lon="0.56664">
        <ele>556.611789</ele>
        <time>2023-09-24T08:33:18.198Z</time>
      </trkpt>
      <trkpt lat="43.02605" lon="0.56653">
        <ele>557.690481</ele>
        <time>2023-09-24T08:33:23.211Z</time>
      </trkpt>
      <trkpt lat="43.02612" lon="0.56644">
        <ele>558.685634</ele>
        <time>2023-09-24T08:33:27.223Z</time>
      </trkpt>
      <trkpt lat="43.02621" lon="0.56636">
        <ele>559.672228</ele>
        <time>2023-09-24T08:33:31.196Z</time>
      </trkpt>
      <trkpt lat="43.02629" lon="0.56628">
        <ele>560.698141</ele>
        <time>2023-09-24T08:33:35.201Z</time>
      </trkpt>
      <trkpt lat="43.02634" lon="0.56617">
        <ele>561.664866</ele>
        <time>2023-09-24T08:33:39.207Z</time>
      </trkpt>
      <trkpt lat="43.0264" lon="0.56606">
        <ele>562.589764</ele>
        <time>2023-09-24T08:33:43.197Z</time>
      </trkpt>
      <trkpt lat="43.02644" lon="0.56595">
        <ele>563.517446</ele>
        <time>2023-09-24T08:33:48.204Z</time>
      </trkpt>
      <trkpt lat="43.02647" lon="0.56582">
        <ele>564.485139</ele>
        <time>2023-09-24T08:33:54.200Z</time>
      </trkpt>
      <trkpt lat="43.02638" lon="0.56576">
        <ele>565.429803</ele>
        <time>2023-09-24T08:34:34.233Z</time>
      </trkpt>
      <trkpt lat="43.02626" lon="0.56574">
        <ele>566.627387</ele>
        <time>2023-09-24T08:34:38.215Z</time>
      </trkpt>
      <trkpt lat="43.02617" lon="0.56572">
        <ele>567.557968</ele>
        <time>2023-09-24T08:34:41.206Z</time>
      </trkpt>
      <trkpt lat="43.02608" lon="0.5657">
        <ele>568.461163</ele>
        <time>2023-09-24T08:34:44.200Z</time>
      </trkpt>
      <trkpt lat="43.02599" lon="0.56569">
        <ele>569.364296</ele>
        <time>2023-09-24T08:34:47.192Z</time>
      </trkpt>
      <trkpt lat="43.02588" lon="0.56563">
        <ele>570.3893</ele>
        <time>2023-09-24T08:34:51.212Z</time>
      </trkpt>
      <trkpt lat="43.0258" lon="0.56554">
        <ele>571.35131</ele>
        <time>2023-09-24T08:34:55.225Z</time>
      </trkpt>
      <trkpt lat="43.02576" lon="0.5654">
        <ele>572.376345</ele>
        <time>2023-09-24T08:34:59.205Z</time>
      </trkpt>
      <trkpt lat="43.02573" lon="0.56526">
        <ele>573.351745</ele>
        <time>2023-09-24T08:35:03.202Z</time>
      </trkpt>
      <trkpt lat="43.0257" lon="0.56512">
        <ele>574.26483</ele>
        <time>2023-09-24T08:35:07.209Z</time>
      </trkpt>
      <trkpt lat="43.02567" lon="0.56499">
        <ele>575.170218</ele>
        <time>2023-09-24T08:35:11.206Z</time>
      </trkpt>
      <trkpt lat="43.02556" lon="0.56495">
        <ele>576.168435</ele>
        <time>2023-09-24T08:35:34.218Z</time>
      </trkpt>
      <trkpt lat="43.02546" lon="0.56509">
        <ele>577.485393</ele>
        <time>2023-09-24T08:37:24.210Z</time>
      </trkpt>
      <trkpt lat="43.0254" lon="0.56522">
        <ele>578.467919</ele>
        <time>2023-09-24T08:37:47.224Z</time>
      </trkpt>
      <trkpt lat="43.02535" lon="0.56534">
        <ele>579.42151</ele>
        <time>2023-09-24T08:37:53.204Z</time>
      </trkpt>
      <trkpt lat="43.02519" lon="0.56547">
        <ele>581.121572</ele>
        <time>2023-09-24T08:38:09.212Z</time>
      </trkpt>
      <trkpt lat="43.0251" lon="0.56558">
        <ele>582.153098</ele>
        <time>2023-09-24T08:38:13.193Z</time>
      </trkpt>
      <trkpt lat="43.02502" lon="0.56567">
        <ele>583.096649</ele>
        <time>2023-09-24T08:38:17.237Z</time>
      </trkpt>
      <trkpt lat="43.02495" lon="0.56576">
        <ele>584.009708</ele>
        <time>2023-09-24T08:38:21.199Z</time>
      </trkpt>
      <trkpt lat="43.02487" lon="0.56583">
        <ele>584.862414</ele>
        <time>2023-09-24T08:38:25.198Z</time>
      </trkpt>
      <trkpt lat="43.02477" lon="0.56591">
        <ele>586.024495</ele>
        <time>2023-09-24T08:38:29.203Z</time>
      </trkpt>
      <trkpt lat="43.0247" lon="0.56599">
        <ele>587.549653</ele>
        <time>2023-09-24T08:38:32.199Z</time>
      </trkpt>
      <trkpt lat="43.02464" lon="0.56611">
        <ele>589.121839</ele>
        <time>2023-09-24T08:38:36.197Z</time>
      </trkpt>
      <trkpt lat="43.02461" lon="0.56623">
        <ele>590.557834</ele>
        <time>2023-09-24T08:38:42.193Z</time>
      </trkpt>
      <trkpt lat="43.02455" lon="0.56632">
        <ele>591.969595</ele>
        <time>2023-09-24T08:38:54.171Z</time>
      </trkpt>
      <trkpt lat="43.02447" lon="0.56639">
        <ele>593.371172</ele>
        <time>2023-09-24T08:39:02.211Z</time>
      </trkpt>
      <trkpt lat="43.0244" lon="0.56648">
        <ele>594.888319</ele>
        <time>2023-09-24T08:39:11.199Z</time>
      </trkpt>
      <trkpt lat="43.02432" lon="0.56657">
        <ele>596.566362</ele>
        <time>2023-09-24T08:39:23.193Z</time>
      </trkpt>
      <trkpt lat="43.02425" lon="0.56666">
        <ele>598.04246</ele>
        <time>2023-09-24T08:39:32.190Z</time>
      </trkpt>
      <trkpt lat="43.02417" lon="0.56675">
        <ele>599.595744</ele>
        <time>2023-09-24T08:39:40.193Z</time>
      </trkpt>
      <trkpt lat="43.0241" lon="0.56684">
        <ele>601.067194</ele>
        <time>2023-09-24T08:39:46.200Z</time>
      </trkpt>
      <trkpt lat="43.02404" lon="0.56696">
        <ele>602.661596</ele>
        <time>2023-09-24T08:39:53.214Z</time>
      </trkpt>
      <trkpt lat="43.02398" lon="0.56704">
        <ele>604.060636</ele>
        <time>2023-09-24T08:40:04.195Z</time>
      </trkpt>
      <trkpt lat="43.02388" lon="0.56708">
        <ele>605.542866</ele>
        <time>2023-09-24T08:40:15.206Z</time>
      </trkpt>
      <trkpt lat="43.02378" lon="0.56708">
        <ele>607.209823</ele>
        <time>2023-09-24T08:40:28.204Z</time>
      </trkpt>
      <trkpt lat="43.02368" lon="0.56706">
        <ele>608.7273</ele>
        <time>2023-09-24T08:40:36.211Z</time>
      </trkpt>
      <trkpt lat="43.02359" lon="0.567">
        <ele>610.239227</ele>
        <time>2023-09-24T08:40:44.193Z</time>
      </trkpt>
      <trkpt lat="43.02351" lon="0.56695">
        <ele>611.676289</ele>
        <time>2023-09-24T08:40:55.194Z</time>
      </trkpt>
      <trkpt lat="43.02341" lon="0.56694">
        <ele>613.099026</ele>
        <time>2023-09-24T08:41:04.205Z</time>
      </trkpt>
      <trkpt lat="43.02334" lon="0.56704">
        <ele>615.345915</ele>
        <time>2023-09-24T08:41:11.194Z</time>
      </trkpt>
      <trkpt lat="43.02329" lon="0.56716">
        <ele>617.682132</ele>
        <time>2023-09-24T08:41:19.198Z</time>
      </trkpt>
      <trkpt lat="43.02323" lon="0.56725">
        <ele>619.810836</ele>
        <time>2023-09-24T08:41:30.211Z</time>
      </trkpt>
      <trkpt lat="43.02313" lon="0.56725">
        <ele>622.037668</ele>
        <time>2023-09-24T08:41:40.200Z</time>
      </trkpt>
      <trkpt lat="43.02303" lon="0.56729">
        <ele>624.365253</ele>
        <time>2023-09-24T08:41:54.223Z</time>
      </trkpt>
      <trkpt lat="43.02293" lon="0.56728">
        <ele>626.913788</ele>
        <time>2023-09-24T08:42:06.209Z</time>
      </trkpt>
      <trkpt lat="43.02283" lon="0.56724">
        <ele>629.155493</ele>
        <time>2023-09-24T08:42:17.215Z</time>
      </trkpt>
      <trkpt lat="43.02275" lon="0.56719">
        <ele>631.288341</ele>
        <time>2023-09-24T08:42:34.217Z</time>
      </trkpt>
      <trkpt lat="43.02265" lon="0.56717">
        <ele>633.606986</ele>
        <time>2023-09-24T08:42:43.221Z</time>
      </trkpt>
      <trkpt lat="43.02256" lon="0.56715">
        <ele>635.69157</ele>
        <time>2023-09-24T08:42:53.226Z</time>
      </trkpt>
      <trkpt lat="43.02247" lon="0.56714">
        <ele>637.850229</ele>
        <time>2023-09-24T08:43:05.241Z</time>
      </trkpt>
      <trkpt lat="43.02238" lon="0.5671">
        <ele>640.084154</ele>
        <time>2023-09-24T08:43:17.231Z</time>
      </trkpt>
      <trkpt lat="43.02228" lon="0.56713">
        <ele>642.42888</ele>
        <time>2023-09-24T08:43:31.215Z</time>
      </trkpt>
      <trkpt lat="43.02218" lon="0.56714">
        <ele>644.749777</ele>
        <time>2023-09-24T08:43:39.216Z</time>
      </trkpt>
      <trkpt lat="43.02208" lon="0.56711">
        <ele>646.988524</ele>
        <time>2023-09-24T08:43:46.215Z</time>
      </trkpt>
      <trkpt lat="43.02204" lon="0.56699">
        <ele>649.163294</ele>
        <time>2023-09-24T08:43:53.212Z</time>
      </trkpt>
      <trkpt lat="43.02203" lon="0.56687">
        <ele>651.285893</ele>
        <time>2023-09-24T08:43:59.225Z</time>
      </trkpt>
      <trkpt lat="43.022" lon="0.56673">
        <ele>653.67605</ele>
        <time>2023-09-24T08:44:05.219Z</time>
      </trkpt>
      <trkpt lat="43.02197" lon="0.56661">
        <ele>655.857738</ele>
        <time>2023-09-24T08:44:12.218Z</time>
      </trkpt>
      <trkpt lat="43.02194" lon="0.56648">
        <ele>658.502294</ele>
        <time>2023-09-24T08:44:19.213Z</time>
      </trkpt>
      <trkpt lat="43.02191" lon="0.56635">
        <ele>661.045048</ele>
        <time>2023-09-24T08:44:27.254Z</time>
      </trkpt>
      <trkpt lat="43.02187" lon="0.56622">
        <ele>663.762973</ele>
        <time>2023-09-24T08:44:35.220Z</time>
      </trkpt>
      <trkpt lat="43.02185" lon="0.5661">
        <ele>666.096252</ele>
        <time>2023-09-24T08:44:43.219Z</time>
      </trkpt>
      <trkpt lat="43.02184" lon="0.56595">
        <ele>668.867163</ele>
        <time>2023-09-24T08:44:54.230Z</time>
      </trkpt>
      <trkpt lat="43.02181" lon="0.56581">
        <ele>671.634938</ele>
        <time>2023-09-24T08:45:06.211Z</time>
      </trkpt>
      <trkpt lat="43.02177" lon="0.56569">
        <ele>674.103446</ele>
        <time>2023-09-24T08:45:15.220Z</time>
      </trkpt>
      <trkpt lat="43.02174" lon="0.56557">
        <ele>676.632765</ele>
        <time>2023-09-24T08:45:26.211Z</time>
      </trkpt>
      <trkpt lat="43.0217" lon="0.56545">
        <ele>678.983082</ele>
        <time>2023-09-24T08:45:37.224Z</time>
      </trkpt>
      <trkpt lat="43.02168" lon="0.56533">
        <ele>681.400438</ele>
        <time>2023-09-24T08:45:47.248Z</time>
      </trkpt>
      <trkpt lat="43.02164" lon="0.56521">
        <ele>683.885247</ele>
        <time>2023-09-24T08:46:01.220Z</time>
      </trkpt>
      <trkpt lat="43.02159" lon="0.5651">
        <ele>686.265291</ele>
        <time>2023-09-24T08:46:10.244Z</time>
      </trkpt>
      <trkpt lat="43.02157" lon="0.56498">
        <ele>688.676425</ele>
        <time>2023-09-24T08:46:23.220Z</time>
      </trkpt>
      <trkpt lat="43.02159" lon="0.56486">
        <ele>691.032508</ele>
        <time>2023-09-24T08:46:37.220Z</time>
      </trkpt>
      <trkpt lat="43.02158" lon="0.56474">
        <ele>693.363768</ele>
        <time>2023-09-24T08:46:47.201Z</time>
      </trkpt>
      <trkpt lat="43.02155" lon="0.5646">
        <ele>696.123533</ele>
        <time>2023-09-24T08:47:01.195Z</time>
      </trkpt>
      <trkpt lat="43.0215" lon="0.56449">
        <ele>698.5711</ele>
        <time>2023-09-24T08:47:11.190Z</time>
      </trkpt>
      <trkpt lat="43.02147" lon="0.56437">
        <ele>700.96934</ele>
        <time>2023-09-24T08:47:22.199Z</time>
      </trkpt>
      <trkpt lat="43.02144" lon="0.56424">
        <ele>704.018084</ele>
        <time>2023-09-24T08:47:37.217Z</time>
      </trkpt>
      <trkpt lat="43.02141" lon="0.56412">
        <ele>707.016535</ele>
        <time>2023-09-24T08:47:50.173Z</time>
      </trkpt>
      <trkpt lat="43.0214" lon="0.56399">
        <ele>709.989551</ele>
        <time>2023-09-24T08:48:06.198Z</time>
      </trkpt>
      <trkpt lat="43.02137" lon="0.56388">
        <ele>712.910436</ele>
        <time>2023-09-24T08:48:16.202Z</time>
      </trkpt>
      <trkpt lat="43.02133" lon="0.56376">
        <ele>716.091303</ele>
        <time>2023-09-24T08:48:27.220Z</time>
      </trkpt>
      <trkpt lat="43.02129" lon="0.56364">
        <ele>719.080948</ele>
        <time>2023-09-24T08:48:42.191Z</time>
      </trkpt>
      <trkpt lat="43.02125" lon="0.56353">
        <ele>722.107864</ele>
        <time>2023-09-24T08:48:54.195Z</time>
      </trkpt>
      <trkpt lat="43.0212" lon="0.5634">
        <ele>725.347377</ele>
        <time>2023-09-24T08:49:11.204Z</time>
      </trkpt>
      <trkpt lat="43.02114" lon="0.5633">
        <ele>728.383892</ele>
        <time>2023-09-24T08:49:26.191Z</time>
      </trkpt>
      <trkpt lat="43.0211" lon="0.56319">
        <ele>731.473642</ele>
        <time>2023-09-24T08:49:39.196Z</time>
      </trkpt>
      <trkpt lat="43.02105" lon="0.56307">
        <ele>734.572945</ele>
        <time>2023-09-24T08:49:50.199Z</time>
      </trkpt>
      <trkpt lat="43.02101" lon="0.56297">
        <ele>737.507721</ele>
        <time>2023-09-24T08:49:59.193Z</time>
      </trkpt>
      <trkpt lat="43.02096" lon="0.56285">
        <ele>740.65914</ele>
        <time>2023-09-24T08:50:14.190Z</time>
      </trkpt>
      <trkpt lat="43.02092" lon="0.56274">
        <ele>743.587482</ele>
        <time>2023-09-24T08:50:28.200Z</time>
      </trkpt>
      <trkpt lat="43.02086" lon="0.56264">
        <ele>746.641302</ele>
        <time>2023-09-24T08:50:43.207Z</time>
      </trkpt>
      <trkpt lat="43.02081" lon="0.56253">
        <ele>749.65718</ele>
        <time>2023-09-24T08:50:55.212Z</time>
      </trkpt>
      <trkpt lat="43.02076" lon="0.56242">
        <ele>752.743136</ele>
        <time>2023-09-24T08:51:06.197Z</time>
      </trkpt>
      <trkpt lat="43.0207" lon="0.56232">
        <ele>755.701512</ele>
        <time>2023-09-24T08:51:23.205Z</time>
      </trkpt>
      <trkpt lat="43.02065" lon="0.56221">
        <ele>758.726826</ele>
        <time>2023-09-24T08:51:39.207Z</time>
      </trkpt>
      <trkpt lat="43.0206" lon="0.56211">
        <ele>761.570699</ele>
        <time>2023-09-24T08:51:53.205Z</time>
      </trkpt>
      <trkpt lat="43.02056" lon="0.56198">
        <ele>764.731604</ele>
        <time>2023-09-24T08:52:11.214Z</time>
      </trkpt>
      <trkpt lat="43.02047" lon="0.56191">
        <ele>768.018464</ele>
        <time>2023-09-24T08:52:31.195Z</time>
      </trkpt>
      <trkpt lat="43.02039" lon="0.56182">
        <ele>771.278637</ele>
        <time>2023-09-24T08:52:51.206Z</time>
      </trkpt>
      <trkpt lat="43.02029" lon="0.56176">
        <ele>774.480919</ele>
        <time>2023-09-24T08:53:20.193Z</time>
      </trkpt>
      <trkpt lat="43.02023" lon="0.56166">
        <ele>777.418004</ele>
        <time>2023-09-24T08:53:34.198Z</time>
      </trkpt>
      <trkpt lat="43.02018" lon="0.56155">
        <ele>780.350095</ele>
        <time>2023-09-24T08:53:58.200Z</time>
      </trkpt>
      <trkpt lat="43.0201" lon="0.56146">
        <ele>783.576019</ele>
        <time>2023-09-24T08:54:16.200Z</time>
      </trkpt>
      <trkpt lat="43.02001" lon="0.5614">
        <ele>786.640945</ele>
        <time>2023-09-24T08:54:27.206Z</time>
      </trkpt>
      <trkpt lat="43.02" lon="0.56125">
        <ele>789.94799</ele>
        <time>2023-09-24T08:54:43.210Z</time>
      </trkpt>
      <trkpt lat="43.01996" lon="0.56113">
        <ele>793.01033</ele>
        <time>2023-09-24T08:54:55.215Z</time>
      </trkpt>
      <trkpt lat="43.01988" lon="0.56105">
        <ele>796.013884</ele>
        <time>2023-09-24T08:55:07.200Z</time>
      </trkpt>
      <trkpt lat="43.01982" lon="0.56096">
        <ele>798.801951</ele>
        <time>2023-09-24T08:55:20.217Z</time>
      </trkpt>
      <trkpt lat="43.01977" lon="0.56085">
        <ele>801.717826</ele>
        <time>2023-09-24T08:55:28.200Z</time>
      </trkpt>
      <trkpt lat="43.01975" lon="0.56072">
        <ele>804.813775</ele>
        <time>2023-09-24T08:55:35.207Z</time>
      </trkpt>
      <trkpt lat="43.01973" lon="0.56059">
        <ele>807.837038</ele>
        <time>2023-09-24T08:55:43.205Z</time>
      </trkpt>
      <trkpt lat="43.01973" lon="0.56045">
        <ele>810.871058</ele>
        <time>2023-09-24T08:55:53.205Z</time>
      </trkpt>
      <trkpt lat="43.01972" lon="0.56032">
        <ele>813.878519</ele>
        <time>2023-09-24T08:56:04.236Z</time>
      </trkpt>
      <trkpt lat="43.0197" lon="0.5602">
        <ele>816.379726</ele>
        <time>2023-09-24T08:56:13.210Z</time>
      </trkpt>
      <trkpt lat="43.01967" lon="0.56006">
        <ele>818.674315</ele>
        <time>2023-09-24T08:56:21.202Z</time>
      </trkpt>
      <trkpt lat="43.01965" lon="0.55995">
        <ele>820.711466</ele>
        <time>2023-09-24T08:56:27.204Z</time>
      </trkpt>
      <trkpt lat="43.01962" lon="0.55983">
        <ele>822.748958</ele>
        <time>2023-09-24T08:56:34.197Z</time>
      </trkpt>
      <trkpt lat="43.0196" lon="0.5597">
        <ele>824.962608</ele>
        <time>2023-09-24T08:56:46.181Z</time>
      </trkpt>
      <trkpt lat="43.01959" lon="0.55957">
        <ele>827.076662</ele>
        <time>2023-09-24T08:56:59.210Z</time>
      </trkpt>
      <trkpt lat="43.01957" lon="0.55944">
        <ele>829.284182</ele>
        <time>2023-09-24T08:57:12.196Z</time>
      </trkpt>
      <trkpt lat="43.01955" lon="0.55932">
        <ele>831.358536</ele>
        <time>2023-09-24T08:57:24.215Z</time>
      </trkpt>
      <trkpt lat="43.01953" lon="0.55918">
        <ele>833.625795</ele>
        <time>2023-09-24T08:57:33.216Z</time>
      </trkpt>
      <trkpt lat="43.01948" lon="0.55907">
        <ele>835.797878</ele>
        <time>2023-09-24T08:58:20.199Z</time>
      </trkpt>
      <trkpt lat="43.01946" lon="0.55894">
        <ele>837.963305</ele>
        <time>2023-09-24T08:58:33.244Z</time>
      </trkpt>
      <trkpt lat="43.01942" lon="0.55883">
        <ele>840.056987</ele>
        <time>2023-09-24T08:58:51.198Z</time>
      </trkpt>
      <trkpt lat="43.01939" lon="0.55871">
        <ele>842.140286</ele>
        <time>2023-09-24T08:59:03.211Z</time>
      </trkpt>
      <trkpt lat="43.01934" lon="0.5586">
        <ele>844.192042</ele>
        <time>2023-09-24T08:59:14.196Z</time>
      </trkpt>
      <trkpt lat="43.01929" lon="0.5585">
        <ele>846.277305</ele>
        <time>2023-09-24T08:59:26.203Z</time>
      </trkpt>
      <trkpt lat="43.01924" lon="0.55839">
        <ele>848.371677</ele>
        <time>2023-09-24T08:59:38.195Z</time>
      </trkpt>
      <trkpt lat="43.01919" lon="0.55828">
        <ele>850.463479</ele>
        <time>2023-09-24T08:59:51.196Z</time>
      </trkpt>
      <trkpt lat="43.01913" lon="0.55817">
        <ele>852.938466</ele>
        <time>2023-09-24T09:00:05.211Z</time>
      </trkpt>
      <trkpt lat="43.01906" lon="0.55808">
        <ele>855.057429</ele>
        <time>2023-09-24T09:00:18.195Z</time>
      </trkpt>
      <trkpt lat="43.01898" lon="0.55799">
        <ele>856.242737</ele>
        <time>2023-09-24T09:00:30.200Z</time>
      </trkpt>
      <trkpt lat="43.01891" lon="0.55789">
        <ele>856.428909</ele>
        <time>2023-09-24T09:00:37.218Z</time>
      </trkpt>
      <trkpt lat="43.01885" lon="0.55779">
        <ele>856.599943</ele>
        <time>2023-09-24T09:00:49.201Z</time>
      </trkpt>
      <trkpt lat="43.01894" lon="0.55773">
        <ele>856.785924</ele>
        <time>2023-09-24T09:01:09.198Z</time>
      </trkpt>
      <trkpt lat="43.01902" lon="0.55767">
        <ele>856.956428</ele>
        <time>2023-09-24T09:01:20.199Z</time>
      </trkpt>
      <trkpt lat="43.01907" lon="0.55755">
        <ele>857.150009</ele>
        <time>2023-09-24T09:01:36.223Z</time>
      </trkpt>
      <trkpt lat="43.01893" lon="0.55765">
        <ele>857.442402</ele>
        <time>2023-09-24T09:04:31.215Z</time>
      </trkpt>
      <trkpt lat="43.01884" lon="0.55764">
        <ele>857.611941</ele>
        <time>2023-09-24T09:04:33.192Z</time>
      </trkpt>
      <trkpt lat="43.0187" lon="0.55761">
        <ele>857.861694</ele>
        <time>2023-09-24T09:04:35.206Z</time>
      </trkpt>
      <trkpt lat="43.0186" lon="0.55759">
        <ele>858.048204</ele>
        <time>2023-09-24T09:04:37.214Z</time>
      </trkpt>
      <trkpt lat="43.01851" lon="0.55757">
        <ele>858.216749</ele>
        <time>2023-09-24T09:04:41.200Z</time>
      </trkpt>
      <trkpt lat="43.01841" lon="0.55752">
        <ele>858.409004</ele>
        <time>2023-09-24T09:04:49.200Z</time>
      </trkpt>
      <trkpt lat="43.01832" lon="0.55746">
        <ele>858.591201</ele>
        <time>2023-09-24T09:04:54.214Z</time>
      </trkpt>
      <trkpt lat="43.01824" lon="0.55739">
        <ele>858.770331</ele>
        <time>2023-09-24T09:04:58.237Z</time>
      </trkpt>
      <trkpt lat="43.01815" lon="0.55727">
        <ele>858.998266</ele>
        <time>2023-09-24T09:05:02.206Z</time>
      </trkpt>
      <trkpt lat="43.01809" lon="0.55715">
        <ele>859.201027</ele>
        <time>2023-09-24T09:05:05.202Z</time>
      </trkpt>
      <trkpt lat="43.01802" lon="0.55705">
        <ele>859.386686</ele>
        <time>2023-09-24T09:05:09.200Z</time>
      </trkpt>
      <trkpt lat="43.01786" lon="0.557">
        <ele>856.171975</ele>
        <time>2023-09-24T09:05:34.202Z</time>
      </trkpt>
      <trkpt lat="43.01753" lon="0.55698">
        <ele>847.741208</ele>
        <time>2023-09-24T09:06:11.206Z</time>
      </trkpt>
      <trkpt lat="43.0174" lon="0.55697">
        <ele>844.60867</ele>
        <time>2023-09-24T09:06:20.199Z</time>
      </trkpt>
      <trkpt lat="43.01732" lon="0.55693">
        <ele>842.315213</ele>
        <time>2023-09-24T09:06:25.201Z</time>
      </trkpt>
      <trkpt lat="43.01722" lon="0.55692">
        <ele>839.765132</ele>
        <time>2023-09-24T09:06:31.223Z</time>
      </trkpt>
      <trkpt lat="43.01712" lon="0.5569">
        <ele>837.165581</ele>
        <time>2023-09-24T09:06:37.206Z</time>
      </trkpt>
      <trkpt lat="43.01702" lon="0.5569">
        <ele>834.722716</ele>
        <time>2023-09-24T09:06:42.202Z</time>
      </trkpt>
      <trkpt lat="43.01692" lon="0.55686">
        <ele>831.971331</ele>
        <time>2023-09-24T09:06:48.196Z</time>
      </trkpt>
      <trkpt lat="43.01684" lon="0.55678">
        <ele>829.418064</ele>
        <time>2023-09-24T09:06:52.235Z</time>
      </trkpt>
      <trkpt lat="43.01677" lon="0.55668">
        <ele>826.859928</ele>
        <time>2023-09-24T09:06:55.193Z</time>
      </trkpt>
      <trkpt lat="43.01672" lon="0.55651">
        <ele>823.59823</ele>
        <time>2023-09-24T09:06:58.184Z</time>
      </trkpt>
      <trkpt lat="43.01668" lon="0.55638">
        <ele>820.95073</ele>
        <time>2023-09-24T09:07:00.199Z</time>
      </trkpt>
      <trkpt lat="43.01664" lon="0.55625">
        <ele>818.204031</ele>
        <time>2023-09-24T09:07:02.191Z</time>
      </trkpt>
      <trkpt lat="43.01661" lon="0.55612">
        <ele>815.761219</ele>
        <time>2023-09-24T09:07:04.208Z</time>
      </trkpt>
      <trkpt lat="43.01656" lon="0.55596">
        <ele>813.356642</ele>
        <time>2023-09-24T09:07:07.196Z</time>
      </trkpt>
      <trkpt lat="43.01655" lon="0.55582">
        <ele>812.698215</ele>
        <time>2023-09-24T09:07:09.225Z</time>
      </trkpt>
      <trkpt lat="43.01651" lon="0.5557">
        <ele>812.080472</ele>
        <time>2023-09-24T09:07:11.201Z</time>
      </trkpt>
      <trkpt lat="43.01648" lon="0.55557">
        <ele>811.455441</ele>
        <time>2023-09-24T09:07:13.210Z</time>
      </trkpt>
      <trkpt lat="43.01647" lon="0.5554">
        <ele>810.612343</ele>
        <time>2023-09-24T09:07:16.202Z</time>
      </trkpt>
      <trkpt lat="43.01649" lon="0.55527">
        <ele>809.995498</ele>
        <time>2023-09-24T09:07:19.205Z</time>
      </trkpt>
      <trkpt lat="43.01652" lon="0.55514">
        <ele>809.345781</ele>
        <time>2023-09-24T09:07:24.189Z</time>
      </trkpt>
      <trkpt lat="43.01649" lon="0.555">
        <ele>808.677267</ele>
        <time>2023-09-24T09:07:28.199Z</time>
      </trkpt>
      <trkpt lat="43.01646" lon="0.55488">
        <ele>808.03715</ele>
        <time>2023-09-24T09:07:32.224Z</time>
      </trkpt>
      <trkpt lat="43.0164" lon="0.55476">
        <ele>807.382209</ele>
        <time>2023-09-24T09:07:38.226Z</time>
      </trkpt>
      <trkpt lat="43.01635" lon="0.55464">
        <ele>806.71242</ele>
        <time>2023-09-24T09:07:47.211Z</time>
      </trkpt>
      <trkpt lat="43.01631" lon="0.55453">
        <ele>806.117497</ele>
        <time>2023-09-24T09:07:53.195Z</time>
      </trkpt>
      <trkpt lat="43.01627" lon="0.5544">
        <ele>805.45946</ele>
        <time>2023-09-24T09:07:58.217Z</time>
      </trkpt>
      <trkpt lat="43.0163" lon="0.55427">
        <ele>804.808081</ele>
        <time>2023-09-24T09:08:04.205Z</time>
      </trkpt>
      <trkpt lat="43.01631" lon="0.55413">
        <ele>804.155187</ele>
        <time>2023-09-24T09:08:09.199Z</time>
      </trkpt>
      <trkpt lat="43.01634" lon="0.554">
        <ele>803.520771</ele>
        <time>2023-09-24T09:08:15.200Z</time>
      </trkpt>
      <trkpt lat="43.01635" lon="0.55386">
        <ele>802.838587</ele>
        <time>2023-09-24T09:08:22.199Z</time>
      </trkpt>
      <trkpt lat="43.0164" lon="0.55375">
        <ele>802.20851</ele>
        <time>2023-09-24T09:08:29.207Z</time>
      </trkpt>
      <trkpt lat="43.01644" lon="0.55362">
        <ele>801.548331</ele>
        <time>2023-09-24T09:08:35.204Z</time>
      </trkpt>
      <trkpt lat="43.01652" lon="0.55355">
        <ele>800.881414</ele>
        <time>2023-09-24T09:08:41.205Z</time>
      </trkpt>
      <trkpt lat="43.01661" lon="0.55349">
        <ele>800.239553</ele>
        <time>2023-09-24T09:08:45.201Z</time>
      </trkpt>
      <trkpt lat="43.01669" lon="0.55343">
        <ele>799.614393</ele>
        <time>2023-09-24T09:08:48.201Z</time>
      </trkpt>
      <trkpt lat="43.01677" lon="0.55333">
        <ele>798.884787</ele>
        <time>2023-09-24T09:08:51.217Z</time>
      </trkpt>
      <trkpt lat="43.01683" lon="0.55321">
        <ele>798.142544</ele>
        <time>2023-09-24T09:08:55.220Z</time>
      </trkpt>
      <trkpt lat="43.01688" lon="0.55305">
        <ele>797.310451</ele>
        <time>2023-09-24T09:09:02.200Z</time>
      </trkpt>
      <trkpt lat="43.01694" lon="0.55292">
        <ele>796.5696</ele>
        <time>2023-09-24T09:09:08.191Z</time>
      </trkpt>
      <trkpt lat="43.01701" lon="0.55279">
        <ele>795.739344</ele>
        <time>2023-09-24T09:09:11.222Z</time>
      </trkpt>
      <trkpt lat="43.01707" lon="0.55269">
        <ele>795.106933</ele>
        <time>2023-09-24T09:09:14.191Z</time>
      </trkpt>
      <trkpt lat="43.01716" lon="0.55258">
        <ele>794.318638</ele>
        <time>2023-09-24T09:09:18.195Z</time>
      </trkpt>
      <trkpt lat="43.01722" lon="0.55248">
        <ele>793.658603</ele>
        <time>2023-09-24T09:09:21.189Z</time>
      </trkpt>
      <trkpt lat="43.01732" lon="0.5524">
        <ele>792.851073</ele>
        <time>2023-09-24T09:09:25.210Z</time>
      </trkpt>
      <trkpt lat="43.01742" lon="0.55233">
        <ele>792.120786</ele>
        <time>2023-09-24T09:09:28.200Z</time>
      </trkpt>
      <trkpt lat="43.01753" lon="0.55226">
        <ele>791.314877</ele>
        <time>2023-09-24T09:09:31.202Z</time>
      </trkpt>
      <trkpt lat="43.01763" lon="0.55223">
        <ele>790.565057</ele>
        <time>2023-09-24T09:09:35.183Z</time>
      </trkpt>
      <trkpt lat="43.01773" lon="0.55218">
        <ele>789.874014</ele>
        <time>2023-09-24T09:09:39.190Z</time>
      </trkpt>
      <trkpt lat="43.0178" lon="0.55209">
        <ele>788.707467</ele>
        <time>2023-09-24T09:09:42.194Z</time>
      </trkpt>
      <trkpt lat="43.01788" lon="0.552">
        <ele>787.300069</ele>
        <time>2023-09-24T09:09:45.190Z</time>
      </trkpt>
      <trkpt lat="43.01798" lon="0.55186">
        <ele>785.344467</ele>
        <time>2023-09-24T09:09:48.202Z</time>
      </trkpt>
      <trkpt lat="43.01806" lon="0.55174">
        <ele>783.898635</ele>
        <time>2023-09-24T09:09:50.187Z</time>
      </trkpt>
      <trkpt lat="43.01812" lon="0.55162">
        <ele>782.381807</ele>
        <time>2023-09-24T09:09:53.203Z</time>
      </trkpt>
      <trkpt lat="43.01816" lon="0.55146">
        <ele>780.790064</ele>
        <time>2023-09-24T09:09:57.202Z</time>
      </trkpt>
      <trkpt lat="43.01822" lon="0.55128">
        <ele>778.847824</ele>
        <time>2023-09-24T09:10:00.220Z</time>
      </trkpt>
      <trkpt lat="43.01827" lon="0.55115">
        <ele>777.486608</ele>
        <time>2023-09-24T09:10:02.211Z</time>
      </trkpt>
      <trkpt lat="43.01832" lon="0.55103">
        <ele>776.068535</ele>
        <time>2023-09-24T09:10:04.212Z</time>
      </trkpt>
      <trkpt lat="43.01837" lon="0.55091">
        <ele>774.80757</ele>
        <time>2023-09-24T09:10:06.205Z</time>
      </trkpt>
      <trkpt lat="43.01841" lon="0.55078">
        <ele>773.353103</ele>
        <time>2023-09-24T09:10:09.209Z</time>
      </trkpt>
      <trkpt lat="43.01845" lon="0.55065">
        <ele>772.005053</ele>
        <time>2023-09-24T09:10:12.210Z</time>
      </trkpt>
      <trkpt lat="43.01848" lon="0.55049">
        <ele>770.47767</ele>
        <time>2023-09-24T09:10:17.213Z</time>
      </trkpt>
      <trkpt lat="43.0185" lon="0.55035">
        <ele>769.043554</ele>
        <time>2023-09-24T09:10:21.181Z</time>
      </trkpt>
      <trkpt lat="43.01853" lon="0.5502">
        <ele>767.560091</ele>
        <time>2023-09-24T09:10:25.201Z</time>
      </trkpt>
      <trkpt lat="43.01857" lon="0.55009">
        <ele>766.338445</ele>
        <time>2023-09-24T09:10:28.189Z</time>
      </trkpt>
      <trkpt lat="43.01862" lon="0.54997">
        <ele>764.478993</ele>
        <time>2023-09-24T09:10:31.223Z</time>
      </trkpt>
      <trkpt lat="43.01863" lon="0.54984">
        <ele>762.388787</ele>
        <time>2023-09-24T09:10:36.219Z</time>
      </trkpt>
      <trkpt lat="43.01866" lon="0.54967">
        <ele>759.548552</ele>
        <time>2023-09-24T09:12:01.207Z</time>
      </trkpt>
      <trkpt lat="43.0187" lon="0.54952">
        <ele>757.056856</ele>
        <time>2023-09-24T09:12:05.203Z</time>
      </trkpt>
      <trkpt lat="43.01877" lon="0.5494">
        <ele>754.696716</ele>
        <time>2023-09-24T09:12:09.200Z</time>
      </trkpt>
      <trkpt lat="43.01883" lon="0.5493">
        <ele>752.578664</ele>
        <time>2023-09-24T09:12:13.219Z</time>
      </trkpt>
      <trkpt lat="43.01887" lon="0.54917">
        <ele>750.302967</ele>
        <time>2023-09-24T09:12:17.210Z</time>
      </trkpt>
      <trkpt lat="43.01889" lon="0.54902">
        <ele>747.939195</ele>
        <time>2023-09-24T09:12:21.209Z</time>
      </trkpt>
      <trkpt lat="43.01894" lon="0.5489">
        <ele>745.800841</ele>
        <time>2023-09-24T09:12:26.195Z</time>
      </trkpt>
      <trkpt lat="43.01901" lon="0.54882">
        <ele>743.728066</ele>
        <time>2023-09-24T09:12:37.194Z</time>
      </trkpt>
      <trkpt lat="43.01905" lon="0.5487">
        <ele>741.66201</ele>
        <time>2023-09-24T09:12:50.195Z</time>
      </trkpt>
      <trkpt lat="43.01912" lon="0.54859">
        <ele>739.366266</ele>
        <time>2023-09-24T09:12:57.202Z</time>
      </trkpt>
      <trkpt lat="43.01917" lon="0.54847">
        <ele>737.179812</ele>
        <time>2023-09-24T09:13:03.201Z</time>
      </trkpt>
      <trkpt lat="43.01925" lon="0.54838">
        <ele>734.888266</ele>
        <time>2023-09-24T09:13:09.227Z</time>
      </trkpt>
      <trkpt lat="43.01931" lon="0.54827">
        <ele>732.75929</ele>
        <time>2023-09-24T09:13:28.205Z</time>
      </trkpt>
      <trkpt lat="43.0194" lon="0.5482">
        <ele>730.563213</ele>
        <time>2023-09-24T09:13:38.191Z</time>
      </trkpt>
      <trkpt lat="43.01945" lon="0.5481">
        <ele>728.549871</ele>
        <time>2023-09-24T09:13:49.186Z</time>
      </trkpt>
      <trkpt lat="43.01954" lon="0.54793">
        <ele>724.778431</ele>
        <time>2023-09-24T09:14:17.207Z</time>
      </trkpt>
      <trkpt lat="43.01959" lon="0.54782">
        <ele>722.163431</ele>
        <time>2023-09-24T09:14:30.221Z</time>
      </trkpt>
      <trkpt lat="43.01965" lon="0.54772">
        <ele>719.590515</ele>
        <time>2023-09-24T09:14:44.193Z</time>
      </trkpt>
      <trkpt lat="43.01968" lon="0.5476">
        <ele>716.933044</ele>
        <time>2023-09-24T09:14:52.200Z</time>
      </trkpt>
      <trkpt lat="43.01968" lon="0.54748">
        <ele>714.399556</ele>
        <time>2023-09-24T09:15:02.196Z</time>
      </trkpt>
      <trkpt lat="43.01976" lon="0.54738">
        <ele>711.437123</ele>
        <time>2023-09-24T09:15:07.187Z</time>
      </trkpt>
      <trkpt lat="43.01985" lon="0.54733">
        <ele>708.867021</ele>
        <time>2023-09-24T09:15:11.186Z</time>
      </trkpt>
      <trkpt lat="43.01993" lon="0.54728">
        <ele>706.197232</ele>
        <time>2023-09-24T09:15:15.214Z</time>
      </trkpt>
      <trkpt lat="43.02001" lon="0.54719">
        <ele>703.407035</ele>
        <time>2023-09-24T09:15:21.189Z</time>
      </trkpt>
      <trkpt lat="43.02005" lon="0.54707">
        <ele>700.763953</ele>
        <time>2023-09-24T09:16:47.187Z</time>
      </trkpt>
      <trkpt lat="43.02014" lon="0.54696">
        <ele>697.337952</ele>
        <time>2023-09-24T09:17:07.210Z</time>
      </trkpt>
      <trkpt lat="43.02022" lon="0.54686">
        <ele>694.347306</ele>
        <time>2023-09-24T09:17:19.186Z</time>
      </trkpt>
      <trkpt lat="43.02028" lon="0.54676">
        <ele>691.763208</ele>
        <time>2023-09-24T09:17:27.176Z</time>
      </trkpt>
      <trkpt lat="43.02032" lon="0.54664">
        <ele>689.055004</ele>
        <time>2023-09-24T09:17:35.217Z</time>
      </trkpt>
      <trkpt lat="43.02039" lon="0.54653">
        <ele>686.112294</ele>
        <time>2023-09-24T09:17:45.197Z</time>
      </trkpt>
      <trkpt lat="43.02048" lon="0.5465">
        <ele>683.445104</ele>
        <time>2023-09-24T09:17:48.200Z</time>
      </trkpt>
      <trkpt lat="43.02057" lon="0.54647">
        <ele>680.843202</ele>
        <time>2023-09-24T09:17:51.192Z</time>
      </trkpt>
      <trkpt lat="43.02066" lon="0.54644">
        <ele>678.228498</ele>
        <time>2023-09-24T09:17:55.209Z</time>
      </trkpt>
      <trkpt lat="43.02076" lon="0.54639">
        <ele>675.641922</ele>
        <time>2023-09-24T09:18:00.214Z</time>
      </trkpt>
      <trkpt lat="43.02085" lon="0.54635">
        <ele>673.709843</ele>
        <time>2023-09-24T09:18:13.204Z</time>
      </trkpt>
      <trkpt lat="43.02094" lon="0.54629">
        <ele>671.831296</ele>
        <time>2023-09-24T09:18:24.176Z</time>
      </trkpt>
      <trkpt lat="43.02105" lon="0.54626">
        <ele>669.593053</ele>
        <time>2023-09-24T09:18:32.169Z</time>
      </trkpt>
      <trkpt lat="43.02114" lon="0.54622">
        <ele>667.786663</ele>
        <time>2023-09-24T09:18:36.189Z</time>
      </trkpt>
      <trkpt lat="43.02125" lon="0.5462">
        <ele>665.464247</ele>
        <time>2023-09-24T09:18:40.201Z</time>
      </trkpt>
      <trkpt lat="43.02135" lon="0.54618">
        <ele>663.533624</ele>
        <time>2023-09-24T09:18:46.175Z</time>
      </trkpt>
      <trkpt lat="43.02144" lon="0.54614">
        <ele>661.573068</ele>
        <time>2023-09-24T09:18:51.216Z</time>
      </trkpt>
      <trkpt lat="43.02154" lon="0.54614">
        <ele>659.762361</ele>
        <time>2023-09-24T09:18:56.197Z</time>
      </trkpt>
      <trkpt lat="43.02163" lon="0.54611">
        <ele>657.849754</ele>
        <time>2023-09-24T09:19:01.207Z</time>
      </trkpt>
      <trkpt lat="43.02174" lon="0.54605">
        <ele>655.655271</ele>
        <time>2023-09-24T09:19:08.196Z</time>
      </trkpt>
      <trkpt lat="43.02184" lon="0.54606">
        <ele>653.627313</ele>
        <time>2023-09-24T09:19:11.189Z</time>
      </trkpt>
      <trkpt lat="43.02193" lon="0.54606">
        <ele>651.777077</ele>
        <time>2023-09-24T09:19:14.181Z</time>
      </trkpt>
      <trkpt lat="43.02203" lon="0.54608">
        <ele>649.815106</ele>
        <time>2023-09-24T09:19:16.202Z</time>
      </trkpt>
      <trkpt lat="43.02215" lon="0.54611">
        <ele>647.521781</ele>
        <time>2023-09-24T09:19:19.195Z</time>
      </trkpt>
      <trkpt lat="43.02227" lon="0.5461">
        <ele>645.152668</ele>
        <time>2023-09-24T09:19:23.204Z</time>
      </trkpt>
      <trkpt lat="43.0224" lon="0.54605">
        <ele>642.498777</ele>
        <time>2023-09-24T09:19:27.198Z</time>
      </trkpt>
      <trkpt lat="43.0225" lon="0.54603">
        <ele>640.638884</ele>
        <time>2023-09-24T09:19:30.197Z</time>
      </trkpt>
      <trkpt lat="43.0226" lon="0.54607">
        <ele>639.214105</ele>
        <time>2023-09-24T09:19:33.202Z</time>
      </trkpt>
      <trkpt lat="43.02275" lon="0.54609">
        <ele>637.260108</ele>
        <time>2023-09-24T09:19:36.206Z</time>
      </trkpt>
      <trkpt lat="43.02287" lon="0.5461">
        <ele>635.629924</ele>
        <time>2023-09-24T09:19:38.190Z</time>
      </trkpt>
      <trkpt lat="43.02301" lon="0.54614">
        <ele>633.720429</ele>
        <time>2023-09-24T09:19:40.199Z</time>
      </trkpt>
      <trkpt lat="43.02315" lon="0.54619">
        <ele>631.675334</ele>
        <time>2023-09-24T09:19:42.188Z</time>
      </trkpt>
      <trkpt lat="43.0233" lon="0.54625">
        <ele>629.590148</ele>
        <time>2023-09-24T09:19:44.204Z</time>
      </trkpt>
      <trkpt lat="43.02346" lon="0.54632">
        <ele>627.355906</ele>
        <time>2023-09-24T09:19:46.191Z</time>
      </trkpt>
      <trkpt lat="43.02361" lon="0.5464">
        <ele>625.204014</ele>
        <time>2023-09-24T09:19:48.216Z</time>
      </trkpt>
      <trkpt lat="43.02375" lon="0.54647">
        <ele>623.233144</ele>
        <time>2023-09-24T09:19:50.191Z</time>
      </trkpt>
      <trkpt lat="43.02387" lon="0.54653">
        <ele>621.392916</ele>
        <time>2023-09-24T09:19:52.176Z</time>
      </trkpt>
      <trkpt lat="43.02401" lon="0.5466">
        <ele>619.511448</ele>
        <time>2023-09-24T09:19:54.207Z</time>
      </trkpt>
      <trkpt lat="43.02414" lon="0.5467">
        <ele>617.498064</ele>
        <time>2023-09-24T09:19:56.206Z</time>
      </trkpt>
      <trkpt lat="43.02427" lon="0.54683">
        <ele>615.472458</ele>
        <time>2023-09-24T09:19:58.196Z</time>
      </trkpt>
      <trkpt lat="43.0244" lon="0.54696">
        <ele>613.387959</ele>
        <time>2023-09-24T09:20:00.188Z</time>
      </trkpt>
      <trkpt lat="43.02454" lon="0.54709">
        <ele>611.370168</ele>
        <time>2023-09-24T09:20:02.219Z</time>
      </trkpt>
      <trkpt lat="43.02466" lon="0.54721">
        <ele>609.464276</ele>
        <time>2023-09-24T09:20:04.215Z</time>
      </trkpt>
      <trkpt lat="43.02476" lon="0.54734">
        <ele>607.770411</ele>
        <time>2023-09-24T09:20:06.206Z</time>
      </trkpt>
      <trkpt lat="43.02486" lon="0.54748">
        <ele>605.977508</ele>
        <time>2023-09-24T09:20:08.215Z</time>
      </trkpt>
      <trkpt lat="43.02495" lon="0.54763">
        <ele>604.275956</ele>
        <time>2023-09-24T09:20:10.205Z</time>
      </trkpt>
      <trkpt lat="43.02503" lon="0.54782">
        <ele>602.260434</ele>
        <time>2023-09-24T09:20:12.205Z</time>
      </trkpt>
      <trkpt lat="43.02511" lon="0.54799">
        <ele>600.450059</ele>
        <time>2023-09-24T09:20:14.215Z</time>
      </trkpt>
      <trkpt lat="43.02514" lon="0.54811">
        <ele>599.255489</ele>
        <time>2023-09-24T09:20:16.204Z</time>
      </trkpt>
      <trkpt lat="43.02517" lon="0.54823">
        <ele>598.101019</ele>
        <time>2023-09-24T09:20:18.193Z</time>
      </trkpt>
      <trkpt lat="43.02521" lon="0.54811">
        <ele>596.871594</ele>
        <time>2023-09-24T09:20:26.199Z</time>
      </trkpt>
      <trkpt lat="43.02515" lon="0.54801">
        <ele>595.717827</ele>
        <time>2023-09-24T09:20:29.195Z</time>
      </trkpt>
      <trkpt lat="43.0251" lon="0.54788">
        <ele>594.393099</ele>
        <time>2023-09-24T09:20:32.205Z</time>
      </trkpt>
      <trkpt lat="43.02509" lon="0.54769">
        <ele>592.852458</ele>
        <time>2023-09-24T09:20:35.197Z</time>
      </trkpt>
      <trkpt lat="43.02512" lon="0.54755">
        <ele>591.647893</ele>
        <time>2023-09-24T09:20:37.207Z</time>
      </trkpt>
      <trkpt lat="43.02515" lon="0.54738">
        <ele>590.230235</ele>
        <time>2023-09-24T09:20:39.202Z</time>
      </trkpt>
      <trkpt lat="43.02516" lon="0.5472">
        <ele>588.728927</ele>
        <time>2023-09-24T09:20:41.215Z</time>
      </trkpt>
      <trkpt lat="43.02515" lon="0.54699">
        <ele>587.03364</ele>
        <time>2023-09-24T09:20:43.197Z</time>
      </trkpt>
      <trkpt lat="43.02511" lon="0.54678">
        <ele>585.213001</ele>
        <time>2023-09-24T09:20:45.193Z</time>
      </trkpt>
      <trkpt lat="43.02507" lon="0.54666">
        <ele>584.147529</ele>
        <time>2023-09-24T09:20:46.195Z</time>
      </trkpt>
      <trkpt lat="43.02502" lon="0.54655">
        <ele>583.082719</ele>
        <time>2023-09-24T09:20:47.200Z</time>
      </trkpt>
      <trkpt lat="43.02496" lon="0.54644">
        <ele>581.986263</ele>
        <time>2023-09-24T09:20:48.201Z</time>
      </trkpt>
      <trkpt lat="43.02491" lon="0.54634">
        <ele>580.962207</ele>
        <time>2023-09-24T09:20:49.209Z</time>
      </trkpt>
      <trkpt lat="43.02482" lon="0.54618">
        <ele>579.343325</ele>
        <time>2023-09-24T09:20:51.208Z</time>
      </trkpt>
      <trkpt lat="43.02478" lon="0.54604">
        <ele>578.124663</ele>
        <time>2023-09-24T09:20:55.222Z</time>
      </trkpt>
      <trkpt lat="43.02486" lon="0.54614">
        <ele>577.000095</ele>
        <time>2023-09-24T09:21:08.195Z</time>
      </trkpt>
      <trkpt lat="43.02491" lon="0.54624">
        <ele>575.942918</ele>
        <time>2023-09-24T09:21:12.202Z</time>
      </trkpt>
      <trkpt lat="43.02499" lon="0.54632">
        <ele>574.878593</ele>
        <time>2023-09-24T09:21:18.208Z</time>
      </trkpt>
      <trkpt lat="43.02507" lon="0.54637">
        <ele>573.986002</ele>
        <time>2023-09-24T09:21:21.208Z</time>
      </trkpt>
      <trkpt lat="43.02515" lon="0.54645">
        <ele>573.154307</ele>
        <time>2023-09-24T09:21:24.197Z</time>
      </trkpt>
      <trkpt lat="43.02522" lon="0.54654">
        <ele>572.284105</ele>
        <time>2023-09-24T09:21:27.200Z</time>
      </trkpt>
      <trkpt lat="43.0253" lon="0.54663">
        <ele>571.417955</ele>
        <time>2023-09-24T09:21:30.209Z</time>
      </trkpt>
      <trkpt lat="43.02537" lon="0.54672">
        <ele>570.578261</ele>
        <time>2023-09-24T09:21:34.206Z</time>
      </trkpt>
      <trkpt lat="43.02559" lon="0.54696">
        <ele>568.123266</ele>
        <time>2023-09-24T09:21:59.209Z</time>
      </trkpt>
      <trkpt lat="43.02567" lon="0.54703">
        <ele>567.278199</ele>
        <time>2023-09-24T09:22:01.207Z</time>
      </trkpt>
      <trkpt lat="43.02575" lon="0.54711">
        <ele>566.42248</ele>
        <time>2023-09-24T09:22:03.206Z</time>
      </trkpt>
      <trkpt lat="43.02585" lon="0.54723">
        <ele>565.298526</ele>
        <time>2023-09-24T09:22:06.205Z</time>
      </trkpt>
      <trkpt lat="43.02596" lon="0.54731">
        <ele>564.187699</ele>
        <time>2023-09-24T09:22:09.202Z</time>
      </trkpt>
      <trkpt lat="43.02605" lon="0.5474">
        <ele>563.24231</ele>
        <time>2023-09-24T09:22:12.217Z</time>
      </trkpt>
      <trkpt lat="43.02616" lon="0.54749">
        <ele>562.190562</ele>
        <time>2023-09-24T09:22:15.204Z</time>
      </trkpt>
      <trkpt lat="43.02626" lon="0.54756">
        <ele>561.21049</ele>
        <time>2023-09-24T09:22:18.198Z</time>
      </trkpt>
      <trkpt lat="43.02634" lon="0.54762">
        <ele>560.363322</ele>
        <time>2023-09-24T09:22:34.184Z</time>
      </trkpt>
      <trkpt lat="43.02645" lon="0.54762">
        <ele>559.476867</ele>
        <time>2023-09-24T09:22:38.200Z</time>
      </trkpt>
      <trkpt lat="43.02654" lon="0.54764">
        <ele>558.810413</ele>
        <time>2023-09-24T09:22:40.210Z</time>
      </trkpt>
      <trkpt lat="43.02664" lon="0.54763">
        <ele>558.685099</ele>
        <time>2023-09-24T09:22:42.196Z</time>
      </trkpt>
      <trkpt lat="43.02674" lon="0.54761">
        <ele>558.561529</ele>
        <time>2023-09-24T09:22:44.182Z</time>
      </trkpt>
      <trkpt lat="43.02684" lon="0.54755">
        <ele>558.423675</ele>
        <time>2023-09-24T09:22:47.206Z</time>
      </trkpt>
      <trkpt lat="43.02696" lon="0.54749">
        <ele>558.271952</ele>
        <time>2023-09-24T09:22:50.197Z</time>
      </trkpt>
      <trkpt lat="43.0271" lon="0.54748">
        <ele>558.101103</ele>
        <time>2023-09-24T09:22:53.206Z</time>
      </trkpt>
      <trkpt lat="43.02721" lon="0.54752">
        <ele>557.960924</ele>
        <time>2023-09-24T09:22:56.145Z</time>
      </trkpt>
      <trkpt lat="43.02729" lon="0.54756">
        <ele>557.850195</ele>
        <time>2023-09-24T09:23:01.212Z</time>
      </trkpt>
      <trkpt lat="43.02748" lon="0.54767">
        <ele>557.604434</ele>
        <time>2023-09-24T09:23:47.182Z</time>
      </trkpt>
      <trkpt lat="43.02759" lon="0.54769">
        <ele>557.458887</ele>
        <time>2023-09-24T09:23:50.204Z</time>
      </trkpt>
      <trkpt lat="43.02771" lon="0.54774">
        <ele>557.304914</ele>
        <time>2023-09-24T09:23:53.184Z</time>
      </trkpt>
      <trkpt lat="43.02783" lon="0.54783">
        <ele>557.135181</ele>
        <time>2023-09-24T09:23:56.204Z</time>
      </trkpt>
      <trkpt lat="43.02791" lon="0.54792">
        <ele>557.013045</ele>
        <time>2023-09-24T09:23:58.221Z</time>
      </trkpt>
      <trkpt lat="43.02797" lon="0.54801">
        <ele>556.900272</ele>
        <time>2023-09-24T09:24:00.202Z</time>
      </trkpt>
      <trkpt lat="43.02806" lon="0.54815">
        <ele>556.73756</ele>
        <time>2023-09-24T09:24:03.200Z</time>
      </trkpt>
      <trkpt lat="43.02812" lon="0.54824">
        <ele>556.624904</ele>
        <time>2023-09-24T09:24:05.179Z</time>
      </trkpt>
      <trkpt lat="43.0282" lon="0.54839">
        <ele>556.61237</ele>
        <time>2023-09-24T09:24:08.206Z</time>
      </trkpt>
      <trkpt lat="43.02829" lon="0.54851">
        <ele>556.600184</ele>
        <time>2023-09-24T09:24:11.193Z</time>
      </trkpt>
      <trkpt lat="43.02837" lon="0.54859">
        <ele>556.591247</ele>
        <time>2023-09-24T09:24:13.213Z</time>
      </trkpt>
      <trkpt lat="43.02844" lon="0.54867">
        <ele>556.582193</ele>
        <time>2023-09-24T09:24:15.205Z</time>
      </trkpt>
      <trkpt lat="43.02852" lon="0.54874">
        <ele>556.573621</ele>
        <time>2023-09-24T09:24:17.206Z</time>
      </trkpt>
      <trkpt lat="43.0286" lon="0.54881">
        <ele>556.56469</ele>
        <time>2023-09-24T09:24:19.213Z</time>
      </trkpt>
      <trkpt lat="43.02868" lon="0.54888">
        <ele>556.555865</ele>
        <time>2023-09-24T09:24:21.198Z</time>
      </trkpt>
      <trkpt lat="43.02876" lon="0.54895">
        <ele>556.546898</ele>
        <time>2023-09-24T09:24:23.197Z</time>
      </trkpt>
      <trkpt lat="43.02887" lon="0.54905">
        <ele>556.53406</ele>
        <time>2023-09-24T09:24:26.201Z</time>
      </trkpt>
      <trkpt lat="43.02895" lon="0.54913">
        <ele>556.524868</ele>
        <time>2023-09-24T09:24:28.227Z</time>
      </trkpt>
      <trkpt lat="43.02904" lon="0.54922">
        <ele>556.514474</ele>
        <time>2023-09-24T09:24:30.193Z</time>
      </trkpt>
      <trkpt lat="43.02913" lon="0.54931">
        <ele>556.50414</ele>
        <time>2023-09-24T09:24:32.212Z</time>
      </trkpt>
      <trkpt lat="43.02922" lon="0.54939">
        <ele>556.493746</ele>
        <time>2023-09-24T09:24:34.206Z</time>
      </trkpt>
      <trkpt lat="43.02932" lon="0.54947">
        <ele>556.483253</ele>
        <time>2023-09-24T09:24:36.200Z</time>
      </trkpt>
      <trkpt lat="43.02942" lon="0.54955">
        <ele>556.472517</ele>
        <time>2023-09-24T09:24:38.209Z</time>
      </trkpt>
      <trkpt lat="43.02952" lon="0.54963">
        <ele>556.461596</ele>
        <time>2023-09-24T09:24:40.229Z</time>
      </trkpt>
      <trkpt lat="43.02962" lon="0.5497">
        <ele>556.595216</ele>
        <time>2023-09-24T09:24:42.209Z</time>
      </trkpt>
      <trkpt lat="43.02972" lon="0.54976">
        <ele>556.890257</ele>
        <time>2023-09-24T09:24:44.196Z</time>
      </trkpt>
      <trkpt lat="43.02982" lon="0.54982">
        <ele>557.181133</ele>
        <time>2023-09-24T09:24:46.202Z</time>
      </trkpt>
      <trkpt lat="43.02992" lon="0.54988">
        <ele>557.501709</ele>
        <time>2023-09-24T09:24:48.199Z</time>
      </trkpt>
      <trkpt lat="43.03003" lon="0.54993">
        <ele>557.810008</ele>
        <time>2023-09-24T09:24:50.199Z</time>
      </trkpt>
      <trkpt lat="43.03013" lon="0.54999">
        <ele>558.105049</ele>
        <time>2023-09-24T09:24:52.211Z</time>
      </trkpt>
      <trkpt lat="43.03023" lon="0.55006">
        <ele>558.410281</ele>
        <time>2023-09-24T09:24:54.203Z</time>
      </trkpt>
      <trkpt lat="43.03033" lon="0.55014">
        <ele>558.728813</ele>
        <time>2023-09-24T09:24:56.207Z</time>
      </trkpt>
      <trkpt lat="43.03043" lon="0.55022">
        <ele>559.041331</ele>
        <time>2023-09-24T09:24:58.219Z</time>
      </trkpt>
      <trkpt lat="43.03053" lon="0.5503">
        <ele>559.348497</ele>
        <time>2023-09-24T09:25:00.195Z</time>
      </trkpt>
      <trkpt lat="43.03063" lon="0.55038">
        <ele>559.656663</ele>
        <time>2023-09-24T09:25:02.209Z</time>
      </trkpt>
      <trkpt lat="43.03072" lon="0.55046">
        <ele>559.952199</ele>
        <time>2023-09-24T09:25:04.200Z</time>
      </trkpt>
      <trkpt lat="43.03082" lon="0.55054">
        <ele>560.249026</ele>
        <time>2023-09-24T09:25:06.212Z</time>
      </trkpt>
      <trkpt lat="43.03091" lon="0.5506">
        <ele>560.531387</ele>
        <time>2023-09-24T09:25:08.222Z</time>
      </trkpt>
      <trkpt lat="43.031" lon="0.55066">
        <ele>560.801718</ele>
        <time>2023-09-24T09:25:10.206Z</time>
      </trkpt>
      <trkpt lat="43.0311" lon="0.55072">
        <ele>561.095918</ele>
        <time>2023-09-24T09:25:12.203Z</time>
      </trkpt>
      <trkpt lat="43.03119" lon="0.55079">
        <ele>561.392927</ele>
        <time>2023-09-24T09:25:14.199Z</time>
      </trkpt>
      <trkpt lat="43.03129" lon="0.55085">
        <ele>561.696321</ele>
        <time>2023-09-24T09:25:16.209Z</time>
      </trkpt>
      <trkpt lat="43.03139" lon="0.5509">
        <ele>561.97933</ele>
        <time>2023-09-24T09:25:18.200Z</time>
      </trkpt>
      <trkpt lat="43.03147" lon="0.55094">
        <ele>562.247342</ele>
        <time>2023-09-24T09:25:20.234Z</time>
      </trkpt>
      <trkpt lat="43.03156" lon="0.55099">
        <ele>562.515941</ele>
        <time>2023-09-24T09:25:22.200Z</time>
      </trkpt>
      <trkpt lat="43.03165" lon="0.55104">
        <ele>562.793532</ele>
        <time>2023-09-24T09:25:24.205Z</time>
      </trkpt>
      <trkpt lat="43.03174" lon="0.55109">
        <ele>563.052287</ele>
        <time>2023-09-24T09:25:26.196Z</time>
      </trkpt>
      <trkpt lat="43.03186" lon="0.55115">
        <ele>563.417788</ele>
        <time>2023-09-24T09:25:29.206Z</time>
      </trkpt>
      <trkpt lat="43.03198" lon="0.55121">
        <ele>563.772946</ele>
        <time>2023-09-24T09:25:32.206Z</time>
      </trkpt>
      <trkpt lat="43.03208" lon="0.55127">
        <ele>564.094217</ele>
        <time>2023-09-24T09:25:35.201Z</time>
      </trkpt>
      <trkpt lat="43.03219" lon="0.55134">
        <ele>564.414658</ele>
        <time>2023-09-24T09:25:38.214Z</time>
      </trkpt>
      <trkpt lat="43.03229" lon="0.55139">
        <ele>564.738997</ele>
        <time>2023-09-24T09:25:41.217Z</time>
      </trkpt>
      <trkpt lat="43.0324" lon="0.55146">
        <ele>565.059395</ele>
        <time>2023-09-24T09:25:44.200Z</time>
      </trkpt>
      <trkpt lat="43.0325" lon="0.55153">
        <ele>565.397848</ele>
        <time>2023-09-24T09:25:47.192Z</time>
      </trkpt>
      <trkpt lat="43.03261" lon="0.5516">
        <ele>565.72424</ele>
        <time>2023-09-24T09:25:50.212Z</time>
      </trkpt>
      <trkpt lat="43.03272" lon="0.55163">
        <ele>566.045091</ele>
        <time>2023-09-24T09:25:53.201Z</time>
      </trkpt>
      <trkpt lat="43.03286" lon="0.55165">
        <ele>566.36103</ele>
        <time>2023-09-24T09:25:56.198Z</time>
      </trkpt>
      <trkpt lat="43.03298" lon="0.55166">
        <ele>565.786895</ele>
        <time>2023-09-24T09:25:58.195Z</time>
      </trkpt>
      <trkpt lat="43.03312" lon="0.55167">
        <ele>565.112972</ele>
        <time>2023-09-24T09:26:00.183Z</time>
      </trkpt>
      <trkpt lat="43.03327" lon="0.55167">
        <ele>564.367708</ele>
        <time>2023-09-24T09:26:02.206Z</time>
      </trkpt>
      <trkpt lat="43.03344" lon="0.55167">
        <ele>563.584226</ele>
        <time>2023-09-24T09:26:04.195Z</time>
      </trkpt>
      <trkpt lat="43.03358" lon="0.55167">
        <ele>562.886664</ele>
        <time>2023-09-24T09:26:06.197Z</time>
      </trkpt>
      <trkpt lat="43.03373" lon="0.55168">
        <ele>562.187469</ele>
        <time>2023-09-24T09:26:08.207Z</time>
      </trkpt>
      <trkpt lat="43.03385" lon="0.55177">
        <ele>561.554605</ele>
        <time>2023-09-24T09:26:10.197Z</time>
      </trkpt>
      <trkpt lat="43.03392" lon="0.55191">
        <ele>560.951133</ele>
        <time>2023-09-24T09:26:12.194Z</time>
      </trkpt>
      <trkpt lat="43.03396" lon="0.55207">
        <ele>560.359614</ele>
        <time>2023-09-24T09:26:14.202Z</time>
      </trkpt>
      <trkpt lat="43.03395" lon="0.55224">
        <ele>559.755204</ele>
        <time>2023-09-24T09:26:16.196Z</time>
      </trkpt>
      <trkpt lat="43.03392" lon="0.55244">
        <ele>559.06811</ele>
        <time>2023-09-24T09:26:18.212Z</time>
      </trkpt>
      <trkpt lat="43.0339" lon="0.55266">
        <ele>558.293357</ele>
        <time>2023-09-24T09:26:20.199Z</time>
      </trkpt>
      <trkpt lat="43.03389" lon="0.55278">
        <ele>557.854751</ele>
        <time>2023-09-24T09:26:21.195Z</time>
      </trkpt>
      <trkpt lat="43.03389" lon="0.55291">
        <ele>557.247739</ele>
        <time>2023-09-24T09:26:22.202Z</time>
      </trkpt>
      <trkpt lat="43.03389" lon="0.55304">
        <ele>556.62094</ele>
        <time>2023-09-24T09:26:23.197Z</time>
      </trkpt>
      <trkpt lat="43.03389" lon="0.55317">
        <ele>555.954983</ele>
        <time>2023-09-24T09:26:24.197Z</time>
      </trkpt>
      <trkpt lat="43.03389" lon="0.55332">
        <ele>555.215604</ele>
        <time>2023-09-24T09:26:25.216Z</time>
      </trkpt>
      <trkpt lat="43.03389" lon="0.55348">
        <ele>554.441959</ele>
        <time>2023-09-24T09:26:26.203Z</time>
      </trkpt>
      <trkpt lat="43.03389" lon="0.55364">
        <ele>553.682055</ele>
        <time>2023-09-24T09:26:27.220Z</time>
      </trkpt>
      <trkpt lat="43.03387" lon="0.55379">
        <ele>552.917445</ele>
        <time>2023-09-24T09:26:28.180Z</time>
      </trkpt>
      <trkpt lat="43.03385" lon="0.55394">
        <ele>552.180595</ele>
        <time>2023-09-24T09:26:29.227Z</time>
      </trkpt>
      <trkpt lat="43.03383" lon="0.55408">
        <ele>551.449754</ele>
        <time>2023-09-24T09:26:30.200Z</time>
      </trkpt>
      <trkpt lat="43.0338" lon="0.55423">
        <ele>550.710856</ele>
        <time>2023-09-24T09:26:31.210Z</time>
      </trkpt>
      <trkpt lat="43.03378" lon="0.55438">
        <ele>549.951239</ele>
        <time>2023-09-24T09:26:32.217Z</time>
      </trkpt>
      <trkpt lat="43.03376" lon="0.55454">
        <ele>549.1818</ele>
        <time>2023-09-24T09:26:33.215Z</time>
      </trkpt>
      <trkpt lat="43.03374" lon="0.55469">
        <ele>548.415427</ele>
        <time>2023-09-24T09:26:34.205Z</time>
      </trkpt>
      <trkpt lat="43.03373" lon="0.55485">
        <ele>547.648757</ele>
        <time>2023-09-24T09:26:35.184Z</time>
      </trkpt>
      <trkpt lat="43.03373" lon="0.55501">
        <ele>546.860283</ele>
        <time>2023-09-24T09:26:36.206Z</time>
      </trkpt>
      <trkpt lat="43.03375" lon="0.55517">
        <ele>546.072576</ele>
        <time>2023-09-24T09:26:37.196Z</time>
      </trkpt>
      <trkpt lat="43.03378" lon="0.55533">
        <ele>545.376962</ele>
        <time>2023-09-24T09:26:38.190Z</time>
      </trkpt>
      <trkpt lat="43.03382" lon="0.55549">
        <ele>544.751199</ele>
        <time>2023-09-24T09:26:39.212Z</time>
      </trkpt>
      <trkpt lat="43.03384" lon="0.55566">
        <ele>544.124655</ele>
        <time>2023-09-24T09:26:40.217Z</time>
      </trkpt>
      <trkpt lat="43.03385" lon="0.55583">
        <ele>543.506034</ele>
        <time>2023-09-24T09:26:41.200Z</time>
      </trkpt>
      <trkpt lat="43.03385" lon="0.55599">
        <ele>542.914212</ele>
        <time>2023-09-24T09:26:42.199Z</time>
      </trkpt>
      <trkpt lat="43.03384" lon="0.55616">
        <ele>542.314167</ele>
        <time>2023-09-24T09:26:43.188Z</time>
      </trkpt>
      <trkpt lat="43.03383" lon="0.55632">
        <ele>541.709658</ele>
        <time>2023-09-24T09:26:44.219Z</time>
      </trkpt>
      <trkpt lat="43.03383" lon="0.55648">
        <ele>541.129453</ele>
        <time>2023-09-24T09:26:45.202Z</time>
      </trkpt>
      <trkpt lat="43.03383" lon="0.55663">
        <ele>540.571204</ele>
        <time>2023-09-24T09:26:46.194Z</time>
      </trkpt>
      <trkpt lat="43.03383" lon="0.55678">
        <ele>540.020251</ele>
        <time>2023-09-24T09:26:47.203Z</time>
      </trkpt>
      <trkpt lat="43.03383" lon="0.55693">
        <ele>539.48754</ele>
        <time>2023-09-24T09:26:48.197Z</time>
      </trkpt>
      <trkpt lat="43.03383" lon="0.55707">
        <ele>538.972708</ele>
        <time>2023-09-24T09:26:49.200Z</time>
      </trkpt>
      <trkpt lat="43.03382" lon="0.55722">
        <ele>538.435791</ele>
        <time>2023-09-24T09:26:50.183Z</time>
      </trkpt>
      <trkpt lat="43.03382" lon="0.55736">
        <ele>537.92825</ele>
        <time>2023-09-24T09:26:51.232Z</time>
      </trkpt>
      <trkpt lat="43.03381" lon="0.55749">
        <ele>537.42718</ele>
        <time>2023-09-24T09:26:52.209Z</time>
      </trkpt>
      <trkpt lat="43.0338" lon="0.55763">
        <ele>536.937358</ele>
        <time>2023-09-24T09:26:53.210Z</time>
      </trkpt>
      <trkpt lat="43.03379" lon="0.55776">
        <ele>536.59058</ele>
        <time>2023-09-24T09:26:54.199Z</time>
      </trkpt>
      <trkpt lat="43.03379" lon="0.558">
        <ele>536.052794</ele>
        <time>2023-09-24T09:26:56.194Z</time>
      </trkpt>
      <trkpt lat="43.03379" lon="0.55822">
        <ele>535.551063</ele>
        <time>2023-09-24T09:26:58.202Z</time>
      </trkpt>
      <trkpt lat="43.03381" lon="0.55844">
        <ele>535.059666</ele>
        <time>2023-09-24T09:27:00.199Z</time>
      </trkpt>
      <trkpt lat="43.03389" lon="0.55862">
        <ele>534.582696</ele>
        <time>2023-09-24T09:27:02.203Z</time>
      </trkpt>
      <trkpt lat="43.03402" lon="0.55875">
        <ele>534.101965</ele>
        <time>2023-09-24T09:27:04.211Z</time>
      </trkpt>
      <trkpt lat="43.03414" lon="0.55888">
        <ele>533.607375</ele>
        <time>2023-09-24T09:27:06.197Z</time>
      </trkpt>
      <trkpt lat="43.03423" lon="0.55909">
        <ele>533.066957</ele>
        <time>2023-09-24T09:27:08.200Z</time>
      </trkpt>
      <trkpt lat="43.03427" lon="0.55922">
        <ele>532.762945</ele>
        <time>2023-09-24T09:27:09.223Z</time>
      </trkpt>
      <trkpt lat="43.0343" lon="0.55935">
        <ele>532.46368</ele>
        <time>2023-09-24T09:27:10.201Z</time>
      </trkpt>
      <trkpt lat="43.03432" lon="0.55946">
        <ele>532.184839</ele>
        <time>2023-09-24T09:27:11.200Z</time>
      </trkpt>
      <trkpt lat="43.03436" lon="0.55958">
        <ele>531.906091</ele>
        <time>2023-09-24T09:27:12.196Z</time>
      </trkpt>
      <trkpt lat="43.03445" lon="0.55978">
        <ele>531.38289</ele>
        <time>2023-09-24T09:27:14.197Z</time>
      </trkpt>
      <trkpt lat="43.03456" lon="0.55993">
        <ele>531.562422</ele>
        <time>2023-09-24T09:27:16.200Z</time>
      </trkpt>
      <trkpt lat="43.03468" lon="0.56005">
        <ele>531.893342</ele>
        <time>2023-09-24T09:27:18.196Z</time>
      </trkpt>
      <trkpt lat="43.0348" lon="0.56015">
        <ele>532.19617</ele>
        <time>2023-09-24T09:27:20.203Z</time>
      </trkpt>
      <trkpt lat="43.0349" lon="0.56023">
        <ele>532.473581</ele>
        <time>2023-09-24T09:27:22.204Z</time>
      </trkpt>
      <trkpt lat="43.035" lon="0.56028">
        <ele>532.712004</ele>
        <time>2023-09-24T09:27:24.205Z</time>
      </trkpt>
      <trkpt lat="43.03509" lon="0.56034">
        <ele>532.930017</ele>
        <time>2023-09-24T09:27:26.195Z</time>
      </trkpt>
      <trkpt lat="43.03519" lon="0.56044">
        <ele>533.203112</ele>
        <time>2023-09-24T09:27:29.202Z</time>
      </trkpt>
      <trkpt lat="43.03528" lon="0.56054">
        <ele>533.464549</ele>
        <time>2023-09-24T09:27:32.215Z</time>
      </trkpt>
      <trkpt lat="43.03537" lon="0.56066">
        <ele>533.737404</ele>
        <time>2023-09-24T09:27:35.200Z</time>
      </trkpt>
      <trkpt lat="43.03543" lon="0.56075">
        <ele>533.951917</ele>
        <time>2023-09-24T09:27:37.227Z</time>
      </trkpt>
      <trkpt lat="43.03549" lon="0.56085">
        <ele>534.156493</ele>
        <time>2023-09-24T09:27:39.215Z</time>
      </trkpt>
      <trkpt lat="43.03558" lon="0.56096">
        <ele>534.429419</ele>
        <time>2023-09-24T09:27:42.197Z</time>
      </trkpt>
      <trkpt lat="43.03565" lon="0.56109">
        <ele>534.694185</ele>
        <time>2023-09-24T09:27:45.217Z</time>
      </trkpt>
      <trkpt lat="43.03556" lon="0.56109">
        <ele>534.902757</ele>
        <time>2023-09-24T09:27:50.189Z</time>
      </trkpt>
      <trkpt lat="43.03549" lon="0.56098">
        <ele>535.141621</ele>
        <time>2023-09-24T09:27:55.205Z</time>
      </trkpt>
      <trkpt lat="43.03549" lon="0.56084">
        <ele>535.295813</ele>
        <time>2023-09-24T09:27:58.187Z</time>
      </trkpt>
      <trkpt lat="43.03542" lon="0.56074">
        <ele>535.204013</ele>
        <time>2023-09-24T09:28:01.200Z</time>
      </trkpt>
      <trkpt lat="43.03535" lon="0.56065">
        <ele>535.118313</ele>
        <time>2023-09-24T09:28:03.200Z</time>
      </trkpt>
      <trkpt lat="43.03529" lon="0.56054">
        <ele>535.025565</ele>
        <time>2023-09-24T09:28:06.215Z</time>
      </trkpt>
      <trkpt lat="43.03521" lon="0.56044">
        <ele>534.93416</ele>
        <time>2023-09-24T09:28:10.204Z</time>
      </trkpt>
      <trkpt lat="43.0353" lon="0.56053">
        <ele>534.837957</ele>
        <time>2023-09-24T09:29:11.198Z</time>
      </trkpt>
      <trkpt lat="43.03537" lon="0.56063">
        <ele>534.750622</ele>
        <time>2023-09-24T09:29:15.204Z</time>
      </trkpt>
      <trkpt lat="43.03543" lon="0.56072">
        <ele>534.666594</ele>
        <time>2023-09-24T09:29:18.207Z</time>
      </trkpt>
      <trkpt lat="43.03547" lon="0.56087">
        <ele>534.566097</ele>
        <time>2023-09-24T09:29:22.192Z</time>
      </trkpt>
      <trkpt lat="43.03545" lon="0.56099">
        <ele>534.480742</ele>
        <time>2023-09-24T09:29:25.204Z</time>
      </trkpt>
      <trkpt lat="43.0354" lon="0.56114">
        <ele>534.372641</ele>
        <time>2023-09-24T09:29:28.207Z</time>
      </trkpt>
      <trkpt lat="43.03538" lon="0.56129">
        <ele>534.274793</ele>
        <time>2023-09-24T09:29:30.205Z</time>
      </trkpt>
      <trkpt lat="43.03539" lon="0.56145">
        <ele>534.171758</ele>
        <time>2023-09-24T09:29:32.190Z</time>
      </trkpt>
      <trkpt lat="43.03541" lon="0.5616">
        <ele>534.071615</ele>
        <time>2023-09-24T09:29:34.196Z</time>
      </trkpt>
      <trkpt lat="43.0354" lon="0.56177">
        <ele>533.961623</ele>
        <time>2023-09-24T09:29:36.202Z</time>
      </trkpt>
      <trkpt lat="43.03535" lon="0.56195">
        <ele>533.834137</ele>
        <time>2023-09-24T09:29:38.197Z</time>
      </trkpt>
      <trkpt lat="43.03529" lon="0.56215">
        <ele>533.57294</ele>
        <time>2023-09-24T09:29:40.209Z</time>
      </trkpt>
      <trkpt lat="43.0352" lon="0.56233">
        <ele>532.0763</ele>
        <time>2023-09-24T09:29:42.217Z</time>
      </trkpt>
      <trkpt lat="43.03508" lon="0.5625">
        <ele>530.506333</ele>
        <time>2023-09-24T09:29:44.199Z</time>
      </trkpt>
      <trkpt lat="43.03496" lon="0.56267">
        <ele>528.910342</ele>
        <time>2023-09-24T09:29:46.195Z</time>
      </trkpt>
      <trkpt lat="43.03486" lon="0.56287">
        <ele>527.260717</ele>
        <time>2023-09-24T09:29:48.195Z</time>
      </trkpt>
      <trkpt lat="43.03481" lon="0.56297">
        <ele>526.380075</ele>
        <time>2023-09-24T09:29:49.242Z</time>
      </trkpt>
      <trkpt lat="43.03475" lon="0.56309">
        <ele>525.451504</ele>
        <time>2023-09-24T09:29:50.199Z</time>
      </trkpt>
      <trkpt lat="43.03468" lon="0.5632">
        <ele>524.494981</ele>
        <time>2023-09-24T09:29:51.203Z</time>
      </trkpt>
      <trkpt lat="43.03462" lon="0.56331">
        <ele>523.50084</ele>
        <time>2023-09-24T09:29:52.201Z</time>
      </trkpt>
      <trkpt lat="43.03456" lon="0.56345">
        <ele>522.442449</ele>
        <time>2023-09-24T09:29:53.204Z</time>
      </trkpt>
      <trkpt lat="43.03451" lon="0.56358">
        <ele>521.396772</ele>
        <time>2023-09-24T09:29:54.199Z</time>
      </trkpt>
      <trkpt lat="43.03446" lon="0.56372">
        <ele>520.364842</ele>
        <time>2023-09-24T09:29:55.200Z</time>
      </trkpt>
      <trkpt lat="43.03441" lon="0.56384">
        <ele>519.462565</ele>
        <time>2023-09-24T09:29:56.194Z</time>
      </trkpt>
      <trkpt lat="43.03436" lon="0.56398">
        <ele>518.408333</ele>
        <time>2023-09-24T09:29:58.221Z</time>
      </trkpt>
      <trkpt lat="43.03432" lon="0.56411">
        <ele>517.470085</ele>
        <time>2023-09-24T09:30:57.200Z</time>
      </trkpt>
      <trkpt lat="43.03428" lon="0.56424">
        <ele>516.814232</ele>
        <time>2023-09-24T09:31:01.207Z</time>
      </trkpt>
      <trkpt lat="43.03424" lon="0.56439">
        <ele>516.333226</ele>
        <time>2023-09-24T09:31:03.221Z</time>
      </trkpt>
      <trkpt lat="43.03414" lon="0.56457">
        <ele>515.690447</ele>
        <time>2023-09-24T09:31:05.180Z</time>
      </trkpt>
      <trkpt lat="43.03403" lon="0.56471">
        <ele>515.080694</ele>
        <time>2023-09-24T09:31:07.201Z</time>
      </trkpt>
      <trkpt lat="43.03389" lon="0.56484">
        <ele>514.418125</ele>
        <time>2023-09-24T09:31:09.186Z</time>
      </trkpt>
      <trkpt lat="43.03382" lon="0.56491">
        <ele>514.047776</ele>
        <time>2023-09-24T09:31:10.215Z</time>
      </trkpt>
      <trkpt lat="43.03375" lon="0.56501">
        <ele>513.65143</ele>
        <time>2023-09-24T09:31:11.223Z</time>
      </trkpt>
      <trkpt lat="43.03365" lon="0.56521">
        <ele>512.935776</ele>
        <time>2023-09-24T09:31:13.200Z</time>
      </trkpt>
      <trkpt lat="43.03356" lon="0.56541">
        <ele>512.241587</ele>
        <time>2023-09-24T09:31:15.202Z</time>
      </trkpt>
      <trkpt lat="43.03353" lon="0.56553">
        <ele>511.876536</ele>
        <time>2023-09-24T09:31:16.204Z</time>
      </trkpt>
      <trkpt lat="43.03353" lon="0.56566">
        <ele>511.516133</ele>
        <time>2023-09-24T09:31:17.237Z</time>
      </trkpt>
      <trkpt lat="43.03354" lon="0.56578">
        <ele>511.150698</ele>
        <time>2023-09-24T09:31:18.200Z</time>
      </trkpt>
      <trkpt lat="43.03356" lon="0.56601">
        <ele>510.463875</ele>
        <time>2023-09-24T09:31:20.196Z</time>
      </trkpt>
      <trkpt lat="43.03357" lon="0.56623">
        <ele>509.857455</ele>
        <time>2023-09-24T09:31:22.214Z</time>
      </trkpt>
      <trkpt lat="43.03357" lon="0.56641">
        <ele>509.784231</ele>
        <time>2023-09-24T09:31:24.212Z</time>
      </trkpt>
      <trkpt lat="43.03353" lon="0.56658">
        <ele>509.71505</ele>
        <time>2023-09-24T09:31:26.204Z</time>
      </trkpt>
      <trkpt lat="43.03347" lon="0.56673">
        <ele>509.642633</ele>
        <time>2023-09-24T09:31:28.228Z</time>
      </trkpt>
      <trkpt lat="43.03339" lon="0.56689">
        <ele>509.56763</ele>
        <time>2023-09-24T09:31:30.181Z</time>
      </trkpt>
      <trkpt lat="43.03329" lon="0.56703">
        <ele>509.489252</ele>
        <time>2023-09-24T09:31:32.216Z</time>
      </trkpt>
      <trkpt lat="43.03318" lon="0.56716">
        <ele>509.408751</ele>
        <time>2023-09-24T09:31:34.203Z</time>
      </trkpt>
      <trkpt lat="43.03307" lon="0.56728">
        <ele>509.329122</ele>
        <time>2023-09-24T09:31:36.202Z</time>
      </trkpt>
      <trkpt lat="43.03294" lon="0.56739">
        <ele>509.248422</ele>
        <time>2023-09-24T09:31:38.207Z</time>
      </trkpt>
      <trkpt lat="43.03282" lon="0.56749">
        <ele>509.171163</ele>
        <time>2023-09-24T09:31:40.235Z</time>
      </trkpt>
      <trkpt lat="43.03271" lon="0.56759">
        <ele>509.097146</ele>
        <time>2023-09-24T09:31:42.199Z</time>
      </trkpt>
      <trkpt lat="43.03261" lon="0.56771">
        <ele>509.025788</ele>
        <time>2023-09-24T09:31:44.200Z</time>
      </trkpt>
      <trkpt lat="43.03251" lon="0.56782">
        <ele>508.953709</ele>
        <time>2023-09-24T09:31:46.211Z</time>
      </trkpt>
      <trkpt lat="43.03241" lon="0.56792">
        <ele>508.884902</ele>
        <time>2023-09-24T09:31:48.204Z</time>
      </trkpt>
      <trkpt lat="43.03231" lon="0.56804">
        <ele>508.775712</ele>
        <time>2023-09-24T09:31:50.171Z</time>
      </trkpt>
      <trkpt lat="43.03221" lon="0.56816">
        <ele>508.65536</ele>
        <time>2023-09-24T09:31:52.230Z</time>
      </trkpt>
      <trkpt lat="43.03212" lon="0.56828">
        <ele>508.539463</ele>
        <time>2023-09-24T09:31:54.197Z</time>
      </trkpt>
      <trkpt lat="43.03204" lon="0.5684">
        <ele>508.425514</ele>
        <time>2023-09-24T09:31:56.208Z</time>
      </trkpt>
      <trkpt lat="43.03195" lon="0.56852">
        <ele>508.31124</ele>
        <time>2023-09-24T09:31:58.242Z</time>
      </trkpt>
      <trkpt lat="43.03187" lon="0.56865">
        <ele>508.198978</ele>
        <time>2023-09-24T09:32:00.206Z</time>
      </trkpt>
      <trkpt lat="43.03179" lon="0.56878">
        <ele>508.085543</ele>
        <time>2023-09-24T09:32:02.205Z</time>
      </trkpt>
      <trkpt lat="43.03171" lon="0.56891">
        <ele>507.97005</ele>
        <time>2023-09-24T09:32:04.200Z</time>
      </trkpt>
      <trkpt lat="43.03163" lon="0.56905">
        <ele>507.854412</ele>
        <time>2023-09-24T09:32:06.211Z</time>
      </trkpt>
      <trkpt lat="43.03156" lon="0.56918">
        <ele>507.738833</ele>
        <time>2023-09-24T09:32:08.209Z</time>
      </trkpt>
      <trkpt lat="43.03148" lon="0.56931">
        <ele>507.626057</ele>
        <time>2023-09-24T09:32:10.198Z</time>
      </trkpt>
      <trkpt lat="43.03141" lon="0.56944">
        <ele>507.515464</ele>
        <time>2023-09-24T09:32:12.192Z</time>
      </trkpt>
      <trkpt lat="43.03133" lon="0.56957">
        <ele>507.404843</ele>
        <time>2023-09-24T09:32:14.198Z</time>
      </trkpt>
      <trkpt lat="43.03127" lon="0.5697">
        <ele>507.304557</ele>
        <time>2023-09-24T09:32:16.212Z</time>
      </trkpt>
      <trkpt lat="43.03119" lon="0.56982">
        <ele>507.231807</ele>
        <time>2023-09-24T09:32:19.181Z</time>
      </trkpt>
      <trkpt lat="43.03109" lon="0.57002">
        <ele>507.297781</ele>
        <time>2023-09-24T09:33:00.207Z</time>
      </trkpt>
      <trkpt lat="43.03101" lon="0.57016">
        <ele>507.345555</ele>
        <time>2023-09-24T09:33:03.194Z</time>
      </trkpt>
      <trkpt lat="43.03096" lon="0.57026">
        <ele>507.379534</ele>
        <time>2023-09-24T09:33:05.195Z</time>
      </trkpt>
      <trkpt lat="43.0309" lon="0.57036">
        <ele>507.413072</ele>
        <time>2023-09-24T09:33:07.209Z</time>
      </trkpt>
      <trkpt lat="43.03084" lon="0.57047">
        <ele>507.449692</ele>
        <time>2023-09-24T09:33:09.221Z</time>
      </trkpt>
      <trkpt lat="43.03077" lon="0.57058">
        <ele>507.489422</ele>
        <time>2023-09-24T09:33:11.215Z</time>
      </trkpt>
      <trkpt lat="43.03071" lon="0.57069">
        <ele>507.528917</ele>
        <time>2023-09-24T09:33:13.223Z</time>
      </trkpt>
      <trkpt lat="43.03064" lon="0.5708">
        <ele>507.567575</ele>
        <time>2023-09-24T09:33:15.205Z</time>
      </trkpt>
      <trkpt lat="43.03057" lon="0.57092">
        <ele>507.60705</ele>
        <time>2023-09-24T09:33:17.196Z</time>
      </trkpt>
      <trkpt lat="43.03051" lon="0.57103">
        <ele>507.646059</ele>
        <time>2023-09-24T09:33:19.262Z</time>
      </trkpt>
      <trkpt lat="43.03045" lon="0.57115">
        <ele>507.685943</ele>
        <time>2023-09-24T09:33:21.190Z</time>
      </trkpt>
      <trkpt lat="43.03039" lon="0.57127">
        <ele>507.72649</ele>
        <time>2023-09-24T09:33:23.191Z</time>
      </trkpt>
      <trkpt lat="43.03032" lon="0.5714">
        <ele>507.767967</ele>
        <time>2023-09-24T09:33:25.193Z</time>
      </trkpt>
      <trkpt lat="43.03026" lon="0.57152">
        <ele>507.808948</ele>
        <time>2023-09-24T09:33:27.196Z</time>
      </trkpt>
      <trkpt lat="43.0302" lon="0.57165">
        <ele>507.849956</ele>
        <time>2023-09-24T09:33:29.204Z</time>
      </trkpt>
      <trkpt lat="43.03015" lon="0.57179">
        <ele>507.904759</ele>
        <time>2023-09-24T09:33:31.202Z</time>
      </trkpt>
      <trkpt lat="43.03009" lon="0.57192">
        <ele>508.112309</ele>
        <time>2023-09-24T09:33:33.217Z</time>
      </trkpt>
      <trkpt lat="43.03003" lon="0.57205">
        <ele>508.315755</ele>
        <time>2023-09-24T09:33:35.203Z</time>
      </trkpt>
      <trkpt lat="43.02997" lon="0.57218">
        <ele>508.508347</ele>
        <time>2023-09-24T09:33:37.195Z</time>
      </trkpt>
      <trkpt lat="43.02991" lon="0.57231">
        <ele>508.707299</ele>
        <time>2023-09-24T09:33:39.198Z</time>
      </trkpt>
      <trkpt lat="43.02986" lon="0.57243">
        <ele>508.893362</ele>
        <time>2023-09-24T09:33:41.195Z</time>
      </trkpt>
      <trkpt lat="43.02981" lon="0.57254">
        <ele>509.063705</ele>
        <time>2023-09-24T09:33:43.201Z</time>
      </trkpt>
      <trkpt lat="43.02976" lon="0.57265">
        <ele>509.234586</ele>
        <time>2023-09-24T09:33:45.183Z</time>
      </trkpt>
      <trkpt lat="43.02971" lon="0.57277">
        <ele>509.414587</ele>
        <time>2023-09-24T09:33:47.201Z</time>
      </trkpt>
      <trkpt lat="43.02966" lon="0.57288">
        <ele>509.591287</ele>
        <time>2023-09-24T09:33:49.196Z</time>
      </trkpt>
      <trkpt lat="43.02959" lon="0.57304">
        <ele>509.825797</ele>
        <time>2023-09-24T09:33:52.221Z</time>
      </trkpt>
      <trkpt lat="43.02953" lon="0.57314">
        <ele>509.998051</ele>
        <time>2023-09-24T09:33:54.214Z</time>
      </trkpt>
      <trkpt lat="43.02947" lon="0.57323">
        <ele>510.16708</ele>
        <time>2023-09-24T09:33:56.219Z</time>
      </trkpt>
      <trkpt lat="43.0294" lon="0.57332">
        <ele>510.336794</ele>
        <time>2023-09-24T09:33:59.203Z</time>
      </trkpt>
      <trkpt lat="43.0294" lon="0.57347">
        <ele>510.524658</ele>
        <time>2023-09-24T09:34:11.201Z</time>
      </trkpt>
      <trkpt lat="43.02948" lon="0.57354">
        <ele>510.690802</ele>
        <time>2023-09-24T09:34:14.196Z</time>
      </trkpt>
      <trkpt lat="43.02957" lon="0.57363">
        <ele>510.893496</ele>
        <time>2023-09-24T09:34:17.217Z</time>
      </trkpt>
      <trkpt lat="43.02966" lon="0.57373">
        <ele>511.105265</ele>
        <time>2023-09-24T09:34:19.202Z</time>
      </trkpt>
      <trkpt lat="43.02976" lon="0.57382">
        <ele>511.039922</ele>
        <time>2023-09-24T09:34:21.200Z</time>
      </trkpt>
      <trkpt lat="43.02984" lon="0.57391">
        <ele>510.956783</ele>
        <time>2023-09-24T09:34:23.204Z</time>
      </trkpt>
      <trkpt lat="43.02992" lon="0.57399">
        <ele>510.882423</ele>
        <time>2023-09-24T09:34:25.199Z</time>
      </trkpt>
      <trkpt lat="43.03001" lon="0.57408">
        <ele>510.800877</ele>
        <time>2023-09-24T09:34:27.193Z</time>
      </trkpt>
      <trkpt lat="43.0301" lon="0.57417">
        <ele>510.715597</ele>
        <time>2023-09-24T09:34:29.200Z</time>
      </trkpt>
      <trkpt lat="43.0302" lon="0.57426">
        <ele>510.625706</ele>
        <time>2023-09-24T09:34:31.189Z</time>
      </trkpt>
      <trkpt lat="43.0303" lon="0.57436">
        <ele>510.534568</ele>
        <time>2023-09-24T09:34:33.196Z</time>
      </trkpt>
      <trkpt lat="43.0304" lon="0.57447">
        <ele>510.437694</ele>
        <time>2023-09-24T09:34:35.200Z</time>
      </trkpt>
      <trkpt lat="43.0305" lon="0.57458">
        <ele>510.33936</ele>
        <time>2023-09-24T09:34:37.196Z</time>
      </trkpt>
      <trkpt lat="43.03061" lon="0.5747">
        <ele>510.235748</ele>
        <time>2023-09-24T09:34:39.196Z</time>
      </trkpt>
      <trkpt lat="43.03072" lon="0.57482">
        <ele>510.131073</ele>
        <time>2023-09-24T09:34:41.207Z</time>
      </trkpt>
      <trkpt lat="43.03083" lon="0.57493">
        <ele>510.022172</ele>
        <time>2023-09-24T09:34:43.194Z</time>
      </trkpt>
      <trkpt lat="43.03096" lon="0.57506">
        <ele>509.907625</ele>
        <time>2023-09-24T09:34:45.218Z</time>
      </trkpt>
      <trkpt lat="43.03108" lon="0.57518">
        <ele>509.792749</ele>
        <time>2023-09-24T09:34:47.208Z</time>
      </trkpt>
      <trkpt lat="43.0312" lon="0.57531">
        <ele>509.468033</ele>
        <time>2023-09-24T09:34:49.206Z</time>
      </trkpt>
      <trkpt lat="43.03133" lon="0.57543">
        <ele>509.080779</ele>
        <time>2023-09-24T09:34:51.200Z</time>
      </trkpt>
      <trkpt lat="43.03146" lon="0.57555">
        <ele>508.689374</ele>
        <time>2023-09-24T09:34:53.193Z</time>
      </trkpt>
      <trkpt lat="43.03158" lon="0.57569">
        <ele>508.286974</ele>
        <time>2023-09-24T09:34:55.205Z</time>
      </trkpt>
      <trkpt lat="43.03171" lon="0.57582">
        <ele>507.88296</ele>
        <time>2023-09-24T09:34:57.197Z</time>
      </trkpt>
      <trkpt lat="43.03184" lon="0.57595">
        <ele>507.488757</ele>
        <time>2023-09-24T09:34:59.215Z</time>
      </trkpt>
      <trkpt lat="43.03196" lon="0.57608">
        <ele>507.087475</ele>
        <time>2023-09-24T09:35:01.239Z</time>
      </trkpt>
      <trkpt lat="43.03209" lon="0.57622">
        <ele>506.680848</ele>
        <time>2023-09-24T09:35:03.196Z</time>
      </trkpt>
      <trkpt lat="43.03222" lon="0.57636">
        <ele>506.264031</ele>
        <time>2023-09-24T09:35:05.202Z</time>
      </trkpt>
      <trkpt lat="43.03236" lon="0.57649">
        <ele>505.840419</ele>
        <time>2023-09-24T09:35:07.197Z</time>
      </trkpt>
      <trkpt lat="43.0325" lon="0.57663">
        <ele>505.41449</ele>
        <time>2023-09-24T09:35:09.194Z</time>
      </trkpt>
      <trkpt lat="43.03263" lon="0.57677">
        <ele>505.169549</ele>
        <time>2023-09-24T09:35:11.214Z</time>
      </trkpt>
      <trkpt lat="43.03276" lon="0.57692">
        <ele>505.034765</ele>
        <time>2023-09-24T09:35:13.200Z</time>
      </trkpt>
      <trkpt lat="43.03289" lon="0.57706">
        <ele>504.896589</ele>
        <time>2023-09-24T09:35:15.208Z</time>
      </trkpt>
      <trkpt lat="43.03302" lon="0.57721">
        <ele>504.759815</ele>
        <time>2023-09-24T09:35:17.205Z</time>
      </trkpt>
      <trkpt lat="43.03314" lon="0.57736">
        <ele>504.626973</ele>
        <time>2023-09-24T09:35:19.206Z</time>
      </trkpt>
      <trkpt lat="43.03325" lon="0.57752">
        <ele>504.498267</ele>
        <time>2023-09-24T09:35:21.191Z</time>
      </trkpt>
      <trkpt lat="43.03332" lon="0.57772">
        <ele>504.37409</ele>
        <time>2023-09-24T09:35:23.224Z</time>
      </trkpt>
      <trkpt lat="43.03336" lon="0.57793">
        <ele>504.24452</ele>
        <time>2023-09-24T09:35:25.207Z</time>
      </trkpt>
      <trkpt lat="43.03342" lon="0.57813">
        <ele>504.119608</ele>
        <time>2023-09-24T09:35:27.200Z</time>
      </trkpt>
      <trkpt lat="43.03348" lon="0.5783">
        <ele>504.002157</ele>
        <time>2023-09-24T09:35:29.219Z</time>
      </trkpt>
      <trkpt lat="43.03356" lon="0.57845">
        <ele>503.896657</ele>
        <time>2023-09-24T09:35:31.202Z</time>
      </trkpt>
      <trkpt lat="43.03361" lon="0.57858">
        <ele>503.81</ele>
        <time>2023-09-24T09:35:33.210Z</time>
      </trkpt>
      <trkpt lat="43.03363" lon="0.57871">
        <ele>503.874259</ele>
        <time>2023-09-24T09:35:35.195Z</time>
      </trkpt>
      <trkpt lat="43.03363" lon="0.57884">
        <ele>503.954001</ele>
        <time>2023-09-24T09:35:37.195Z</time>
      </trkpt>
      <trkpt lat="43.0336" lon="0.57899">
        <ele>504.042653</ele>
        <time>2023-09-24T09:35:39.211Z</time>
      </trkpt>
      <trkpt lat="43.03357" lon="0.57914">
        <ele>504.133715</ele>
        <time>2023-09-24T09:35:41.199Z</time>
      </trkpt>
      <trkpt lat="43.03352" lon="0.57931">
        <ele>504.236754</ele>
        <time>2023-09-24T09:35:43.209Z</time>
      </trkpt>
      <trkpt lat="43.03349" lon="0.57948">
        <ele>504.340732</ele>
        <time>2023-09-24T09:35:45.193Z</time>
      </trkpt>
      <trkpt lat="43.03344" lon="0.57963">
        <ele>504.437153</ele>
        <time>2023-09-24T09:35:47.200Z</time>
      </trkpt>
      <trkpt lat="43.03341" lon="0.5798">
        <ele>504.541131</ele>
        <time>2023-09-24T09:35:49.205Z</time>
      </trkpt>
      <trkpt lat="43.03337" lon="0.57997">
        <ele>504.64361</ele>
        <time>2023-09-24T09:35:51.178Z</time>
      </trkpt>
      <trkpt lat="43.03335" lon="0.58014">
        <ele>504.742584</ele>
        <time>2023-09-24T09:35:53.187Z</time>
      </trkpt>
      <trkpt lat="43.03333" lon="0.58029">
        <ele>504.831626</ele>
        <time>2023-09-24T09:35:55.215Z</time>
      </trkpt>
      <trkpt lat="43.03331" lon="0.58044">
        <ele>504.925211</ele>
        <time>2023-09-24T09:35:57.195Z</time>
      </trkpt>
      <trkpt lat="43.03328" lon="0.5806">
        <ele>505.019861</ele>
        <time>2023-09-24T09:35:59.205Z</time>
      </trkpt>
      <trkpt lat="43.03326" lon="0.58076">
        <ele>505.116541</ele>
        <time>2023-09-24T09:36:01.210Z</time>
      </trkpt>
      <trkpt lat="43.03323" lon="0.58092">
        <ele>505.21298</ele>
        <time>2023-09-24T09:36:03.187Z</time>
      </trkpt>
      <trkpt lat="43.0332" lon="0.58108">
        <ele>505.322484</ele>
        <time>2023-09-24T09:36:05.200Z</time>
      </trkpt>
      <trkpt lat="43.03318" lon="0.58125">
        <ele>505.439706</ele>
        <time>2023-09-24T09:36:07.194Z</time>
      </trkpt>
      <trkpt lat="43.03315" lon="0.58142">
        <ele>505.557952</ele>
        <time>2023-09-24T09:36:09.192Z</time>
      </trkpt>
      <trkpt lat="43.03313" lon="0.5816">
        <ele>505.676307</ele>
        <time>2023-09-24T09:36:11.199Z</time>
      </trkpt>
      <trkpt lat="43.03312" lon="0.58177">
        <ele>505.7986</ele>
        <time>2023-09-24T09:36:13.216Z</time>
      </trkpt>
      <trkpt lat="43.03311" lon="0.58195">
        <ele>505.9171</ele>
        <time>2023-09-24T09:36:15.195Z</time>
      </trkpt>
      <trkpt lat="43.03311" lon="0.58212">
        <ele>506.035784</ele>
        <time>2023-09-24T09:36:17.191Z</time>
      </trkpt>
      <trkpt lat="43.03311" lon="0.58229">
        <ele>506.149799</ele>
        <time>2023-09-24T09:36:19.197Z</time>
      </trkpt>
      <trkpt lat="43.03311" lon="0.58245">
        <ele>506.259602</ele>
        <time>2023-09-24T09:36:21.196Z</time>
      </trkpt>
      <trkpt lat="43.0331" lon="0.5826">
        <ele>506.365794</ele>
        <time>2023-09-24T09:36:23.189Z</time>
      </trkpt>
      <trkpt lat="43.03309" lon="0.58277">
        <ele>506.478096</ele>
        <time>2023-09-24T09:36:25.197Z</time>
      </trkpt>
      <trkpt lat="43.03307" lon="0.58295">
        <ele>506.602249</ele>
        <time>2023-09-24T09:36:27.200Z</time>
      </trkpt>
      <trkpt lat="43.03307" lon="0.58314">
        <ele>506.733204</ele>
        <time>2023-09-24T09:36:29.199Z</time>
      </trkpt>
      <trkpt lat="43.03309" lon="0.58332">
        <ele>506.853928</ele>
        <time>2023-09-24T09:36:31.188Z</time>
      </trkpt>
      <trkpt lat="43.03311" lon="0.58349">
        <ele>506.923824</ele>
        <time>2023-09-24T09:36:33.198Z</time>
      </trkpt>
      <trkpt lat="43.03315" lon="0.58366">
        <ele>506.929093</ele>
        <time>2023-09-24T09:36:35.198Z</time>
      </trkpt>
      <trkpt lat="43.03318" lon="0.58382">
        <ele>506.934293</ele>
        <time>2023-09-24T09:36:37.179Z</time>
      </trkpt>
      <trkpt lat="43.03322" lon="0.58398">
        <ele>506.939615</ele>
        <time>2023-09-24T09:36:39.197Z</time>
      </trkpt>
      <trkpt lat="43.03325" lon="0.58416">
        <ele>506.945172</ele>
        <time>2023-09-24T09:36:41.193Z</time>
      </trkpt>
      <trkpt lat="43.03328" lon="0.58432">
        <ele>506.950398</ele>
        <time>2023-09-24T09:36:43.197Z</time>
      </trkpt>
      <trkpt lat="43.03331" lon="0.5845">
        <ele>506.956108</ele>
        <time>2023-09-24T09:36:45.199Z</time>
      </trkpt>
      <trkpt lat="43.03333" lon="0.58468">
        <ele>506.961817</ele>
        <time>2023-09-24T09:36:47.198Z</time>
      </trkpt>
      <trkpt lat="43.03336" lon="0.58487">
        <ele>506.967527</ele>
        <time>2023-09-24T09:36:49.207Z</time>
      </trkpt>
      <trkpt lat="43.03338" lon="0.58506">
        <ele>506.973601</ele>
        <time>2023-09-24T09:36:51.218Z</time>
      </trkpt>
      <trkpt lat="43.03341" lon="0.58524">
        <ele>506.979441</ele>
        <time>2023-09-24T09:36:53.201Z</time>
      </trkpt>
      <trkpt lat="43.03345" lon="0.58543">
        <ele>506.98541</ele>
        <time>2023-09-24T09:36:55.198Z</time>
      </trkpt>
      <trkpt lat="43.03351" lon="0.58561">
        <ele>506.99144</ele>
        <time>2023-09-24T09:36:57.196Z</time>
      </trkpt>
      <trkpt lat="43.03358" lon="0.58578">
        <ele>506.992653</ele>
        <time>2023-09-24T09:36:59.199Z</time>
      </trkpt>
      <trkpt lat="43.03366" lon="0.58594">
        <ele>506.859935</ele>
        <time>2023-09-24T09:37:01.201Z</time>
      </trkpt>
      <trkpt lat="43.03374" lon="0.58611">
        <ele>506.729012</ele>
        <time>2023-09-24T09:37:03.204Z</time>
      </trkpt>
      <trkpt lat="43.0338" lon="0.58628">
        <ele>506.599828</ele>
        <time>2023-09-24T09:37:05.213Z</time>
      </trkpt>
      <trkpt lat="43.03387" lon="0.58645">
        <ele>506.465187</ele>
        <time>2023-09-24T09:37:07.205Z</time>
      </trkpt>
      <trkpt lat="43.03394" lon="0.58665">
        <ele>506.321124</ele>
        <time>2023-09-24T09:37:09.198Z</time>
      </trkpt>
      <trkpt lat="43.034" lon="0.58683">
        <ele>506.184468</ele>
        <time>2023-09-24T09:37:11.208Z</time>
      </trkpt>
      <trkpt lat="43.03405" lon="0.58701">
        <ele>506.055733</ele>
        <time>2023-09-24T09:37:13.196Z</time>
      </trkpt>
      <trkpt lat="43.03411" lon="0.58717">
        <ele>505.933239</ele>
        <time>2023-09-24T09:37:15.183Z</time>
      </trkpt>
      <trkpt lat="43.03417" lon="0.58733">
        <ele>505.811133</ele>
        <time>2023-09-24T09:37:17.217Z</time>
      </trkpt>
      <trkpt lat="43.03423" lon="0.5875">
        <ele>505.686383</ele>
        <time>2023-09-24T09:37:19.199Z</time>
      </trkpt>
      <trkpt lat="43.0343" lon="0.58767">
        <ele>505.555743</ele>
        <time>2023-09-24T09:37:21.195Z</time>
      </trkpt>
      <trkpt lat="43.03437" lon="0.58784">
        <ele>505.424143</ele>
        <time>2023-09-24T09:37:23.191Z</time>
      </trkpt>
      <trkpt lat="43.03443" lon="0.58801">
        <ele>505.174457</ele>
        <time>2023-09-24T09:37:25.200Z</time>
      </trkpt>
      <trkpt lat="43.03447" lon="0.58819">
        <ele>504.681684</ele>
        <time>2023-09-24T09:37:27.203Z</time>
      </trkpt>
      <trkpt lat="43.0345" lon="0.5884">
        <ele>504.118089</ele>
        <time>2023-09-24T09:37:29.211Z</time>
      </trkpt>
      <trkpt lat="43.03452" lon="0.58862">
        <ele>503.533903</ele>
        <time>2023-09-24T09:37:31.196Z</time>
      </trkpt>
      <trkpt lat="43.03454" lon="0.58886">
        <ele>502.920346</ele>
        <time>2023-09-24T09:37:33.198Z</time>
      </trkpt>
      <trkpt lat="43.03455" lon="0.58898">
        <ele>502.596586</ele>
        <time>2023-09-24T09:37:34.175Z</time>
      </trkpt>
      <trkpt lat="43.03456" lon="0.58911">
        <ele>502.27057</ele>
        <time>2023-09-24T09:37:35.229Z</time>
      </trkpt>
      <trkpt lat="43.03456" lon="0.58924">
        <ele>501.934932</ele>
        <time>2023-09-24T09:37:36.215Z</time>
      </trkpt>
      <trkpt lat="43.03457" lon="0.58937">
        <ele>501.598844</ele>
        <time>2023-09-24T09:37:37.201Z</time>
      </trkpt>
      <trkpt lat="43.03458" lon="0.58949">
        <ele>501.277669</ele>
        <time>2023-09-24T09:37:38.212Z</time>
      </trkpt>
      <trkpt lat="43.03459" lon="0.58961">
        <ele>500.952683</ele>
        <time>2023-09-24T09:37:39.202Z</time>
      </trkpt>
      <trkpt lat="43.0346" lon="0.58974">
        <ele>500.62512</ele>
        <time>2023-09-24T09:37:40.191Z</time>
      </trkpt>
      <trkpt lat="43.03462" lon="0.58986">
        <ele>500.301692</ele>
        <time>2023-09-24T09:37:41.200Z</time>
      </trkpt>
      <trkpt lat="43.03463" lon="0.58998">
        <ele>499.973225</ele>
        <time>2023-09-24T09:37:42.190Z</time>
      </trkpt>
      <trkpt lat="43.03466" lon="0.59011">
        <ele>499.648388</ele>
        <time>2023-09-24T09:37:43.199Z</time>
      </trkpt>
      <trkpt lat="43.03468" lon="0.59023">
        <ele>499.317679</ele>
        <time>2023-09-24T09:37:44.194Z</time>
      </trkpt>
      <trkpt lat="43.0347" lon="0.59036">
        <ele>498.981097</ele>
        <time>2023-09-24T09:37:45.200Z</time>
      </trkpt>
      <trkpt lat="43.03472" lon="0.59048">
        <ele>498.714548</ele>
        <time>2023-09-24T09:37:46.223Z</time>
      </trkpt>
      <trkpt lat="43.03475" lon="0.59061">
        <ele>498.45645</ele>
        <time>2023-09-24T09:37:47.179Z</time>
      </trkpt>
      <trkpt lat="43.03477" lon="0.59073">
        <ele>498.201858</ele>
        <time>2023-09-24T09:37:48.205Z</time>
      </trkpt>
      <trkpt lat="43.03479" lon="0.59086">
        <ele>497.940854</ele>
        <time>2023-09-24T09:37:49.200Z</time>
      </trkpt>
      <trkpt lat="43.03481" lon="0.59098">
        <ele>497.695884</ele>
        <time>2023-09-24T09:37:50.204Z</time>
      </trkpt>
      <trkpt lat="43.03482" lon="0.59111">
        <ele>497.445667</ele>
        <time>2023-09-24T09:37:51.207Z</time>
      </trkpt>
      <trkpt lat="43.03481" lon="0.59136">
        <ele>496.952583</ele>
        <time>2023-09-24T09:37:53.215Z</time>
      </trkpt>
      <trkpt lat="43.03481" lon="0.59148">
        <ele>496.707031</ele>
        <time>2023-09-24T09:37:54.211Z</time>
      </trkpt>
      <trkpt lat="43.03479" lon="0.59173">
        <ele>496.216607</ele>
        <time>2023-09-24T09:37:56.191Z</time>
      </trkpt>
      <trkpt lat="43.03477" lon="0.59197">
        <ele>495.738533</ele>
        <time>2023-09-24T09:37:58.226Z</time>
      </trkpt>
      <trkpt lat="43.03475" lon="0.59219">
        <ele>495.29365</ele>
        <time>2023-09-24T09:38:00.195Z</time>
      </trkpt>
      <trkpt lat="43.03476" lon="0.59241">
        <ele>494.854399</ele>
        <time>2023-09-24T09:38:02.193Z</time>
      </trkpt>
      <trkpt lat="43.03478" lon="0.59262">
        <ele>494.42881</ele>
        <time>2023-09-24T09:38:04.241Z</time>
      </trkpt>
      <trkpt lat="43.03479" lon="0.59281">
        <ele>494.075511</ele>
        <time>2023-09-24T09:38:06.198Z</time>
      </trkpt>
      <trkpt lat="43.03481" lon="0.59296">
        <ele>494.093732</ele>
        <time>2023-09-24T09:38:08.195Z</time>
      </trkpt>
      <trkpt lat="43.03491" lon="0.59308">
        <ele>494.116067</ele>
        <time>2023-09-24T09:38:11.201Z</time>
      </trkpt>
      <trkpt lat="43.03502" lon="0.5931">
        <ele>494.134905</ele>
        <time>2023-09-24T09:38:13.203Z</time>
      </trkpt>
      <trkpt lat="43.03515" lon="0.59314">
        <ele>494.156164</ele>
        <time>2023-09-24T09:38:15.199Z</time>
      </trkpt>
      <trkpt lat="43.03528" lon="0.59317">
        <ele>494.178162</ele>
        <time>2023-09-24T09:38:17.205Z</time>
      </trkpt>
      <trkpt lat="43.03541" lon="0.59323">
        <ele>494.2009</ele>
        <time>2023-09-24T09:38:19.213Z</time>
      </trkpt>
      <trkpt lat="43.03553" lon="0.59329">
        <ele>494.221846</ele>
        <time>2023-09-24T09:38:21.203Z</time>
      </trkpt>
      <trkpt lat="43.03565" lon="0.59333">
        <ele>494.242285</ele>
        <time>2023-09-24T09:38:23.199Z</time>
      </trkpt>
      <trkpt lat="43.03575" lon="0.59338">
        <ele>494.260125</ele>
        <time>2023-09-24T09:38:25.196Z</time>
      </trkpt>
      <trkpt lat="43.03579" lon="0.59352">
        <ele>494.278226</ele>
        <time>2023-09-24T09:38:27.181Z</time>
      </trkpt>
      <trkpt lat="43.03577" lon="0.59371">
        <ele>494.300376</ele>
        <time>2023-09-24T09:38:29.202Z</time>
      </trkpt>
      <trkpt lat="43.03577" lon="0.59389">
        <ele>494.322712</ele>
        <time>2023-09-24T09:38:31.208Z</time>
      </trkpt>
      <trkpt lat="43.03577" lon="0.59407">
        <ele>494.343965</ele>
        <time>2023-09-24T09:38:33.195Z</time>
      </trkpt>
      <trkpt lat="43.03576" lon="0.59423">
        <ele>494.362994</ele>
        <time>2023-09-24T09:38:35.190Z</time>
      </trkpt>
      <trkpt lat="43.03576" lon="0.59437">
        <ele>494.59212</ele>
        <time>2023-09-24T09:38:37.194Z</time>
      </trkpt>
      <trkpt lat="43.03576" lon="0.59451">
        <ele>494.935956</ele>
        <time>2023-09-24T09:38:39.199Z</time>
      </trkpt>
      <trkpt lat="43.03576" lon="0.59463">
        <ele>495.261839</ele>
        <time>2023-09-24T09:38:41.201Z</time>
      </trkpt>
      <trkpt lat="43.03577" lon="0.59482">
        <ele>495.732371</ele>
        <time>2023-09-24T09:38:44.219Z</time>
      </trkpt>
      <trkpt lat="43.03579" lon="0.59499">
        <ele>496.187295</ele>
        <time>2023-09-24T09:38:47.201Z</time>
      </trkpt>
      <trkpt lat="43.03584" lon="0.59516">
        <ele>496.651609</ele>
        <time>2023-09-24T09:38:50.213Z</time>
      </trkpt>
      <trkpt lat="43.03591" lon="0.59531">
        <ele>497.109586</ele>
        <time>2023-09-24T09:38:53.198Z</time>
      </trkpt>
      <trkpt lat="43.03597" lon="0.59546">
        <ele>497.564052</ele>
        <time>2023-09-24T09:38:56.214Z</time>
      </trkpt>
      <trkpt lat="43.03604" lon="0.59561">
        <ele>497.999803</ele>
        <time>2023-09-24T09:38:59.197Z</time>
      </trkpt>
      <trkpt lat="43.03611" lon="0.59577">
        <ele>498.487011</ele>
        <time>2023-09-24T09:39:02.227Z</time>
      </trkpt>
      <trkpt lat="43.03618" lon="0.59593">
        <ele>498.966757</ele>
        <time>2023-09-24T09:39:05.177Z</time>
      </trkpt>
      <trkpt lat="43.03622" lon="0.59605">
        <ele>499.299752</ele>
        <time>2023-09-24T09:39:07.197Z</time>
      </trkpt>
      <trkpt lat="43.03626" lon="0.59618">
        <ele>499.662626</ele>
        <time>2023-09-24T09:39:09.213Z</time>
      </trkpt>
      <trkpt lat="43.0363" lon="0.59632">
        <ele>500.049536</ele>
        <time>2023-09-24T09:39:11.203Z</time>
      </trkpt>
      <trkpt lat="43.03634" lon="0.59648">
        <ele>500.485666</ele>
        <time>2023-09-24T09:39:13.227Z</time>
      </trkpt>
      <trkpt lat="43.03638" lon="0.59665">
        <ele>500.681078</ele>
        <time>2023-09-24T09:39:15.222Z</time>
      </trkpt>
      <trkpt lat="43.03641" lon="0.59684">
        <ele>500.677849</ele>
        <time>2023-09-24T09:39:17.213Z</time>
      </trkpt>
      <trkpt lat="43.03645" lon="0.59701">
        <ele>500.674794</ele>
        <time>2023-09-24T09:39:19.230Z</time>
      </trkpt>
      <trkpt lat="43.03648" lon="0.5972">
        <ele>500.671527</ele>
        <time>2023-09-24T09:39:21.197Z</time>
      </trkpt>
      <trkpt lat="43.03651" lon="0.59739">
        <ele>500.668131</ele>
        <time>2023-09-24T09:39:23.202Z</time>
      </trkpt>
      <trkpt lat="43.03655" lon="0.59759">
        <ele>500.664596</ele>
        <time>2023-09-24T09:39:25.225Z</time>
      </trkpt>
      <trkpt lat="43.03661" lon="0.59779">
        <ele>500.661052</ele>
        <time>2023-09-24T09:39:27.211Z</time>
      </trkpt>
      <trkpt lat="43.03667" lon="0.59798">
        <ele>500.657558</ele>
        <time>2023-09-24T09:39:29.201Z</time>
      </trkpt>
      <trkpt lat="43.03674" lon="0.59815">
        <ele>500.654283</ele>
        <time>2023-09-24T09:39:31.230Z</time>
      </trkpt>
      <trkpt lat="43.0368" lon="0.59831">
        <ele>500.651145</ele>
        <time>2023-09-24T09:39:33.200Z</time>
      </trkpt>
      <trkpt lat="43.03686" lon="0.59848">
        <ele>500.647937</ele>
        <time>2023-09-24T09:39:35.197Z</time>
      </trkpt>
      <trkpt lat="43.03693" lon="0.59864">
        <ele>500.644786</ele>
        <time>2023-09-24T09:39:37.195Z</time>
      </trkpt>
      <trkpt lat="43.03699" lon="0.59882">
        <ele>500.641504</ele>
        <time>2023-09-24T09:39:39.218Z</time>
      </trkpt>
      <trkpt lat="43.03706" lon="0.59899">
        <ele>500.568793</ele>
        <time>2023-09-24T09:39:41.201Z</time>
      </trkpt>
      <trkpt lat="43.03712" lon="0.59916">
        <ele>500.485536</ele>
        <time>2023-09-24T09:39:43.195Z</time>
      </trkpt>
      <trkpt lat="43.03718" lon="0.59933">
        <ele>500.402998</ele>
        <time>2023-09-24T09:39:45.202Z</time>
      </trkpt>
      <trkpt lat="43.03725" lon="0.59949">
        <ele>500.322529</ele>
        <time>2023-09-24T09:39:47.204Z</time>
      </trkpt>
      <trkpt lat="43.03731" lon="0.59963">
        <ele>500.250045</ele>
        <time>2023-09-24T09:39:49.197Z</time>
      </trkpt>
      <trkpt lat="43.03737" lon="0.59978">
        <ele>500.180006</ele>
        <time>2023-09-24T09:39:51.201Z</time>
      </trkpt>
      <trkpt lat="43.03743" lon="0.59992">
        <ele>500.109844</ele>
        <time>2023-09-24T09:39:53.182Z</time>
      </trkpt>
      <trkpt lat="43.03749" lon="0.60007">
        <ele>500.035642</ele>
        <time>2023-09-24T09:39:55.195Z</time>
      </trkpt>
      <trkpt lat="43.03754" lon="0.60023">
        <ele>499.957578</ele>
        <time>2023-09-24T09:39:57.204Z</time>
      </trkpt>
      <trkpt lat="43.03759" lon="0.60039">
        <ele>499.883792</ele>
        <time>2023-09-24T09:39:59.196Z</time>
      </trkpt>
      <trkpt lat="43.03762" lon="0.60056">
        <ele>499.808952</ele>
        <time>2023-09-24T09:40:01.195Z</time>
      </trkpt>
      <trkpt lat="43.03764" lon="0.60073">
        <ele>499.731581</ele>
        <time>2023-09-24T09:40:03.199Z</time>
      </trkpt>
      <trkpt lat="43.03764" lon="0.60092">
        <ele>499.64885</ele>
        <time>2023-09-24T09:40:05.213Z</time>
      </trkpt>
      <trkpt lat="43.03762" lon="0.60112">
        <ele>499.574429</ele>
        <time>2023-09-24T09:40:07.210Z</time>
      </trkpt>
      <trkpt lat="43.0376" lon="0.60131">
        <ele>499.56206</ele>
        <time>2023-09-24T09:40:09.200Z</time>
      </trkpt>
      <trkpt lat="43.03759" lon="0.60147">
        <ele>499.550942</ele>
        <time>2023-09-24T09:40:11.209Z</time>
      </trkpt>
      <trkpt lat="43.03757" lon="0.60164">
        <ele>499.539749</ele>
        <time>2023-09-24T09:40:13.202Z</time>
      </trkpt>
      <trkpt lat="43.03756" lon="0.60179">
        <ele>499.529948</ele>
        <time>2023-09-24T09:40:15.196Z</time>
      </trkpt>
      <trkpt lat="43.03755" lon="0.60194">
        <ele>499.520332</ele>
        <time>2023-09-24T09:40:17.200Z</time>
      </trkpt>
      <trkpt lat="43.03755" lon="0.60209">
        <ele>499.510608</ele>
        <time>2023-09-24T09:40:19.181Z</time>
      </trkpt>
      <trkpt lat="43.03756" lon="0.60222">
        <ele>499.502185</ele>
        <time>2023-09-24T09:40:21.215Z</time>
      </trkpt>
      <trkpt lat="43.03756" lon="0.60235">
        <ele>499.493769</ele>
        <time>2023-09-24T09:40:23.202Z</time>
      </trkpt>
      <trkpt lat="43.03755" lon="0.60254">
        <ele>499.481503</ele>
        <time>2023-09-24T09:40:26.253Z</time>
      </trkpt>
      <trkpt lat="43.03756" lon="0.60266">
        <ele>499.473252</ele>
        <time>2023-09-24T09:40:28.202Z</time>
      </trkpt>
      <trkpt lat="43.03757" lon="0.6028">
        <ele>499.464564</ele>
        <time>2023-09-24T09:40:30.202Z</time>
      </trkpt>
      <trkpt lat="43.03756" lon="0.60293">
        <ele>499.455692</ele>
        <time>2023-09-24T09:40:32.242Z</time>
      </trkpt>
      <trkpt lat="43.03754" lon="0.60308">
        <ele>499.445711</ele>
        <time>2023-09-24T09:40:34.197Z</time>
      </trkpt>
      <trkpt lat="43.03752" lon="0.60323">
        <ele>499.436165</ele>
        <time>2023-09-24T09:40:36.183Z</time>
      </trkpt>
      <trkpt lat="43.0375" lon="0.60335">
        <ele>499.427543</ele>
        <time>2023-09-24T09:40:38.227Z</time>
      </trkpt>
      <trkpt lat="43.03747" lon="0.60352">
        <ele>499.416134</ele>
        <time>2023-09-24T09:40:41.205Z</time>
      </trkpt>
      <trkpt lat="43.03744" lon="0.60365">
        <ele>499.487556</ele>
        <time>2023-09-24T09:40:43.202Z</time>
      </trkpt>
      <trkpt lat="43.03741" lon="0.60379">
        <ele>499.572844</ele>
        <time>2023-09-24T09:40:45.203Z</time>
      </trkpt>
      <trkpt lat="43.03738" lon="0.60393">
        <ele>499.657446</ele>
        <time>2023-09-24T09:40:47.194Z</time>
      </trkpt>
      <trkpt lat="43.03735" lon="0.60406">
        <ele>499.738269</ele>
        <time>2023-09-24T09:40:49.193Z</time>
      </trkpt>
      <trkpt lat="43.03733" lon="0.60418">
        <ele>499.81174</ele>
        <time>2023-09-24T09:40:51.181Z</time>
      </trkpt>
      <trkpt lat="43.03729" lon="0.60434">
        <ele>499.915435</ele>
        <time>2023-09-24T09:40:54.213Z</time>
      </trkpt>
      <trkpt lat="43.03725" lon="0.60453">
        <ele>500.028626</ele>
        <time>2023-09-24T09:40:57.215Z</time>
      </trkpt>
      <trkpt lat="43.03721" lon="0.60466">
        <ele>500.11173</ele>
        <time>2023-09-24T09:40:59.213Z</time>
      </trkpt>
      <trkpt lat="43.03717" lon="0.60479">
        <ele>500.196546</ele>
        <time>2023-09-24T09:41:01.223Z</time>
      </trkpt>
      <trkpt lat="43.03712" lon="0.60492">
        <ele>500.27961</ele>
        <time>2023-09-24T09:41:03.201Z</time>
      </trkpt>
      <trkpt lat="43.03706" lon="0.60503">
        <ele>500.362457</ele>
        <time>2023-09-24T09:41:05.202Z</time>
      </trkpt>
      <trkpt lat="43.03699" lon="0.60515">
        <ele>500.452068</ele>
        <time>2023-09-24T09:41:07.232Z</time>
      </trkpt>
      <trkpt lat="43.03692" lon="0.60527">
        <ele>500.546066</ele>
        <time>2023-09-24T09:41:09.213Z</time>
      </trkpt>
      <trkpt lat="43.03685" lon="0.60541">
        <ele>500.643179</ele>
        <time>2023-09-24T09:41:11.203Z</time>
      </trkpt>
      <trkpt lat="43.03679" lon="0.60555">
        <ele>500.740778</ele>
        <time>2023-09-24T09:41:13.212Z</time>
      </trkpt>
      <trkpt lat="43.03675" lon="0.60571">
        <ele>500.839359</ele>
        <time>2023-09-24T09:41:15.206Z</time>
      </trkpt>
      <trkpt lat="43.03672" lon="0.60587">
        <ele>500.942219</ele>
        <time>2023-09-24T09:41:17.197Z</time>
      </trkpt>
      <trkpt lat="43.03672" lon="0.60602">
        <ele>501.04302</ele>
        <time>2023-09-24T09:41:19.230Z</time>
      </trkpt>
      <trkpt lat="43.03675" lon="0.60617">
        <ele>501.137821</ele>
        <time>2023-09-24T09:41:21.208Z</time>
      </trkpt>
      <trkpt lat="43.03676" lon="0.6063">
        <ele>501.226974</ele>
        <time>2023-09-24T09:41:24.209Z</time>
      </trkpt>
      <trkpt lat="43.03679" lon="0.60645">
        <ele>501.324966</ele>
        <time>2023-09-24T09:41:51.217Z</time>
      </trkpt>
      <trkpt lat="43.03685" lon="0.6066">
        <ele>501.432485</ele>
        <time>2023-09-24T09:41:54.199Z</time>
      </trkpt>
      <trkpt lat="43.0369" lon="0.60672">
        <ele>501.524419</ele>
        <time>2023-09-24T09:41:56.202Z</time>
      </trkpt>
      <trkpt lat="43.0369" lon="0.60685">
        <ele>501.606004</ele>
        <time>2023-09-24T09:41:58.202Z</time>
      </trkpt>
      <trkpt lat="43.03686" lon="0.60697">
        <ele>501.692178</ele>
        <time>2023-09-24T09:42:00.213Z</time>
      </trkpt>
      <trkpt lat="43.0368" lon="0.60708">
        <ele>501.783523</ele>
        <time>2023-09-24T09:42:02.184Z</time>
      </trkpt>
      <trkpt lat="43.03674" lon="0.60721">
        <ele>501.883678</ele>
        <time>2023-09-24T09:42:04.198Z</time>
      </trkpt>
      <trkpt lat="43.03667" lon="0.60735">
        <ele>501.989213</ele>
        <time>2023-09-24T09:42:06.206Z</time>
      </trkpt>
      <trkpt lat="43.03663" lon="0.6075">
        <ele>502.094246</ele>
        <time>2023-09-24T09:42:08.203Z</time>
      </trkpt>
      <trkpt lat="43.0366" lon="0.60766">
        <ele>502.200131</ele>
        <time>2023-09-24T09:42:10.202Z</time>
      </trkpt>
      <trkpt lat="43.03657" lon="0.60781">
        <ele>502.299536</ele>
        <time>2023-09-24T09:42:12.190Z</time>
      </trkpt>
      <trkpt lat="43.03654" lon="0.60795">
        <ele>502.394801</ele>
        <time>2023-09-24T09:42:14.224Z</time>
      </trkpt>
      <trkpt lat="43.0365" lon="0.6081">
        <ele>502.450293</ele>
        <time>2023-09-24T09:42:16.210Z</time>
      </trkpt>
      <trkpt lat="43.03645" lon="0.60826">
        <ele>502.433379</ele>
        <time>2023-09-24T09:42:18.192Z</time>
      </trkpt>
      <trkpt lat="43.03639" lon="0.60842">
        <ele>502.416666</ele>
        <time>2023-09-24T09:42:20.213Z</time>
      </trkpt>
      <trkpt lat="43.03633" lon="0.60857">
        <ele>502.400038</ele>
        <time>2023-09-24T09:42:22.218Z</time>
      </trkpt>
      <trkpt lat="43.03627" lon="0.60873">
        <ele>502.382418</ele>
        <time>2023-09-24T09:42:24.188Z</time>
      </trkpt>
      <trkpt lat="43.03622" lon="0.60891">
        <ele>502.364353</ele>
        <time>2023-09-24T09:42:26.196Z</time>
      </trkpt>
      <trkpt lat="43.03618" lon="0.60908">
        <ele>502.346495</ele>
        <time>2023-09-24T09:42:28.214Z</time>
      </trkpt>
      <trkpt lat="43.03614" lon="0.60925">
        <ele>502.329799</ele>
        <time>2023-09-24T09:42:30.199Z</time>
      </trkpt>
      <trkpt lat="43.03611" lon="0.60941">
        <ele>502.313729</ele>
        <time>2023-09-24T09:42:32.198Z</time>
      </trkpt>
      <trkpt lat="43.03608" lon="0.60958">
        <ele>502.297486</ele>
        <time>2023-09-24T09:42:34.198Z</time>
      </trkpt>
      <trkpt lat="43.03606" lon="0.60974">
        <ele>502.281874</ele>
        <time>2023-09-24T09:42:36.200Z</time>
      </trkpt>
      <trkpt lat="43.03604" lon="0.6099">
        <ele>502.265611</ele>
        <time>2023-09-24T09:42:38.194Z</time>
      </trkpt>
      <trkpt lat="43.03602" lon="0.61007">
        <ele>502.249173</ele>
        <time>2023-09-24T09:42:40.211Z</time>
      </trkpt>
      <trkpt lat="43.03599" lon="0.61024">
        <ele>502.232518</ele>
        <time>2023-09-24T09:42:42.200Z</time>
      </trkpt>
      <trkpt lat="43.03595" lon="0.61041">
        <ele>502.36579</ele>
        <time>2023-09-24T09:42:44.222Z</time>
      </trkpt>
      <trkpt lat="43.03589" lon="0.61056">
        <ele>502.779554</ele>
        <time>2023-09-24T09:42:46.177Z</time>
      </trkpt>
      <trkpt lat="43.03583" lon="0.6107">
        <ele>503.183629</ele>
        <time>2023-09-24T09:42:48.208Z</time>
      </trkpt>
      <trkpt lat="43.03578" lon="0.61083">
        <ele>503.574256</ele>
        <time>2023-09-24T09:42:50.193Z</time>
      </trkpt>
      <trkpt lat="43.03572" lon="0.61095">
        <ele>503.930311</ele>
        <time>2023-09-24T09:42:52.215Z</time>
      </trkpt>
      <trkpt lat="43.03567" lon="0.61107">
        <ele>504.269481</ele>
        <time>2023-09-24T09:42:54.229Z</time>
      </trkpt>
      <trkpt lat="43.03562" lon="0.61117">
        <ele>504.57709</ele>
        <time>2023-09-24T09:42:56.218Z</time>
      </trkpt>
      <trkpt lat="43.03555" lon="0.61131">
        <ele>505.005926</ele>
        <time>2023-09-24T09:42:59.213Z</time>
      </trkpt>
      <trkpt lat="43.03546" lon="0.61142">
        <ele>505.426407</ele>
        <time>2023-09-24T09:43:02.198Z</time>
      </trkpt>
      <trkpt lat="43.03539" lon="0.61155">
        <ele>505.800909</ele>
        <time>2023-09-24T09:43:05.239Z</time>
      </trkpt>
      <trkpt lat="43.03534" lon="0.61167">
        <ele>506.166175</ele>
        <time>2023-09-24T09:43:08.240Z</time>
      </trkpt>
      <trkpt lat="43.03531" lon="0.61181">
        <ele>506.529313</ele>
        <time>2023-09-24T09:43:11.227Z</time>
      </trkpt>
      <trkpt lat="43.03529" lon="0.61196">
        <ele>506.915571</ele>
        <time>2023-09-24T09:43:14.197Z</time>
      </trkpt>
      <trkpt lat="43.03528" lon="0.61212">
        <ele>507.311089</ele>
        <time>2023-09-24T09:43:17.245Z</time>
      </trkpt>
      <trkpt lat="43.03527" lon="0.61228">
        <ele>507.717005</ele>
        <time>2023-09-24T09:43:20.211Z</time>
      </trkpt>
      <trkpt lat="43.03527" lon="0.61246">
        <ele>508.150481</ele>
        <time>2023-09-24T09:43:23.212Z</time>
      </trkpt>
      <trkpt lat="43.03528" lon="0.61258">
        <ele>508.339481</ele>
        <time>2023-09-24T09:43:25.198Z</time>
      </trkpt>
      <trkpt lat="43.03529" lon="0.61272">
        <ele>508.152302</ele>
        <time>2023-09-24T09:43:27.198Z</time>
      </trkpt>
      <trkpt lat="43.0353" lon="0.61286">
        <ele>507.958326</ele>
        <time>2023-09-24T09:43:29.203Z</time>
      </trkpt>
      <trkpt lat="43.03534" lon="0.613">
        <ele>507.755668</ele>
        <time>2023-09-24T09:43:31.201Z</time>
      </trkpt>
      <trkpt lat="43.03537" lon="0.61315">
        <ele>507.537636</ele>
        <time>2023-09-24T09:43:33.212Z</time>
      </trkpt>
      <trkpt lat="43.03539" lon="0.61331">
        <ele>507.308791</ele>
        <time>2023-09-24T09:43:35.203Z</time>
      </trkpt>
      <trkpt lat="43.03539" lon="0.6135">
        <ele>507.054162</ele>
        <time>2023-09-24T09:43:37.204Z</time>
      </trkpt>
      <trkpt lat="43.03537" lon="0.61369">
        <ele>506.782272</ele>
        <time>2023-09-24T09:43:39.200Z</time>
      </trkpt>
      <trkpt lat="43.03535" lon="0.6139">
        <ele>506.491905</ele>
        <time>2023-09-24T09:43:41.205Z</time>
      </trkpt>
      <trkpt lat="43.03537" lon="0.61411">
        <ele>506.206969</ele>
        <time>2023-09-24T09:43:43.204Z</time>
      </trkpt>
      <trkpt lat="43.03541" lon="0.6143">
        <ele>505.926628</ele>
        <time>2023-09-24T09:43:45.193Z</time>
      </trkpt>
      <trkpt lat="43.03546" lon="0.61449">
        <ele>505.659636</ele>
        <time>2023-09-24T09:43:47.212Z</time>
      </trkpt>
      <trkpt lat="43.0355" lon="0.61465">
        <ele>505.423165</ele>
        <time>2023-09-24T09:43:49.196Z</time>
      </trkpt>
      <trkpt lat="43.03553" lon="0.61481">
        <ele>505.191976</ele>
        <time>2023-09-24T09:43:51.202Z</time>
      </trkpt>
      <trkpt lat="43.03555" lon="0.61497">
        <ele>504.984856</ele>
        <time>2023-09-24T09:43:53.198Z</time>
      </trkpt>
      <trkpt lat="43.03556" lon="0.61514">
        <ele>504.8494</ele>
        <time>2023-09-24T09:43:55.200Z</time>
      </trkpt>
      <trkpt lat="43.03555" lon="0.61531">
        <ele>504.717787</ele>
        <time>2023-09-24T09:43:57.203Z</time>
      </trkpt>
      <trkpt lat="43.03557" lon="0.61547">
        <ele>504.59333</ele>
        <time>2023-09-24T09:43:59.211Z</time>
      </trkpt>
      <trkpt lat="43.03565" lon="0.61558">
        <ele>504.465092</ele>
        <time>2023-09-24T09:44:01.213Z</time>
      </trkpt>
      <trkpt lat="43.03577" lon="0.61563">
        <ele>504.337358</ele>
        <time>2023-09-24T09:44:03.233Z</time>
      </trkpt>
      <trkpt lat="43.03589" lon="0.61565">
        <ele>504.206423</ele>
        <time>2023-09-24T09:44:05.201Z</time>
      </trkpt>
      <trkpt lat="43.03601" lon="0.61569">
        <ele>504.074615</ele>
        <time>2023-09-24T09:44:07.195Z</time>
      </trkpt>
      <trkpt lat="43.03614" lon="0.6157">
        <ele>503.935361</ele>
        <time>2023-09-24T09:44:09.186Z</time>
      </trkpt>
      <trkpt lat="43.03625" lon="0.61566">
        <ele>503.812847</ele>
        <time>2023-09-24T09:44:11.197Z</time>
      </trkpt>
      <trkpt lat="43.03635" lon="0.61558">
        <ele>503.683375</ele>
        <time>2023-09-24T09:44:13.216Z</time>
      </trkpt>
      <trkpt lat="43.03646" lon="0.61549">
        <ele>503.549945</ele>
        <time>2023-09-24T09:44:15.195Z</time>
      </trkpt>
      <trkpt lat="43.03657" lon="0.61541">
        <ele>503.413329</ele>
        <time>2023-09-24T09:44:17.216Z</time>
      </trkpt>
      <trkpt lat="43.03669" lon="0.61533">
        <ele>503.268374</ele>
        <time>2023-09-24T09:44:19.196Z</time>
      </trkpt>
      <trkpt lat="43.03681" lon="0.61525">
        <ele>503.127066</ele>
        <time>2023-09-24T09:44:21.198Z</time>
      </trkpt>
      <trkpt lat="43.03693" lon="0.61517">
        <ele>503.073111</ele>
        <time>2023-09-24T09:44:23.196Z</time>
      </trkpt>
      <trkpt lat="43.03704" lon="0.6151">
        <ele>503.073111</ele>
        <time>2023-09-24T09:44:25.189Z</time>
      </trkpt>
      <trkpt lat="43.03715" lon="0.61502">
        <ele>503.073111</ele>
        <time>2023-09-24T09:44:27.193Z</time>
      </trkpt>
      <trkpt lat="43.03725" lon="0.61495">
        <ele>503.073111</ele>
        <time>2023-09-24T09:44:29.221Z</time>
      </trkpt>
      <trkpt lat="43.03736" lon="0.61488">
        <ele>503.073111</ele>
        <time>2023-09-24T09:44:31.202Z</time>
      </trkpt>
      <trkpt lat="43.03747" lon="0.6148">
        <ele>503.073111</ele>
        <time>2023-09-24T09:44:33.216Z</time>
      </trkpt>
      <trkpt lat="43.03757" lon="0.61473">
        <ele>503.073111</ele>
        <time>2023-09-24T09:44:35.195Z</time>
      </trkpt>
      <trkpt lat="43.03768" lon="0.61468">
        <ele>503.073111</ele>
        <time>2023-09-24T09:44:37.222Z</time>
      </trkpt>
      <trkpt lat="43.03778" lon="0.61462">
        <ele>503.073111</ele>
        <time>2023-09-24T09:44:39.195Z</time>
      </trkpt>
      <trkpt lat="43.03787" lon="0.61454">
        <ele>503.073111</ele>
        <time>2023-09-24T09:44:41.205Z</time>
      </trkpt>
      <trkpt lat="43.03795" lon="0.61448">
        <ele>503.073111</ele>
        <time>2023-09-24T09:44:43.201Z</time>
      </trkpt>
      <trkpt lat="43.03805" lon="0.61447">
        <ele>503.073111</ele>
        <time>2023-09-24T09:44:45.209Z</time>
      </trkpt>
      <trkpt lat="43.03814" lon="0.61452">
        <ele>503.073111</ele>
        <time>2023-09-24T09:44:47.204Z</time>
      </trkpt>
      <trkpt lat="43.03821" lon="0.61463">
        <ele>503.073111</ele>
        <time>2023-09-24T09:44:49.205Z</time>
      </trkpt>
      <trkpt lat="43.03827" lon="0.61475">
        <ele>503.073111</ele>
        <time>2023-09-24T09:44:51.211Z</time>
      </trkpt>
      <trkpt lat="43.03833" lon="0.61484">
        <ele>503.073111</ele>
        <time>2023-09-24T09:44:53.221Z</time>
      </trkpt>
      <trkpt lat="43.03844" lon="0.61493">
        <ele>503.073111</ele>
        <time>2023-09-24T09:44:56.219Z</time>
      </trkpt>
      <trkpt lat="43.03856" lon="0.615">
        <ele>503.073111</ele>
        <time>2023-09-24T09:44:59.211Z</time>
      </trkpt>
      <trkpt lat="43.03868" lon="0.61507">
        <ele>503.073111</ele>
        <time>2023-09-24T09:45:02.201Z</time>
      </trkpt>
      <trkpt lat="43.03879" lon="0.61509">
        <ele>503.073111</ele>
        <time>2023-09-24T09:45:05.201Z</time>
      </trkpt>
      <trkpt lat="43.03889" lon="0.61509">
        <ele>503.073111</ele>
        <time>2023-09-24T09:45:08.192Z</time>
      </trkpt>
      <trkpt lat="43.03898" lon="0.61511">
        <ele>503.073111</ele>
        <time>2023-09-24T09:45:11.205Z</time>
      </trkpt>
      <trkpt lat="43.03904" lon="0.61523">
        <ele>503.073111</ele>
        <time>2023-09-24T09:45:15.211Z</time>
      </trkpt>
      <trkpt lat="43.03906" lon="0.61534">
        <ele>503.073111</ele>
        <time>2023-09-24T09:45:33.297Z</time>
      </trkpt>
    </trkseg>
  </trk>
</gpx>